<?xml version="1.0" encoding="UTF-8" standalone="no" ?>
<gpx xmlns="http://www.topografix.com/GPX/1/1" xmlns:xsi="http://www.w3.org/2001/XMLSchema-instance" xsi:schemaLocation="http://www.topografix.com/GPX/1/1 http://www.topografix.com/GPX/1/1/gpx.xsd" version="1.1" creator="VisuGPX - https://www.visugpx.com">
  <metadata>
    <name>Le lac de Gréziolles</name>
    <desc><![CDATA[Lac de Gréziolles]]></desc>
  </metadata>
  <trk>
    <name><![CDATA[suuntoapp-Hiking-2022-04-16T07-45-43Z]]></name>
    <trkseg>
      <trkpt lat="42.91727" lon="0.20906">
        <ele>1424</ele>
        <time>2022-04-16T07:45:43Z</time>
      </trkpt>
      <trkpt lat="42.91723" lon="0.209">
        <ele>1424</ele>
        <time>2022-04-16T07:45:51Z</time>
      </trkpt>
      <trkpt lat="42.91716" lon="0.2091">
        <ele>1424</ele>
        <time>2022-04-16T07:45:58Z</time>
      </trkpt>
      <trkpt lat="42.91708" lon="0.20915">
        <ele>1422</ele>
        <time>2022-04-16T07:46:04Z</time>
      </trkpt>
      <trkpt lat="42.91699" lon="0.20923">
        <ele>1421</ele>
        <time>2022-04-16T07:46:11Z</time>
      </trkpt>
      <trkpt lat="42.91691" lon="0.2093">
        <ele>1421</ele>
        <time>2022-04-16T07:46:19Z</time>
      </trkpt>
      <trkpt lat="42.91684" lon="0.20939">
        <ele>1420</ele>
        <time>2022-04-16T07:46:26Z</time>
      </trkpt>
      <trkpt lat="42.91674" lon="0.2094">
        <ele>1420</ele>
        <time>2022-04-16T07:46:32Z</time>
      </trkpt>
      <trkpt lat="42.91666" lon="0.20934">
        <ele>1420</ele>
        <time>2022-04-16T07:46:38Z</time>
      </trkpt>
      <trkpt lat="42.91658" lon="0.20925">
        <ele>1420</ele>
        <time>2022-04-16T07:46:52Z</time>
      </trkpt>
      <trkpt lat="42.91648" lon="0.20923">
        <ele>1420</ele>
        <time>2022-04-16T07:46:58Z</time>
      </trkpt>
      <trkpt lat="42.91642" lon="0.20914">
        <ele>1416</ele>
        <time>2022-04-16T07:47:02Z</time>
      </trkpt>
      <trkpt lat="42.9164" lon="0.20932">
        <ele>1416</ele>
        <time>2022-04-16T07:47:05Z</time>
      </trkpt>
      <trkpt lat="42.91646" lon="0.20941">
        <ele>1416</ele>
        <time>2022-04-16T07:47:09Z</time>
      </trkpt>
      <trkpt lat="42.91637" lon="0.20946">
        <ele>1414</ele>
        <time>2022-04-16T07:47:23Z</time>
      </trkpt>
      <trkpt lat="42.91628" lon="0.20941">
        <ele>1415</ele>
        <time>2022-04-16T07:47:32Z</time>
      </trkpt>
      <trkpt lat="42.91629" lon="0.20956">
        <ele>1416</ele>
        <time>2022-04-16T07:47:49Z</time>
      </trkpt>
      <trkpt lat="42.9163" lon="0.20969">
        <ele>1416</ele>
        <time>2022-04-16T07:47:56Z</time>
      </trkpt>
      <trkpt lat="42.91638" lon="0.20976">
        <ele>1416</ele>
        <time>2022-04-16T07:48:03Z</time>
      </trkpt>
      <trkpt lat="42.91648" lon="0.20977">
        <ele>1416</ele>
        <time>2022-04-16T07:48:18Z</time>
      </trkpt>
      <trkpt lat="42.91641" lon="0.20986">
        <ele>1416</ele>
        <time>2022-04-16T07:48:33Z</time>
      </trkpt>
      <trkpt lat="42.91639" lon="0.20973">
        <ele>1416</ele>
        <time>2022-04-16T07:49:12Z</time>
      </trkpt>
      <trkpt lat="42.91629" lon="0.20975">
        <ele>1416</ele>
        <time>2022-04-16T07:49:20Z</time>
      </trkpt>
      <trkpt lat="42.91626" lon="0.20988">
        <ele>1417</ele>
        <time>2022-04-16T07:49:24Z</time>
      </trkpt>
      <trkpt lat="42.91625" lon="0.21001">
        <ele>1417</ele>
        <time>2022-04-16T07:49:32Z</time>
      </trkpt>
      <trkpt lat="42.91619" lon="0.21007">
        <ele>1417</ele>
        <time>2022-04-16T07:49:38Z</time>
      </trkpt>
      <trkpt lat="42.91614" lon="0.21007">
        <ele>1420</ele>
        <time>2022-04-16T07:49:42Z</time>
      </trkpt>
      <trkpt lat="42.91611" lon="0.21019">
        <ele>1420</ele>
        <time>2022-04-16T07:49:48Z</time>
      </trkpt>
      <trkpt lat="42.91608" lon="0.21024">
        <ele>1418</ele>
        <time>2022-04-16T07:49:51Z</time>
      </trkpt>
      <trkpt lat="42.91605" lon="0.21036">
        <ele>1418</ele>
        <time>2022-04-16T07:49:56Z</time>
      </trkpt>
      <trkpt lat="42.91598" lon="0.21046">
        <ele>1418</ele>
        <time>2022-04-16T07:49:59Z</time>
      </trkpt>
      <trkpt lat="42.91594" lon="0.21058">
        <ele>1420</ele>
        <time>2022-04-16T07:50:04Z</time>
      </trkpt>
      <trkpt lat="42.9159" lon="0.21071">
        <ele>1420</ele>
        <time>2022-04-16T07:50:11Z</time>
      </trkpt>
      <trkpt lat="42.91582" lon="0.21079">
        <ele>1420</ele>
        <time>2022-04-16T07:50:17Z</time>
      </trkpt>
      <trkpt lat="42.91582" lon="0.21093">
        <ele>1422</ele>
        <time>2022-04-16T07:50:26Z</time>
      </trkpt>
      <trkpt lat="42.91584" lon="0.21105">
        <ele>1426</ele>
        <time>2022-04-16T07:50:37Z</time>
      </trkpt>
      <trkpt lat="42.91581" lon="0.21117">
        <ele>1426</ele>
        <time>2022-04-16T07:50:50Z</time>
      </trkpt>
      <trkpt lat="42.91574" lon="0.21125">
        <ele>1432</ele>
        <time>2022-04-16T07:51:03Z</time>
      </trkpt>
      <trkpt lat="42.91577" lon="0.21138">
        <ele>1432</ele>
        <time>2022-04-16T07:51:15Z</time>
      </trkpt>
      <trkpt lat="42.91573" lon="0.21149">
        <ele>1435</ele>
        <time>2022-04-16T07:51:28Z</time>
      </trkpt>
      <trkpt lat="42.91567" lon="0.21161">
        <ele>1442</ele>
        <time>2022-04-16T07:51:59Z</time>
      </trkpt>
      <trkpt lat="42.9156" lon="0.21168">
        <ele>1442</ele>
        <time>2022-04-16T07:52:00Z</time>
      </trkpt>
      <trkpt lat="42.91569" lon="0.21173">
        <ele>1446</ele>
        <time>2022-04-16T07:52:15Z</time>
      </trkpt>
      <trkpt lat="42.91575" lon="0.21162">
        <ele>1446</ele>
        <time>2022-04-16T07:52:20Z</time>
      </trkpt>
      <trkpt lat="42.91576" lon="0.2115">
        <ele>1448</ele>
        <time>2022-04-16T07:52:24Z</time>
      </trkpt>
      <trkpt lat="42.9157" lon="0.2116">
        <ele>1454</ele>
        <time>2022-04-16T07:53:03Z</time>
      </trkpt>
      <trkpt lat="42.91571" lon="0.21174">
        <ele>1455</ele>
        <time>2022-04-16T07:53:20Z</time>
      </trkpt>
      <trkpt lat="42.91571" lon="0.21187">
        <ele>1457</ele>
        <time>2022-04-16T07:53:28Z</time>
      </trkpt>
      <trkpt lat="42.91568" lon="0.2117">
        <ele>1463</ele>
        <time>2022-04-16T07:53:52Z</time>
      </trkpt>
      <trkpt lat="42.91567" lon="0.21186">
        <ele>1463</ele>
        <time>2022-04-16T07:53:57Z</time>
      </trkpt>
      <trkpt lat="42.91565" lon="0.212">
        <ele>1464</ele>
        <time>2022-04-16T07:54:02Z</time>
      </trkpt>
      <trkpt lat="42.91572" lon="0.21211">
        <ele>1466</ele>
        <time>2022-04-16T07:54:18Z</time>
      </trkpt>
      <trkpt lat="42.9157" lon="0.21224">
        <ele>1469</ele>
        <time>2022-04-16T07:54:35Z</time>
      </trkpt>
      <trkpt lat="42.91556" lon="0.21231">
        <ele>1471</ele>
        <time>2022-04-16T07:54:45Z</time>
      </trkpt>
      <trkpt lat="42.91563" lon="0.21222">
        <ele>1473</ele>
        <time>2022-04-16T07:54:55Z</time>
      </trkpt>
      <trkpt lat="42.91557" lon="0.21236">
        <ele>1478</ele>
        <time>2022-04-16T07:55:21Z</time>
      </trkpt>
      <trkpt lat="42.91558" lon="0.21249">
        <ele>1478</ele>
        <time>2022-04-16T07:55:28Z</time>
      </trkpt>
      <trkpt lat="42.91554" lon="0.2126">
        <ele>1478</ele>
        <time>2022-04-16T07:55:38Z</time>
      </trkpt>
      <trkpt lat="42.91565" lon="0.21259">
        <ele>1480</ele>
        <time>2022-04-16T07:55:43Z</time>
      </trkpt>
      <trkpt lat="42.91565" lon="0.21271">
        <ele>1480</ele>
        <time>2022-04-16T07:55:49Z</time>
      </trkpt>
      <trkpt lat="42.91561" lon="0.21283">
        <ele>1483</ele>
        <time>2022-04-16T07:56:02Z</time>
      </trkpt>
      <trkpt lat="42.91563" lon="0.21296">
        <ele>1486</ele>
        <time>2022-04-16T07:56:26Z</time>
      </trkpt>
      <trkpt lat="42.91573" lon="0.213">
        <ele>1491</ele>
        <time>2022-04-16T07:56:46Z</time>
      </trkpt>
      <trkpt lat="42.91583" lon="0.21301">
        <ele>1492</ele>
        <time>2022-04-16T07:56:52Z</time>
      </trkpt>
      <trkpt lat="42.91589" lon="0.21312">
        <ele>1492</ele>
        <time>2022-04-16T07:57:00Z</time>
      </trkpt>
      <trkpt lat="42.91582" lon="0.21323">
        <ele>1497</ele>
        <time>2022-04-16T07:57:24Z</time>
      </trkpt>
      <trkpt lat="42.9159" lon="0.2133">
        <ele>1503</ele>
        <time>2022-04-16T07:57:52Z</time>
      </trkpt>
      <trkpt lat="42.91596" lon="0.21339">
        <ele>1504</ele>
        <time>2022-04-16T07:58:06Z</time>
      </trkpt>
      <trkpt lat="42.91587" lon="0.21343">
        <ele>1508</ele>
        <time>2022-04-16T07:58:27Z</time>
      </trkpt>
      <trkpt lat="42.91579" lon="0.21349">
        <ele>1509</ele>
        <time>2022-04-16T07:58:38Z</time>
      </trkpt>
      <trkpt lat="42.91589" lon="0.21353">
        <ele>1511</ele>
        <time>2022-04-16T07:58:45Z</time>
      </trkpt>
      <trkpt lat="42.91584" lon="0.21365">
        <ele>1516</ele>
        <time>2022-04-16T07:59:12Z</time>
      </trkpt>
      <trkpt lat="42.91589" lon="0.21375">
        <ele>1522</ele>
        <time>2022-04-16T07:59:46Z</time>
      </trkpt>
      <trkpt lat="42.91582" lon="0.21383">
        <ele>1522</ele>
        <time>2022-04-16T07:59:58Z</time>
      </trkpt>
      <trkpt lat="42.91583" lon="0.21396">
        <ele>1527</ele>
        <time>2022-04-16T08:00:17Z</time>
      </trkpt>
      <trkpt lat="42.91579" lon="0.21408">
        <ele>1529</ele>
        <time>2022-04-16T08:00:36Z</time>
      </trkpt>
      <trkpt lat="42.91574" lon="0.21418">
        <ele>1533</ele>
        <time>2022-04-16T08:00:51Z</time>
      </trkpt>
      <trkpt lat="42.91566" lon="0.21426">
        <ele>1535</ele>
        <time>2022-04-16T08:01:02Z</time>
      </trkpt>
      <trkpt lat="42.91569" lon="0.21438">
        <ele>1537</ele>
        <time>2022-04-16T08:01:23Z</time>
      </trkpt>
      <trkpt lat="42.91568" lon="0.21451">
        <ele>1541</ele>
        <time>2022-04-16T08:01:41Z</time>
      </trkpt>
      <trkpt lat="42.91563" lon="0.21463">
        <ele>1541</ele>
        <time>2022-04-16T08:01:48Z</time>
      </trkpt>
      <trkpt lat="42.91559" lon="0.21476">
        <ele>1542</ele>
        <time>2022-04-16T08:01:59Z</time>
      </trkpt>
      <trkpt lat="42.91551" lon="0.21488">
        <ele>1542</ele>
        <time>2022-04-16T08:02:08Z</time>
      </trkpt>
      <trkpt lat="42.91551" lon="0.21502">
        <ele>1543</ele>
        <time>2022-04-16T08:02:19Z</time>
      </trkpt>
      <trkpt lat="42.91545" lon="0.21511">
        <ele>1544</ele>
        <time>2022-04-16T08:02:27Z</time>
      </trkpt>
      <trkpt lat="42.91538" lon="0.21522">
        <ele>1545</ele>
        <time>2022-04-16T08:02:35Z</time>
      </trkpt>
      <trkpt lat="42.9154" lon="0.21538">
        <ele>1546</ele>
        <time>2022-04-16T08:02:49Z</time>
      </trkpt>
      <trkpt lat="42.91534" lon="0.2155">
        <ele>1547</ele>
        <time>2022-04-16T08:02:55Z</time>
      </trkpt>
      <trkpt lat="42.91532" lon="0.21562">
        <ele>1548</ele>
        <time>2022-04-16T08:03:07Z</time>
      </trkpt>
      <trkpt lat="42.9153" lon="0.21577">
        <ele>1550</ele>
        <time>2022-04-16T08:03:23Z</time>
      </trkpt>
      <trkpt lat="42.91526" lon="0.21588">
        <ele>1550</ele>
        <time>2022-04-16T08:03:29Z</time>
      </trkpt>
      <trkpt lat="42.91522" lon="0.21599">
        <ele>1550</ele>
        <time>2022-04-16T08:03:37Z</time>
      </trkpt>
      <trkpt lat="42.91517" lon="0.21612">
        <ele>1550</ele>
        <time>2022-04-16T08:03:47Z</time>
      </trkpt>
      <trkpt lat="42.91512" lon="0.21622">
        <ele>1550</ele>
        <time>2022-04-16T08:03:56Z</time>
      </trkpt>
      <trkpt lat="42.91504" lon="0.2163">
        <ele>1549</ele>
        <time>2022-04-16T08:04:06Z</time>
      </trkpt>
      <trkpt lat="42.91496" lon="0.21638">
        <ele>1550</ele>
        <time>2022-04-16T08:04:16Z</time>
      </trkpt>
      <trkpt lat="42.91487" lon="0.21646">
        <ele>1551</ele>
        <time>2022-04-16T08:04:25Z</time>
      </trkpt>
      <trkpt lat="42.9148" lon="0.21655">
        <ele>1551</ele>
        <time>2022-04-16T08:04:35Z</time>
      </trkpt>
      <trkpt lat="42.91473" lon="0.21664">
        <ele>1552</ele>
        <time>2022-04-16T08:04:45Z</time>
      </trkpt>
      <trkpt lat="42.91465" lon="0.21673">
        <ele>1552</ele>
        <time>2022-04-16T08:04:54Z</time>
      </trkpt>
      <trkpt lat="42.91457" lon="0.21678">
        <ele>1552</ele>
        <time>2022-04-16T08:06:04Z</time>
      </trkpt>
      <trkpt lat="42.91447" lon="0.21678">
        <ele>1552</ele>
        <time>2022-04-16T08:06:12Z</time>
      </trkpt>
      <trkpt lat="42.91437" lon="0.2168">
        <ele>1552</ele>
        <time>2022-04-16T08:06:20Z</time>
      </trkpt>
      <trkpt lat="42.91427" lon="0.21681">
        <ele>1552</ele>
        <time>2022-04-16T08:06:29Z</time>
      </trkpt>
      <trkpt lat="42.91418" lon="0.21679">
        <ele>1552</ele>
        <time>2022-04-16T08:06:39Z</time>
      </trkpt>
      <trkpt lat="42.91408" lon="0.21679">
        <ele>1553</ele>
        <time>2022-04-16T08:06:48Z</time>
      </trkpt>
      <trkpt lat="42.91397" lon="0.21675">
        <ele>1553</ele>
        <time>2022-04-16T08:06:57Z</time>
      </trkpt>
      <trkpt lat="42.91388" lon="0.21672">
        <ele>1552</ele>
        <time>2022-04-16T08:07:06Z</time>
      </trkpt>
      <trkpt lat="42.91379" lon="0.21668">
        <ele>1553</ele>
        <time>2022-04-16T08:07:13Z</time>
      </trkpt>
      <trkpt lat="42.91371" lon="0.21662">
        <ele>1554</ele>
        <time>2022-04-16T08:07:22Z</time>
      </trkpt>
      <trkpt lat="42.91365" lon="0.21652">
        <ele>1554</ele>
        <time>2022-04-16T08:07:29Z</time>
      </trkpt>
      <trkpt lat="42.91355" lon="0.21648">
        <ele>1555</ele>
        <time>2022-04-16T08:07:40Z</time>
      </trkpt>
      <trkpt lat="42.91346" lon="0.21644">
        <ele>1555</ele>
        <time>2022-04-16T08:07:49Z</time>
      </trkpt>
      <trkpt lat="42.91338" lon="0.2164">
        <ele>1554</ele>
        <time>2022-04-16T08:08:01Z</time>
      </trkpt>
      <trkpt lat="42.91328" lon="0.21634">
        <ele>1554</ele>
        <time>2022-04-16T08:08:08Z</time>
      </trkpt>
      <trkpt lat="42.9132" lon="0.21627">
        <ele>1554</ele>
        <time>2022-04-16T08:08:17Z</time>
      </trkpt>
      <trkpt lat="42.91311" lon="0.21624">
        <ele>1553</ele>
        <time>2022-04-16T08:08:24Z</time>
      </trkpt>
      <trkpt lat="42.91301" lon="0.21621">
        <ele>1553</ele>
        <time>2022-04-16T08:08:31Z</time>
      </trkpt>
      <trkpt lat="42.91292" lon="0.21622">
        <ele>1553</ele>
        <time>2022-04-16T08:08:38Z</time>
      </trkpt>
      <trkpt lat="42.91283" lon="0.21617">
        <ele>1553</ele>
        <time>2022-04-16T08:08:48Z</time>
      </trkpt>
      <trkpt lat="42.91275" lon="0.21609">
        <ele>1553</ele>
        <time>2022-04-16T08:08:56Z</time>
      </trkpt>
      <trkpt lat="42.91266" lon="0.21602">
        <ele>1552</ele>
        <time>2022-04-16T08:09:06Z</time>
      </trkpt>
      <trkpt lat="42.91254" lon="0.21595">
        <ele>1552</ele>
        <time>2022-04-16T08:09:17Z</time>
      </trkpt>
      <trkpt lat="42.91246" lon="0.21587">
        <ele>1552</ele>
        <time>2022-04-16T08:09:25Z</time>
      </trkpt>
      <trkpt lat="42.91237" lon="0.21584">
        <ele>1551</ele>
        <time>2022-04-16T08:09:32Z</time>
      </trkpt>
      <trkpt lat="42.91228" lon="0.2158">
        <ele>1550</ele>
        <time>2022-04-16T08:09:41Z</time>
      </trkpt>
      <trkpt lat="42.91219" lon="0.21575">
        <ele>1550</ele>
        <time>2022-04-16T08:09:49Z</time>
      </trkpt>
      <trkpt lat="42.9121" lon="0.21569">
        <ele>1549</ele>
        <time>2022-04-16T08:09:57Z</time>
      </trkpt>
      <trkpt lat="42.912" lon="0.21565">
        <ele>1547</ele>
        <time>2022-04-16T08:10:05Z</time>
      </trkpt>
      <trkpt lat="42.91195" lon="0.21555">
        <ele>1548</ele>
        <time>2022-04-16T08:10:14Z</time>
      </trkpt>
      <trkpt lat="42.91191" lon="0.21543">
        <ele>1548</ele>
        <time>2022-04-16T08:10:21Z</time>
      </trkpt>
      <trkpt lat="42.91186" lon="0.21532">
        <ele>1549</ele>
        <time>2022-04-16T08:10:32Z</time>
      </trkpt>
      <trkpt lat="42.91181" lon="0.21522">
        <ele>1551</ele>
        <time>2022-04-16T08:10:45Z</time>
      </trkpt>
      <trkpt lat="42.91177" lon="0.2151">
        <ele>1552</ele>
        <time>2022-04-16T08:10:55Z</time>
      </trkpt>
      <trkpt lat="42.91167" lon="0.21508">
        <ele>1551</ele>
        <time>2022-04-16T08:11:03Z</time>
      </trkpt>
      <trkpt lat="42.91157" lon="0.21507">
        <ele>1551</ele>
        <time>2022-04-16T08:11:11Z</time>
      </trkpt>
      <trkpt lat="42.91147" lon="0.21504">
        <ele>1551</ele>
        <time>2022-04-16T08:11:19Z</time>
      </trkpt>
      <trkpt lat="42.91139" lon="0.21497">
        <ele>1551</ele>
        <time>2022-04-16T08:11:27Z</time>
      </trkpt>
      <trkpt lat="42.91135" lon="0.21484">
        <ele>1552</ele>
        <time>2022-04-16T08:11:34Z</time>
      </trkpt>
      <trkpt lat="42.91132" lon="0.21471">
        <ele>1554</ele>
        <time>2022-04-16T08:11:43Z</time>
      </trkpt>
      <trkpt lat="42.91125" lon="0.21464">
        <ele>1556</ele>
        <time>2022-04-16T08:11:56Z</time>
      </trkpt>
      <trkpt lat="42.91116" lon="0.21473">
        <ele>1557</ele>
        <time>2022-04-16T08:12:10Z</time>
      </trkpt>
      <trkpt lat="42.9111" lon="0.21483">
        <ele>1557</ele>
        <time>2022-04-16T08:12:18Z</time>
      </trkpt>
      <trkpt lat="42.91102" lon="0.21488">
        <ele>1556</ele>
        <time>2022-04-16T08:12:27Z</time>
      </trkpt>
      <trkpt lat="42.91093" lon="0.21495">
        <ele>1555</ele>
        <time>2022-04-16T08:12:36Z</time>
      </trkpt>
      <trkpt lat="42.91087" lon="0.21505">
        <ele>1556</ele>
        <time>2022-04-16T08:12:44Z</time>
      </trkpt>
      <trkpt lat="42.91081" lon="0.21515">
        <ele>1554</ele>
        <time>2022-04-16T08:12:55Z</time>
      </trkpt>
      <trkpt lat="42.91071" lon="0.21519">
        <ele>1554</ele>
        <time>2022-04-16T08:12:59Z</time>
      </trkpt>
      <trkpt lat="42.91071" lon="0.21532">
        <ele>1550</ele>
        <time>2022-04-16T08:13:16Z</time>
      </trkpt>
      <trkpt lat="42.91062" lon="0.21535">
        <ele>1548</ele>
        <time>2022-04-16T08:13:32Z</time>
      </trkpt>
      <trkpt lat="42.91052" lon="0.21535">
        <ele>1549</ele>
        <time>2022-04-16T08:13:43Z</time>
      </trkpt>
      <trkpt lat="42.91043" lon="0.21531">
        <ele>1552</ele>
        <time>2022-04-16T08:14:03Z</time>
      </trkpt>
      <trkpt lat="42.91035" lon="0.21535">
        <ele>1554</ele>
        <time>2022-04-16T08:14:15Z</time>
      </trkpt>
      <trkpt lat="42.91027" lon="0.21526">
        <ele>1554</ele>
        <time>2022-04-16T08:14:23Z</time>
      </trkpt>
      <trkpt lat="42.91028" lon="0.21513">
        <ele>1555</ele>
        <time>2022-04-16T08:14:31Z</time>
      </trkpt>
      <trkpt lat="42.9102" lon="0.21506">
        <ele>1558</ele>
        <time>2022-04-16T08:14:53Z</time>
      </trkpt>
      <trkpt lat="42.91011" lon="0.215">
        <ele>1559</ele>
        <time>2022-04-16T08:15:02Z</time>
      </trkpt>
      <trkpt lat="42.91004" lon="0.21491">
        <ele>1560</ele>
        <time>2022-04-16T08:15:12Z</time>
      </trkpt>
      <trkpt lat="42.90995" lon="0.21487">
        <ele>1561</ele>
        <time>2022-04-16T08:15:24Z</time>
      </trkpt>
      <trkpt lat="42.90985" lon="0.21481">
        <ele>1562</ele>
        <time>2022-04-16T08:15:41Z</time>
      </trkpt>
      <trkpt lat="42.90974" lon="0.21476">
        <ele>1564</ele>
        <time>2022-04-16T08:15:51Z</time>
      </trkpt>
      <trkpt lat="42.90966" lon="0.2147">
        <ele>1564</ele>
        <time>2022-04-16T08:15:57Z</time>
      </trkpt>
      <trkpt lat="42.90959" lon="0.21461">
        <ele>1564</ele>
        <time>2022-04-16T08:16:07Z</time>
      </trkpt>
      <trkpt lat="42.90949" lon="0.2146">
        <ele>1565</ele>
        <time>2022-04-16T08:16:18Z</time>
      </trkpt>
      <trkpt lat="42.90942" lon="0.2145">
        <ele>1566</ele>
        <time>2022-04-16T08:16:30Z</time>
      </trkpt>
      <trkpt lat="42.90933" lon="0.21449">
        <ele>1570</ele>
        <time>2022-04-16T08:16:41Z</time>
      </trkpt>
      <trkpt lat="42.90924" lon="0.21447">
        <ele>1570</ele>
        <time>2022-04-16T08:16:48Z</time>
      </trkpt>
      <trkpt lat="42.90914" lon="0.21441">
        <ele>1570</ele>
        <time>2022-04-16T08:16:58Z</time>
      </trkpt>
      <trkpt lat="42.90907" lon="0.21434">
        <ele>1570</ele>
        <time>2022-04-16T08:17:07Z</time>
      </trkpt>
      <trkpt lat="42.90902" lon="0.21423">
        <ele>1571</ele>
        <time>2022-04-16T08:17:23Z</time>
      </trkpt>
      <trkpt lat="42.90894" lon="0.21415">
        <ele>1571</ele>
        <time>2022-04-16T08:17:34Z</time>
      </trkpt>
      <trkpt lat="42.90892" lon="0.21402">
        <ele>1571</ele>
        <time>2022-04-16T08:17:45Z</time>
      </trkpt>
      <trkpt lat="42.90882" lon="0.21395">
        <ele>1572</ele>
        <time>2022-04-16T08:17:54Z</time>
      </trkpt>
      <trkpt lat="42.90874" lon="0.21389">
        <ele>1573</ele>
        <time>2022-04-16T08:18:04Z</time>
      </trkpt>
      <trkpt lat="42.90863" lon="0.2139">
        <ele>1575</ele>
        <time>2022-04-16T08:18:16Z</time>
      </trkpt>
      <trkpt lat="42.90869" lon="0.21375">
        <ele>1576</ele>
        <time>2022-04-16T08:18:27Z</time>
      </trkpt>
      <trkpt lat="42.90861" lon="0.21365">
        <ele>1576</ele>
        <time>2022-04-16T08:18:33Z</time>
      </trkpt>
      <trkpt lat="42.90853" lon="0.21358">
        <ele>1577</ele>
        <time>2022-04-16T08:18:46Z</time>
      </trkpt>
      <trkpt lat="42.90844" lon="0.21352">
        <ele>1578</ele>
        <time>2022-04-16T08:18:53Z</time>
      </trkpt>
      <trkpt lat="42.90839" lon="0.2134">
        <ele>1578</ele>
        <time>2022-04-16T08:19:03Z</time>
      </trkpt>
      <trkpt lat="42.90832" lon="0.21331">
        <ele>1578</ele>
        <time>2022-04-16T08:19:08Z</time>
      </trkpt>
      <trkpt lat="42.90825" lon="0.21323">
        <ele>1579</ele>
        <time>2022-04-16T08:19:18Z</time>
      </trkpt>
      <trkpt lat="42.90819" lon="0.21314">
        <ele>1580</ele>
        <time>2022-04-16T08:19:31Z</time>
      </trkpt>
      <trkpt lat="42.9081" lon="0.21309">
        <ele>1582</ele>
        <time>2022-04-16T08:19:45Z</time>
      </trkpt>
      <trkpt lat="42.90801" lon="0.21303">
        <ele>1581</ele>
        <time>2022-04-16T08:19:57Z</time>
      </trkpt>
      <trkpt lat="42.90792" lon="0.21298">
        <ele>1580</ele>
        <time>2022-04-16T08:20:04Z</time>
      </trkpt>
      <trkpt lat="42.90783" lon="0.21294">
        <ele>1580</ele>
        <time>2022-04-16T08:20:14Z</time>
      </trkpt>
      <trkpt lat="42.90774" lon="0.21289">
        <ele>1582</ele>
        <time>2022-04-16T08:20:25Z</time>
      </trkpt>
      <trkpt lat="42.90769" lon="0.21279">
        <ele>1584</ele>
        <time>2022-04-16T08:20:33Z</time>
      </trkpt>
      <trkpt lat="42.90771" lon="0.21265">
        <ele>1584</ele>
        <time>2022-04-16T08:20:44Z</time>
      </trkpt>
      <trkpt lat="42.90765" lon="0.21255">
        <ele>1584</ele>
        <time>2022-04-16T08:20:53Z</time>
      </trkpt>
      <trkpt lat="42.90767" lon="0.21242">
        <ele>1584</ele>
        <time>2022-04-16T08:21:03Z</time>
      </trkpt>
      <trkpt lat="42.90764" lon="0.2123">
        <ele>1585</ele>
        <time>2022-04-16T08:21:11Z</time>
      </trkpt>
      <trkpt lat="42.90757" lon="0.21221">
        <ele>1585</ele>
        <time>2022-04-16T08:21:23Z</time>
      </trkpt>
      <trkpt lat="42.90751" lon="0.2121">
        <ele>1585</ele>
        <time>2022-04-16T08:21:30Z</time>
      </trkpt>
      <trkpt lat="42.90745" lon="0.212">
        <ele>1586</ele>
        <time>2022-04-16T08:21:40Z</time>
      </trkpt>
      <trkpt lat="42.90738" lon="0.21191">
        <ele>1588</ele>
        <time>2022-04-16T08:21:53Z</time>
      </trkpt>
      <trkpt lat="42.90731" lon="0.21182">
        <ele>1589</ele>
        <time>2022-04-16T08:22:04Z</time>
      </trkpt>
      <trkpt lat="42.90728" lon="0.2117">
        <ele>1589</ele>
        <time>2022-04-16T08:22:15Z</time>
      </trkpt>
      <trkpt lat="42.90723" lon="0.21159">
        <ele>1589</ele>
        <time>2022-04-16T08:22:25Z</time>
      </trkpt>
      <trkpt lat="42.9072" lon="0.21146">
        <ele>1590</ele>
        <time>2022-04-16T08:22:38Z</time>
      </trkpt>
      <trkpt lat="42.90711" lon="0.21141">
        <ele>1591</ele>
        <time>2022-04-16T08:22:46Z</time>
      </trkpt>
      <trkpt lat="42.90703" lon="0.2113">
        <ele>1593</ele>
        <time>2022-04-16T08:23:00Z</time>
      </trkpt>
      <trkpt lat="42.90701" lon="0.21117">
        <ele>1597</ele>
        <time>2022-04-16T08:23:14Z</time>
      </trkpt>
      <trkpt lat="42.90691" lon="0.2112">
        <ele>1599</ele>
        <time>2022-04-16T08:23:24Z</time>
      </trkpt>
      <trkpt lat="42.90678" lon="0.2112">
        <ele>1600</ele>
        <time>2022-04-16T08:23:35Z</time>
      </trkpt>
      <trkpt lat="42.90666" lon="0.21122">
        <ele>1602</ele>
        <time>2022-04-16T08:23:44Z</time>
      </trkpt>
      <trkpt lat="42.90656" lon="0.21121">
        <ele>1603</ele>
        <time>2022-04-16T08:23:51Z</time>
      </trkpt>
      <trkpt lat="42.90646" lon="0.21122">
        <ele>1606</ele>
        <time>2022-04-16T08:24:13Z</time>
      </trkpt>
      <trkpt lat="42.90636" lon="0.2112">
        <ele>1606</ele>
        <time>2022-04-16T08:24:20Z</time>
      </trkpt>
      <trkpt lat="42.90625" lon="0.21122">
        <ele>1607</ele>
        <time>2022-04-16T08:24:26Z</time>
      </trkpt>
      <trkpt lat="42.90618" lon="0.21114">
        <ele>1609</ele>
        <time>2022-04-16T08:24:41Z</time>
      </trkpt>
      <trkpt lat="42.90609" lon="0.2111">
        <ele>1609</ele>
        <time>2022-04-16T08:24:49Z</time>
      </trkpt>
      <trkpt lat="42.90606" lon="0.21097">
        <ele>1612</ele>
        <time>2022-04-16T08:25:07Z</time>
      </trkpt>
      <trkpt lat="42.90595" lon="0.21094">
        <ele>1613</ele>
        <time>2022-04-16T08:25:20Z</time>
      </trkpt>
      <trkpt lat="42.90586" lon="0.21094">
        <ele>1616</ele>
        <time>2022-04-16T08:25:34Z</time>
      </trkpt>
      <trkpt lat="42.9058" lon="0.21103">
        <ele>1616</ele>
        <time>2022-04-16T08:25:39Z</time>
      </trkpt>
      <trkpt lat="42.9057" lon="0.21108">
        <ele>1619</ele>
        <time>2022-04-16T08:25:42Z</time>
      </trkpt>
      <trkpt lat="42.90568" lon="0.21094">
        <ele>1620</ele>
        <time>2022-04-16T08:25:58Z</time>
      </trkpt>
      <trkpt lat="42.90569" lon="0.21082">
        <ele>1625</ele>
        <time>2022-04-16T08:26:25Z</time>
      </trkpt>
      <trkpt lat="42.90579" lon="0.21076">
        <ele>1625</ele>
        <time>2022-04-16T08:26:32Z</time>
      </trkpt>
      <trkpt lat="42.90576" lon="0.2109">
        <ele>1625</ele>
        <time>2022-04-16T08:26:45Z</time>
      </trkpt>
      <trkpt lat="42.90567" lon="0.21087">
        <ele>1625</ele>
        <time>2022-04-16T08:26:57Z</time>
      </trkpt>
      <trkpt lat="42.9056" lon="0.21095">
        <ele>1626</ele>
        <time>2022-04-16T08:27:43Z</time>
      </trkpt>
      <trkpt lat="42.90559" lon="0.21108">
        <ele>1626</ele>
        <time>2022-04-16T08:28:30Z</time>
      </trkpt>
      <trkpt lat="42.90563" lon="0.21096">
        <ele>1626</ele>
        <time>2022-04-16T08:28:53Z</time>
      </trkpt>
      <trkpt lat="42.90572" lon="0.21092">
        <ele>1626</ele>
        <time>2022-04-16T08:29:25Z</time>
      </trkpt>
      <trkpt lat="42.90563" lon="0.2109">
        <ele>1626</ele>
        <time>2022-04-16T08:29:46Z</time>
      </trkpt>
      <trkpt lat="42.90554" lon="0.21084">
        <ele>1626</ele>
        <time>2022-04-16T08:30:34Z</time>
      </trkpt>
      <trkpt lat="42.90545" lon="0.21082">
        <ele>1626</ele>
        <time>2022-04-16T08:30:45Z</time>
      </trkpt>
      <trkpt lat="42.90536" lon="0.21085">
        <ele>1627</ele>
        <time>2022-04-16T08:30:52Z</time>
      </trkpt>
      <trkpt lat="42.90527" lon="0.21084">
        <ele>1630</ele>
        <time>2022-04-16T08:31:08Z</time>
      </trkpt>
      <trkpt lat="42.90523" lon="0.21072">
        <ele>1632</ele>
        <time>2022-04-16T08:31:26Z</time>
      </trkpt>
      <trkpt lat="42.90525" lon="0.2106">
        <ele>1634</ele>
        <time>2022-04-16T08:31:40Z</time>
      </trkpt>
      <trkpt lat="42.90524" lon="0.21048">
        <ele>1637</ele>
        <time>2022-04-16T08:31:54Z</time>
      </trkpt>
      <trkpt lat="42.90529" lon="0.21036">
        <ele>1640</ele>
        <time>2022-04-16T08:32:11Z</time>
      </trkpt>
      <trkpt lat="42.90531" lon="0.21024">
        <ele>1642</ele>
        <time>2022-04-16T08:32:26Z</time>
      </trkpt>
      <trkpt lat="42.90533" lon="0.21011">
        <ele>1644</ele>
        <time>2022-04-16T08:32:49Z</time>
      </trkpt>
      <trkpt lat="42.90535" lon="0.20999">
        <ele>1647</ele>
        <time>2022-04-16T08:33:01Z</time>
      </trkpt>
      <trkpt lat="42.9054" lon="0.20987">
        <ele>1648</ele>
        <time>2022-04-16T08:33:14Z</time>
      </trkpt>
      <trkpt lat="42.90541" lon="0.20975">
        <ele>1651</ele>
        <time>2022-04-16T08:33:31Z</time>
      </trkpt>
      <trkpt lat="42.90535" lon="0.20964">
        <ele>1655</ele>
        <time>2022-04-16T08:33:51Z</time>
      </trkpt>
      <trkpt lat="42.90538" lon="0.20952">
        <ele>1659</ele>
        <time>2022-04-16T08:34:12Z</time>
      </trkpt>
      <trkpt lat="42.90545" lon="0.20942">
        <ele>1659</ele>
        <time>2022-04-16T08:34:22Z</time>
      </trkpt>
      <trkpt lat="42.90553" lon="0.20934">
        <ele>1660</ele>
        <time>2022-04-16T08:34:32Z</time>
      </trkpt>
      <trkpt lat="42.90556" lon="0.20922">
        <ele>1664</ele>
        <time>2022-04-16T08:34:57Z</time>
      </trkpt>
      <trkpt lat="42.90556" lon="0.20909">
        <ele>1669</ele>
        <time>2022-04-16T08:35:25Z</time>
      </trkpt>
      <trkpt lat="42.90549" lon="0.20901">
        <ele>1671</ele>
        <time>2022-04-16T08:35:38Z</time>
      </trkpt>
      <trkpt lat="42.90539" lon="0.20903">
        <ele>1672</ele>
        <time>2022-04-16T08:35:48Z</time>
      </trkpt>
      <trkpt lat="42.90529" lon="0.20907">
        <ele>1676</ele>
        <time>2022-04-16T08:36:04Z</time>
      </trkpt>
      <trkpt lat="42.90519" lon="0.20912">
        <ele>1678</ele>
        <time>2022-04-16T08:36:24Z</time>
      </trkpt>
      <trkpt lat="42.90514" lon="0.20923">
        <ele>1685</ele>
        <time>2022-04-16T08:37:10Z</time>
      </trkpt>
      <trkpt lat="42.90509" lon="0.20934">
        <ele>1688</ele>
        <time>2022-04-16T08:37:25Z</time>
      </trkpt>
      <trkpt lat="42.905" lon="0.20927">
        <ele>1692</ele>
        <time>2022-04-16T08:37:42Z</time>
      </trkpt>
      <trkpt lat="42.905" lon="0.20939">
        <ele>1695</ele>
        <time>2022-04-16T08:38:11Z</time>
      </trkpt>
      <trkpt lat="42.90491" lon="0.20943">
        <ele>1697</ele>
        <time>2022-04-16T08:38:22Z</time>
      </trkpt>
      <trkpt lat="42.90494" lon="0.20956">
        <ele>1699</ele>
        <time>2022-04-16T08:38:44Z</time>
      </trkpt>
      <trkpt lat="42.90485" lon="0.20952">
        <ele>1700</ele>
        <time>2022-04-16T08:39:08Z</time>
      </trkpt>
      <trkpt lat="42.90477" lon="0.20959">
        <ele>1703</ele>
        <time>2022-04-16T08:39:30Z</time>
      </trkpt>
      <trkpt lat="42.9047" lon="0.2095">
        <ele>1710</ele>
        <time>2022-04-16T08:40:02Z</time>
      </trkpt>
      <trkpt lat="42.90461" lon="0.20952">
        <ele>1716</ele>
        <time>2022-04-16T08:41:19Z</time>
      </trkpt>
      <trkpt lat="42.90453" lon="0.2096">
        <ele>1719</ele>
        <time>2022-04-16T08:41:35Z</time>
      </trkpt>
      <trkpt lat="42.90445" lon="0.20965">
        <ele>1724</ele>
        <time>2022-04-16T08:42:09Z</time>
      </trkpt>
      <trkpt lat="42.90441" lon="0.20953">
        <ele>1726</ele>
        <time>2022-04-16T08:42:24Z</time>
      </trkpt>
      <trkpt lat="42.90433" lon="0.20947">
        <ele>1726</ele>
        <time>2022-04-16T08:42:36Z</time>
      </trkpt>
      <trkpt lat="42.90425" lon="0.20941">
        <ele>1727</ele>
        <time>2022-04-16T08:42:49Z</time>
      </trkpt>
      <trkpt lat="42.90415" lon="0.20937">
        <ele>1728</ele>
        <time>2022-04-16T08:42:58Z</time>
      </trkpt>
      <trkpt lat="42.90406" lon="0.20934">
        <ele>1733</ele>
        <time>2022-04-16T08:43:30Z</time>
      </trkpt>
      <trkpt lat="42.90397" lon="0.20927">
        <ele>1734</ele>
        <time>2022-04-16T08:43:37Z</time>
      </trkpt>
      <trkpt lat="42.90387" lon="0.20923">
        <ele>1738</ele>
        <time>2022-04-16T08:44:37Z</time>
      </trkpt>
      <trkpt lat="42.90361" lon="0.2091">
        <ele>1744</ele>
        <time>2022-04-16T08:45:48Z</time>
      </trkpt>
      <trkpt lat="42.9036" lon="0.20907">
        <ele>1746</ele>
        <time>2022-04-16T08:45:52Z</time>
      </trkpt>
      <trkpt lat="42.9036" lon="0.20904">
        <ele>1746</ele>
        <time>2022-04-16T08:45:57Z</time>
      </trkpt>
      <trkpt lat="42.90358" lon="0.20903">
        <ele>1746</ele>
        <time>2022-04-16T08:46:00Z</time>
      </trkpt>
      <trkpt lat="42.90359" lon="0.209">
        <ele>1747</ele>
        <time>2022-04-16T08:46:05Z</time>
      </trkpt>
      <trkpt lat="42.90357" lon="0.20897">
        <ele>1747</ele>
        <time>2022-04-16T08:46:10Z</time>
      </trkpt>
      <trkpt lat="42.90355" lon="0.20896">
        <ele>1749</ele>
        <time>2022-04-16T08:46:13Z</time>
      </trkpt>
      <trkpt lat="42.90353" lon="0.20895">
        <ele>1749</ele>
        <time>2022-04-16T08:46:16Z</time>
      </trkpt>
      <trkpt lat="42.90352" lon="0.20894">
        <ele>1749</ele>
        <time>2022-04-16T08:46:19Z</time>
      </trkpt>
      <trkpt lat="42.9035" lon="0.20892">
        <ele>1750</ele>
        <time>2022-04-16T08:46:23Z</time>
      </trkpt>
      <trkpt lat="42.90348" lon="0.20891">
        <ele>1750</ele>
        <time>2022-04-16T08:46:26Z</time>
      </trkpt>
      <trkpt lat="42.90346" lon="0.2089">
        <ele>1750</ele>
        <time>2022-04-16T08:46:30Z</time>
      </trkpt>
      <trkpt lat="42.90345" lon="0.20887">
        <ele>1752</ele>
        <time>2022-04-16T08:46:35Z</time>
      </trkpt>
      <trkpt lat="42.90344" lon="0.20885">
        <ele>1752</ele>
        <time>2022-04-16T08:46:39Z</time>
      </trkpt>
      <trkpt lat="42.90342" lon="0.20884">
        <ele>1754</ele>
        <time>2022-04-16T08:46:44Z</time>
      </trkpt>
      <trkpt lat="42.9034" lon="0.20883">
        <ele>1754</ele>
        <time>2022-04-16T08:46:48Z</time>
      </trkpt>
      <trkpt lat="42.90338" lon="0.20882">
        <ele>1755</ele>
        <time>2022-04-16T08:46:53Z</time>
      </trkpt>
      <trkpt lat="42.90336" lon="0.2088">
        <ele>1755</ele>
        <time>2022-04-16T08:46:57Z</time>
      </trkpt>
      <trkpt lat="42.90335" lon="0.20879">
        <ele>1757</ele>
        <time>2022-04-16T08:47:02Z</time>
      </trkpt>
      <trkpt lat="42.90333" lon="0.20881">
        <ele>1757</ele>
        <time>2022-04-16T08:47:06Z</time>
      </trkpt>
      <trkpt lat="42.90332" lon="0.20879">
        <ele>1757</ele>
        <time>2022-04-16T08:47:12Z</time>
      </trkpt>
      <trkpt lat="42.9033" lon="0.20876">
        <ele>1757</ele>
        <time>2022-04-16T08:47:14Z</time>
      </trkpt>
      <trkpt lat="42.90328" lon="0.20875">
        <ele>1757</ele>
        <time>2022-04-16T08:47:17Z</time>
      </trkpt>
      <trkpt lat="42.90326" lon="0.20875">
        <ele>1759</ele>
        <time>2022-04-16T08:47:21Z</time>
      </trkpt>
      <trkpt lat="42.90325" lon="0.20875">
        <ele>1759</ele>
        <time>2022-04-16T08:47:24Z</time>
      </trkpt>
      <trkpt lat="42.90323" lon="0.20874">
        <ele>1759</ele>
        <time>2022-04-16T08:47:28Z</time>
      </trkpt>
      <trkpt lat="42.90321" lon="0.20872">
        <ele>1760</ele>
        <time>2022-04-16T08:47:32Z</time>
      </trkpt>
      <trkpt lat="42.90319" lon="0.20871">
        <ele>1760</ele>
        <time>2022-04-16T08:47:35Z</time>
      </trkpt>
      <trkpt lat="42.90318" lon="0.20869">
        <ele>1760</ele>
        <time>2022-04-16T08:47:38Z</time>
      </trkpt>
      <trkpt lat="42.90316" lon="0.20867">
        <ele>1760</ele>
        <time>2022-04-16T08:47:40Z</time>
      </trkpt>
      <trkpt lat="42.90315" lon="0.20864">
        <ele>1761</ele>
        <time>2022-04-16T08:47:43Z</time>
      </trkpt>
      <trkpt lat="42.90312" lon="0.2086">
        <ele>1761</ele>
        <time>2022-04-16T08:47:47Z</time>
      </trkpt>
      <trkpt lat="42.90311" lon="0.20858">
        <ele>1761</ele>
        <time>2022-04-16T08:47:50Z</time>
      </trkpt>
      <trkpt lat="42.90309" lon="0.20857">
        <ele>1761</ele>
        <time>2022-04-16T08:47:53Z</time>
      </trkpt>
      <trkpt lat="42.90307" lon="0.20856">
        <ele>1761</ele>
        <time>2022-04-16T08:47:55Z</time>
      </trkpt>
      <trkpt lat="42.90305" lon="0.20854">
        <ele>1761</ele>
        <time>2022-04-16T08:47:57Z</time>
      </trkpt>
      <trkpt lat="42.90304" lon="0.20852">
        <ele>1761</ele>
        <time>2022-04-16T08:48:00Z</time>
      </trkpt>
      <trkpt lat="42.90302" lon="0.20851">
        <ele>1760</ele>
        <time>2022-04-16T08:48:02Z</time>
      </trkpt>
      <trkpt lat="42.903" lon="0.20853">
        <ele>1760</ele>
        <time>2022-04-16T08:48:05Z</time>
      </trkpt>
      <trkpt lat="42.90298" lon="0.20854">
        <ele>1760</ele>
        <time>2022-04-16T08:48:08Z</time>
      </trkpt>
      <trkpt lat="42.90295" lon="0.20854">
        <ele>1760</ele>
        <time>2022-04-16T08:48:10Z</time>
      </trkpt>
      <trkpt lat="42.90293" lon="0.20853">
        <ele>1760</ele>
        <time>2022-04-16T08:48:12Z</time>
      </trkpt>
      <trkpt lat="42.90291" lon="0.20853">
        <ele>1760</ele>
        <time>2022-04-16T08:48:15Z</time>
      </trkpt>
      <trkpt lat="42.90286" lon="0.2085">
        <ele>1760</ele>
        <time>2022-04-16T08:48:17Z</time>
      </trkpt>
      <trkpt lat="42.90284" lon="0.20849">
        <ele>1760</ele>
        <time>2022-04-16T08:48:19Z</time>
      </trkpt>
      <trkpt lat="42.90282" lon="0.2085">
        <ele>1759</ele>
        <time>2022-04-16T08:48:24Z</time>
      </trkpt>
      <trkpt lat="42.90278" lon="0.20849">
        <ele>1759</ele>
        <time>2022-04-16T08:48:28Z</time>
      </trkpt>
      <trkpt lat="42.90276" lon="0.20848">
        <ele>1759</ele>
        <time>2022-04-16T08:48:30Z</time>
      </trkpt>
      <trkpt lat="42.90274" lon="0.20849">
        <ele>1761</ele>
        <time>2022-04-16T08:48:33Z</time>
      </trkpt>
      <trkpt lat="42.90275" lon="0.20852">
        <ele>1761</ele>
        <time>2022-04-16T08:48:35Z</time>
      </trkpt>
      <trkpt lat="42.90277" lon="0.20853">
        <ele>1761</ele>
        <time>2022-04-16T08:48:37Z</time>
      </trkpt>
      <trkpt lat="42.90279" lon="0.20851">
        <ele>1761</ele>
        <time>2022-04-16T08:48:40Z</time>
      </trkpt>
      <trkpt lat="42.90277" lon="0.20851">
        <ele>1764</ele>
        <time>2022-04-16T08:48:52Z</time>
      </trkpt>
      <trkpt lat="42.90276" lon="0.20848">
        <ele>1764</ele>
        <time>2022-04-16T08:48:57Z</time>
      </trkpt>
      <trkpt lat="42.90274" lon="0.20847">
        <ele>1767</ele>
        <time>2022-04-16T08:49:05Z</time>
      </trkpt>
      <trkpt lat="42.90273" lon="0.20844">
        <ele>1767</ele>
        <time>2022-04-16T08:49:09Z</time>
      </trkpt>
      <trkpt lat="42.90275" lon="0.20838">
        <ele>1770</ele>
        <time>2022-04-16T08:49:22Z</time>
      </trkpt>
      <trkpt lat="42.90268" lon="0.20837">
        <ele>1772</ele>
        <time>2022-04-16T08:49:48Z</time>
      </trkpt>
      <trkpt lat="42.90266" lon="0.20838">
        <ele>1772</ele>
        <time>2022-04-16T08:49:51Z</time>
      </trkpt>
      <trkpt lat="42.90264" lon="0.20839">
        <ele>1772</ele>
        <time>2022-04-16T08:49:55Z</time>
      </trkpt>
      <trkpt lat="42.90262" lon="0.2084">
        <ele>1772</ele>
        <time>2022-04-16T08:50:00Z</time>
      </trkpt>
      <trkpt lat="42.90261" lon="0.20841">
        <ele>1773</ele>
        <time>2022-04-16T08:50:02Z</time>
      </trkpt>
      <trkpt lat="42.90261" lon="0.20844">
        <ele>1773</ele>
        <time>2022-04-16T08:50:05Z</time>
      </trkpt>
      <trkpt lat="42.90258" lon="0.20848">
        <ele>1774</ele>
        <time>2022-04-16T08:50:27Z</time>
      </trkpt>
      <trkpt lat="42.90257" lon="0.2085">
        <ele>1774</ele>
        <time>2022-04-16T08:50:30Z</time>
      </trkpt>
      <trkpt lat="42.90256" lon="0.20852">
        <ele>1775</ele>
        <time>2022-04-16T08:50:32Z</time>
      </trkpt>
      <trkpt lat="42.90256" lon="0.20855">
        <ele>1775</ele>
        <time>2022-04-16T08:50:35Z</time>
      </trkpt>
      <trkpt lat="42.90256" lon="0.20858">
        <ele>1775</ele>
        <time>2022-04-16T08:50:36Z</time>
      </trkpt>
      <trkpt lat="42.90258" lon="0.20861">
        <ele>1775</ele>
        <time>2022-04-16T08:50:40Z</time>
      </trkpt>
      <trkpt lat="42.90256" lon="0.20863">
        <ele>1776</ele>
        <time>2022-04-16T08:50:50Z</time>
      </trkpt>
      <trkpt lat="42.90255" lon="0.20862">
        <ele>1780</ele>
        <time>2022-04-16T08:51:09Z</time>
      </trkpt>
      <trkpt lat="42.90253" lon="0.2086">
        <ele>1780</ele>
        <time>2022-04-16T08:51:13Z</time>
      </trkpt>
      <trkpt lat="42.90252" lon="0.20858">
        <ele>1780</ele>
        <time>2022-04-16T08:51:17Z</time>
      </trkpt>
      <trkpt lat="42.90252" lon="0.20855">
        <ele>1780</ele>
        <time>2022-04-16T08:51:21Z</time>
      </trkpt>
      <trkpt lat="42.9025" lon="0.20854">
        <ele>1780</ele>
        <time>2022-04-16T08:51:25Z</time>
      </trkpt>
      <trkpt lat="42.90248" lon="0.20853">
        <ele>1780</ele>
        <time>2022-04-16T08:51:29Z</time>
      </trkpt>
      <trkpt lat="42.9024" lon="0.20844">
        <ele>1786</ele>
        <time>2022-04-16T08:54:29Z</time>
      </trkpt>
      <trkpt lat="42.90233" lon="0.20836">
        <ele>1789</ele>
        <time>2022-04-16T08:54:47Z</time>
      </trkpt>
      <trkpt lat="42.90224" lon="0.2083">
        <ele>1793</ele>
        <time>2022-04-16T08:55:17Z</time>
      </trkpt>
      <trkpt lat="42.90215" lon="0.20829">
        <ele>1798</ele>
        <time>2022-04-16T08:55:48Z</time>
      </trkpt>
      <trkpt lat="42.90215" lon="0.20816">
        <ele>1804</ele>
        <time>2022-04-16T08:56:31Z</time>
      </trkpt>
      <trkpt lat="42.90213" lon="0.20803">
        <ele>1805</ele>
        <time>2022-04-16T08:56:47Z</time>
      </trkpt>
      <trkpt lat="42.90205" lon="0.20795">
        <ele>1807</ele>
        <time>2022-04-16T08:57:07Z</time>
      </trkpt>
      <trkpt lat="42.90196" lon="0.20793">
        <ele>1812</ele>
        <time>2022-04-16T08:57:21Z</time>
      </trkpt>
      <trkpt lat="42.90186" lon="0.20793">
        <ele>1816</ele>
        <time>2022-04-16T08:58:03Z</time>
      </trkpt>
      <trkpt lat="42.90177" lon="0.20787">
        <ele>1821</ele>
        <time>2022-04-16T08:58:36Z</time>
      </trkpt>
      <trkpt lat="42.90171" lon="0.20777">
        <ele>1823</ele>
        <time>2022-04-16T08:58:54Z</time>
      </trkpt>
      <trkpt lat="42.90168" lon="0.20765">
        <ele>1826</ele>
        <time>2022-04-16T08:59:20Z</time>
      </trkpt>
      <trkpt lat="42.90174" lon="0.20756">
        <ele>1831</ele>
        <time>2022-04-16T08:59:58Z</time>
      </trkpt>
      <trkpt lat="42.90181" lon="0.20749">
        <ele>1833</ele>
        <time>2022-04-16T09:00:15Z</time>
      </trkpt>
      <trkpt lat="42.90174" lon="0.20741">
        <ele>1838</ele>
        <time>2022-04-16T09:00:43Z</time>
      </trkpt>
      <trkpt lat="42.9017" lon="0.20727">
        <ele>1842</ele>
        <time>2022-04-16T09:01:02Z</time>
      </trkpt>
      <trkpt lat="42.90162" lon="0.20718">
        <ele>1845</ele>
        <time>2022-04-16T09:01:26Z</time>
      </trkpt>
      <trkpt lat="42.90159" lon="0.20705">
        <ele>1847</ele>
        <time>2022-04-16T09:01:41Z</time>
      </trkpt>
      <trkpt lat="42.90153" lon="0.20695">
        <ele>1850</ele>
        <time>2022-04-16T09:02:01Z</time>
      </trkpt>
      <trkpt lat="42.90149" lon="0.20684">
        <ele>1851</ele>
        <time>2022-04-16T09:02:14Z</time>
      </trkpt>
      <trkpt lat="42.90145" lon="0.20673">
        <ele>1853</ele>
        <time>2022-04-16T09:02:28Z</time>
      </trkpt>
      <trkpt lat="42.90138" lon="0.20663">
        <ele>1855</ele>
        <time>2022-04-16T09:02:38Z</time>
      </trkpt>
      <trkpt lat="42.90129" lon="0.20663">
        <ele>1857</ele>
        <time>2022-04-16T09:03:08Z</time>
      </trkpt>
      <trkpt lat="42.90133" lon="0.20652">
        <ele>1865</ele>
        <time>2022-04-16T09:10:29Z</time>
      </trkpt>
      <trkpt lat="42.90132" lon="0.20639">
        <ele>1867</ele>
        <time>2022-04-16T09:10:44Z</time>
      </trkpt>
      <trkpt lat="42.90131" lon="0.20626">
        <ele>1869</ele>
        <time>2022-04-16T09:11:00Z</time>
      </trkpt>
      <trkpt lat="42.90124" lon="0.20618">
        <ele>1871</ele>
        <time>2022-04-16T09:11:12Z</time>
      </trkpt>
      <trkpt lat="42.9012" lon="0.20605">
        <ele>1875</ele>
        <time>2022-04-16T09:11:32Z</time>
      </trkpt>
      <trkpt lat="42.90115" lon="0.20592">
        <ele>1878</ele>
        <time>2022-04-16T09:11:53Z</time>
      </trkpt>
      <trkpt lat="42.90109" lon="0.2058">
        <ele>1881</ele>
        <time>2022-04-16T09:12:22Z</time>
      </trkpt>
      <trkpt lat="42.90104" lon="0.20569">
        <ele>1883</ele>
        <time>2022-04-16T09:12:41Z</time>
      </trkpt>
      <trkpt lat="42.901" lon="0.20558">
        <ele>1885</ele>
        <time>2022-04-16T09:13:00Z</time>
      </trkpt>
      <trkpt lat="42.90094" lon="0.20548">
        <ele>1888</ele>
        <time>2022-04-16T09:13:18Z</time>
      </trkpt>
      <trkpt lat="42.90086" lon="0.20541">
        <ele>1890</ele>
        <time>2022-04-16T09:13:34Z</time>
      </trkpt>
      <trkpt lat="42.90088" lon="0.20529">
        <ele>1892</ele>
        <time>2022-04-16T09:13:48Z</time>
      </trkpt>
      <trkpt lat="42.90081" lon="0.2052">
        <ele>1895</ele>
        <time>2022-04-16T09:14:30Z</time>
      </trkpt>
      <trkpt lat="42.90077" lon="0.20509">
        <ele>1897</ele>
        <time>2022-04-16T09:14:48Z</time>
      </trkpt>
      <trkpt lat="42.9007" lon="0.205">
        <ele>1901</ele>
        <time>2022-04-16T09:15:04Z</time>
      </trkpt>
      <trkpt lat="42.90064" lon="0.20489">
        <ele>1904</ele>
        <time>2022-04-16T09:15:25Z</time>
      </trkpt>
      <trkpt lat="42.90059" lon="0.20478">
        <ele>1908</ele>
        <time>2022-04-16T09:15:52Z</time>
      </trkpt>
      <trkpt lat="42.90054" lon="0.20468">
        <ele>1909</ele>
        <time>2022-04-16T09:16:04Z</time>
      </trkpt>
      <trkpt lat="42.90046" lon="0.2046">
        <ele>1912</ele>
        <time>2022-04-16T09:16:21Z</time>
      </trkpt>
      <trkpt lat="42.90046" lon="0.20446">
        <ele>1915</ele>
        <time>2022-04-16T09:16:45Z</time>
      </trkpt>
      <trkpt lat="42.9005" lon="0.20435">
        <ele>1922</ele>
        <time>2022-04-16T09:17:34Z</time>
      </trkpt>
      <trkpt lat="42.9005" lon="0.20422">
        <ele>1925</ele>
        <time>2022-04-16T09:17:51Z</time>
      </trkpt>
      <trkpt lat="42.90054" lon="0.2041">
        <ele>1929</ele>
        <time>2022-04-16T09:18:27Z</time>
      </trkpt>
      <trkpt lat="42.90049" lon="0.20399">
        <ele>1930</ele>
        <time>2022-04-16T09:18:43Z</time>
      </trkpt>
      <trkpt lat="42.90041" lon="0.20395">
        <ele>1932</ele>
        <time>2022-04-16T09:18:53Z</time>
      </trkpt>
      <trkpt lat="42.90032" lon="0.20392">
        <ele>1931</ele>
        <time>2022-04-16T09:19:08Z</time>
      </trkpt>
      <trkpt lat="42.90022" lon="0.2039">
        <ele>1933</ele>
        <time>2022-04-16T09:19:28Z</time>
      </trkpt>
      <trkpt lat="42.90013" lon="0.20385">
        <ele>1934</ele>
        <time>2022-04-16T09:19:45Z</time>
      </trkpt>
      <trkpt lat="42.90004" lon="0.20383">
        <ele>1936</ele>
        <time>2022-04-16T09:19:58Z</time>
      </trkpt>
      <trkpt lat="42.89998" lon="0.20372">
        <ele>1939</ele>
        <time>2022-04-16T09:20:32Z</time>
      </trkpt>
      <trkpt lat="42.89994" lon="0.20361">
        <ele>1942</ele>
        <time>2022-04-16T09:20:53Z</time>
      </trkpt>
      <trkpt lat="42.89992" lon="0.20349">
        <ele>1942</ele>
        <time>2022-04-16T09:21:07Z</time>
      </trkpt>
      <trkpt lat="42.8999" lon="0.20336">
        <ele>1945</ele>
        <time>2022-04-16T09:21:29Z</time>
      </trkpt>
      <trkpt lat="42.89984" lon="0.20321">
        <ele>1947</ele>
        <time>2022-04-16T09:22:08Z</time>
      </trkpt>
      <trkpt lat="42.89982" lon="0.20318">
        <ele>1947</ele>
        <time>2022-04-16T09:22:11Z</time>
      </trkpt>
      <trkpt lat="42.89981" lon="0.20316">
        <ele>1947</ele>
        <time>2022-04-16T09:22:13Z</time>
      </trkpt>
      <trkpt lat="42.89979" lon="0.20314">
        <ele>1947</ele>
        <time>2022-04-16T09:22:16Z</time>
      </trkpt>
      <trkpt lat="42.89978" lon="0.20312">
        <ele>1947</ele>
        <time>2022-04-16T09:22:19Z</time>
      </trkpt>
      <trkpt lat="42.89978" lon="0.20309">
        <ele>1948</ele>
        <time>2022-04-16T09:22:23Z</time>
      </trkpt>
      <trkpt lat="42.89978" lon="0.20307">
        <ele>1948</ele>
        <time>2022-04-16T09:22:27Z</time>
      </trkpt>
      <trkpt lat="42.89977" lon="0.20304">
        <ele>1948</ele>
        <time>2022-04-16T09:22:30Z</time>
      </trkpt>
      <trkpt lat="42.89977" lon="0.20301">
        <ele>1949</ele>
        <time>2022-04-16T09:22:33Z</time>
      </trkpt>
      <trkpt lat="42.89976" lon="0.20298">
        <ele>1949</ele>
        <time>2022-04-16T09:22:36Z</time>
      </trkpt>
      <trkpt lat="42.89974" lon="0.20296">
        <ele>1949</ele>
        <time>2022-04-16T09:22:37Z</time>
      </trkpt>
      <trkpt lat="42.89972" lon="0.20294">
        <ele>1949</ele>
        <time>2022-04-16T09:22:41Z</time>
      </trkpt>
      <trkpt lat="42.89971" lon="0.20292">
        <ele>1951</ele>
        <time>2022-04-16T09:22:44Z</time>
      </trkpt>
      <trkpt lat="42.8997" lon="0.20289">
        <ele>1951</ele>
        <time>2022-04-16T09:22:47Z</time>
      </trkpt>
      <trkpt lat="42.89968" lon="0.20287">
        <ele>1951</ele>
        <time>2022-04-16T09:22:50Z</time>
      </trkpt>
      <trkpt lat="42.89967" lon="0.20284">
        <ele>1952</ele>
        <time>2022-04-16T09:22:53Z</time>
      </trkpt>
      <trkpt lat="42.89967" lon="0.20282">
        <ele>1952</ele>
        <time>2022-04-16T09:22:56Z</time>
      </trkpt>
      <trkpt lat="42.89965" lon="0.20279">
        <ele>1952</ele>
        <time>2022-04-16T09:23:00Z</time>
      </trkpt>
      <trkpt lat="42.89966" lon="0.20276">
        <ele>1953</ele>
        <time>2022-04-16T09:23:02Z</time>
      </trkpt>
      <trkpt lat="42.89966" lon="0.20273">
        <ele>1953</ele>
        <time>2022-04-16T09:23:06Z</time>
      </trkpt>
      <trkpt lat="42.89967" lon="0.20271">
        <ele>1953</ele>
        <time>2022-04-16T09:23:10Z</time>
      </trkpt>
      <trkpt lat="42.89968" lon="0.20269">
        <ele>1954</ele>
        <time>2022-04-16T09:23:12Z</time>
      </trkpt>
      <trkpt lat="42.89968" lon="0.20266">
        <ele>1954</ele>
        <time>2022-04-16T09:23:16Z</time>
      </trkpt>
      <trkpt lat="42.89968" lon="0.20262">
        <ele>1954</ele>
        <time>2022-04-16T09:23:19Z</time>
      </trkpt>
      <trkpt lat="42.89969" lon="0.20259">
        <ele>1957</ele>
        <time>2022-04-16T09:23:24Z</time>
      </trkpt>
      <trkpt lat="42.89967" lon="0.20256">
        <ele>1957</ele>
        <time>2022-04-16T09:23:27Z</time>
      </trkpt>
      <trkpt lat="42.89966" lon="0.20254">
        <ele>1957</ele>
        <time>2022-04-16T09:23:29Z</time>
      </trkpt>
      <trkpt lat="42.89964" lon="0.2025">
        <ele>1958</ele>
        <time>2022-04-16T09:23:33Z</time>
      </trkpt>
      <trkpt lat="42.89964" lon="0.20248">
        <ele>1958</ele>
        <time>2022-04-16T09:23:36Z</time>
      </trkpt>
      <trkpt lat="42.89963" lon="0.20245">
        <ele>1958</ele>
        <time>2022-04-16T09:23:41Z</time>
      </trkpt>
      <trkpt lat="42.89963" lon="0.20243">
        <ele>1959</ele>
        <time>2022-04-16T09:23:44Z</time>
      </trkpt>
      <trkpt lat="42.89962" lon="0.2024">
        <ele>1959</ele>
        <time>2022-04-16T09:23:46Z</time>
      </trkpt>
      <trkpt lat="42.89961" lon="0.20238">
        <ele>1959</ele>
        <time>2022-04-16T09:23:50Z</time>
      </trkpt>
      <trkpt lat="42.8996" lon="0.20235">
        <ele>1960</ele>
        <time>2022-04-16T09:23:53Z</time>
      </trkpt>
      <trkpt lat="42.8996" lon="0.20232">
        <ele>1960</ele>
        <time>2022-04-16T09:23:55Z</time>
      </trkpt>
      <trkpt lat="42.89959" lon="0.2023">
        <ele>1960</ele>
        <time>2022-04-16T09:23:59Z</time>
      </trkpt>
      <trkpt lat="42.89957" lon="0.20227">
        <ele>1962</ele>
        <time>2022-04-16T09:24:03Z</time>
      </trkpt>
      <trkpt lat="42.89956" lon="0.20225">
        <ele>1962</ele>
        <time>2022-04-16T09:24:05Z</time>
      </trkpt>
      <trkpt lat="42.89956" lon="0.20223">
        <ele>1962</ele>
        <time>2022-04-16T09:24:07Z</time>
      </trkpt>
      <trkpt lat="42.89954" lon="0.20219">
        <ele>1962</ele>
        <time>2022-04-16T09:24:11Z</time>
      </trkpt>
      <trkpt lat="42.89953" lon="0.20216">
        <ele>1962</ele>
        <time>2022-04-16T09:24:14Z</time>
      </trkpt>
      <trkpt lat="42.89953" lon="0.20213">
        <ele>1962</ele>
        <time>2022-04-16T09:24:18Z</time>
      </trkpt>
      <trkpt lat="42.89953" lon="0.20211">
        <ele>1962</ele>
        <time>2022-04-16T09:24:20Z</time>
      </trkpt>
      <trkpt lat="42.89952" lon="0.20208">
        <ele>1963</ele>
        <time>2022-04-16T09:24:24Z</time>
      </trkpt>
      <trkpt lat="42.8995" lon="0.20206">
        <ele>1963</ele>
        <time>2022-04-16T09:24:27Z</time>
      </trkpt>
      <trkpt lat="42.89949" lon="0.20203">
        <ele>1963</ele>
        <time>2022-04-16T09:24:30Z</time>
      </trkpt>
      <trkpt lat="42.89948" lon="0.20199">
        <ele>1963</ele>
        <time>2022-04-16T09:24:32Z</time>
      </trkpt>
      <trkpt lat="42.89947" lon="0.20197">
        <ele>1963</ele>
        <time>2022-04-16T09:24:35Z</time>
      </trkpt>
      <trkpt lat="42.89946" lon="0.20194">
        <ele>1963</ele>
        <time>2022-04-16T09:24:38Z</time>
      </trkpt>
      <trkpt lat="42.89945" lon="0.2019">
        <ele>1964</ele>
        <time>2022-04-16T09:24:41Z</time>
      </trkpt>
      <trkpt lat="42.89944" lon="0.20187">
        <ele>1964</ele>
        <time>2022-04-16T09:24:45Z</time>
      </trkpt>
      <trkpt lat="42.89944" lon="0.20185">
        <ele>1964</ele>
        <time>2022-04-16T09:24:47Z</time>
      </trkpt>
      <trkpt lat="42.89944" lon="0.20182">
        <ele>1964</ele>
        <time>2022-04-16T09:24:50Z</time>
      </trkpt>
      <trkpt lat="42.89943" lon="0.2018">
        <ele>1965</ele>
        <time>2022-04-16T09:24:54Z</time>
      </trkpt>
      <trkpt lat="42.89943" lon="0.20177">
        <ele>1965</ele>
        <time>2022-04-16T09:24:56Z</time>
      </trkpt>
      <trkpt lat="42.89943" lon="0.20174">
        <ele>1965</ele>
        <time>2022-04-16T09:25:00Z</time>
      </trkpt>
      <trkpt lat="42.89943" lon="0.20171">
        <ele>1966</ele>
        <time>2022-04-16T09:25:04Z</time>
      </trkpt>
      <trkpt lat="42.89943" lon="0.20168">
        <ele>1966</ele>
        <time>2022-04-16T09:25:06Z</time>
      </trkpt>
      <trkpt lat="42.89942" lon="0.20164">
        <ele>1966</ele>
        <time>2022-04-16T09:25:09Z</time>
      </trkpt>
      <trkpt lat="42.89942" lon="0.20161">
        <ele>1967</ele>
        <time>2022-04-16T09:25:13Z</time>
      </trkpt>
      <trkpt lat="42.89942" lon="0.20158">
        <ele>1967</ele>
        <time>2022-04-16T09:25:15Z</time>
      </trkpt>
      <trkpt lat="42.89941" lon="0.20155">
        <ele>1967</ele>
        <time>2022-04-16T09:25:19Z</time>
      </trkpt>
      <trkpt lat="42.89942" lon="0.20152">
        <ele>1967</ele>
        <time>2022-04-16T09:25:24Z</time>
      </trkpt>
      <trkpt lat="42.89941" lon="0.20149">
        <ele>1967</ele>
        <time>2022-04-16T09:25:28Z</time>
      </trkpt>
      <trkpt lat="42.8994" lon="0.20147">
        <ele>1968</ele>
        <time>2022-04-16T09:25:32Z</time>
      </trkpt>
      <trkpt lat="42.89939" lon="0.20144">
        <ele>1968</ele>
        <time>2022-04-16T09:25:36Z</time>
      </trkpt>
      <trkpt lat="42.89938" lon="0.20142">
        <ele>1968</ele>
        <time>2022-04-16T09:25:40Z</time>
      </trkpt>
      <trkpt lat="42.89937" lon="0.2014">
        <ele>1970</ele>
        <time>2022-04-16T09:25:43Z</time>
      </trkpt>
      <trkpt lat="42.89936" lon="0.20137">
        <ele>1970</ele>
        <time>2022-04-16T09:25:47Z</time>
      </trkpt>
      <trkpt lat="42.89935" lon="0.20135">
        <ele>1970</ele>
        <time>2022-04-16T09:25:51Z</time>
      </trkpt>
      <trkpt lat="42.89933" lon="0.20133">
        <ele>1972</ele>
        <time>2022-04-16T09:25:53Z</time>
      </trkpt>
      <trkpt lat="42.89932" lon="0.2013">
        <ele>1972</ele>
        <time>2022-04-16T09:25:57Z</time>
      </trkpt>
      <trkpt lat="42.89931" lon="0.20128">
        <ele>1972</ele>
        <time>2022-04-16T09:26:00Z</time>
      </trkpt>
      <trkpt lat="42.89929" lon="0.20127">
        <ele>1972</ele>
        <time>2022-04-16T09:26:02Z</time>
      </trkpt>
      <trkpt lat="42.89928" lon="0.20125">
        <ele>1972</ele>
        <time>2022-04-16T09:26:05Z</time>
      </trkpt>
      <trkpt lat="42.89926" lon="0.20123">
        <ele>1972</ele>
        <time>2022-04-16T09:26:08Z</time>
      </trkpt>
      <trkpt lat="42.89925" lon="0.2012">
        <ele>1972</ele>
        <time>2022-04-16T09:26:13Z</time>
      </trkpt>
      <trkpt lat="42.89923" lon="0.20118">
        <ele>1972</ele>
        <time>2022-04-16T09:26:15Z</time>
      </trkpt>
      <trkpt lat="42.89922" lon="0.20115">
        <ele>1972</ele>
        <time>2022-04-16T09:26:19Z</time>
      </trkpt>
      <trkpt lat="42.89921" lon="0.20113">
        <ele>1973</ele>
        <time>2022-04-16T09:26:21Z</time>
      </trkpt>
      <trkpt lat="42.89919" lon="0.20111">
        <ele>1973</ele>
        <time>2022-04-16T09:26:24Z</time>
      </trkpt>
      <trkpt lat="42.89918" lon="0.20108">
        <ele>1973</ele>
        <time>2022-04-16T09:26:28Z</time>
      </trkpt>
      <trkpt lat="42.89916" lon="0.20106">
        <ele>1974</ele>
        <time>2022-04-16T09:26:32Z</time>
      </trkpt>
      <trkpt lat="42.89915" lon="0.20103">
        <ele>1974</ele>
        <time>2022-04-16T09:26:34Z</time>
      </trkpt>
      <trkpt lat="42.89914" lon="0.20101">
        <ele>1974</ele>
        <time>2022-04-16T09:26:40Z</time>
      </trkpt>
      <trkpt lat="42.89913" lon="0.20099">
        <ele>1974</ele>
        <time>2022-04-16T09:26:42Z</time>
      </trkpt>
      <trkpt lat="42.89912" lon="0.20097">
        <ele>1974</ele>
        <time>2022-04-16T09:26:47Z</time>
      </trkpt>
      <trkpt lat="42.89911" lon="0.20094">
        <ele>1974</ele>
        <time>2022-04-16T09:26:50Z</time>
      </trkpt>
      <trkpt lat="42.89909" lon="0.20092">
        <ele>1978</ele>
        <time>2022-04-16T09:26:55Z</time>
      </trkpt>
      <trkpt lat="42.89907" lon="0.2009">
        <ele>1978</ele>
        <time>2022-04-16T09:26:57Z</time>
      </trkpt>
      <trkpt lat="42.89905" lon="0.20088">
        <ele>1978</ele>
        <time>2022-04-16T09:27:00Z</time>
      </trkpt>
      <trkpt lat="42.89904" lon="0.20086">
        <ele>1979</ele>
        <time>2022-04-16T09:27:02Z</time>
      </trkpt>
      <trkpt lat="42.89902" lon="0.20084">
        <ele>1979</ele>
        <time>2022-04-16T09:27:05Z</time>
      </trkpt>
      <trkpt lat="42.899" lon="0.20082">
        <ele>1979</ele>
        <time>2022-04-16T09:27:10Z</time>
      </trkpt>
      <trkpt lat="42.89898" lon="0.20083">
        <ele>1981</ele>
        <time>2022-04-16T09:28:01Z</time>
      </trkpt>
      <trkpt lat="42.89897" lon="0.20081">
        <ele>1981</ele>
        <time>2022-04-16T09:28:04Z</time>
      </trkpt>
      <trkpt lat="42.89895" lon="0.20079">
        <ele>1981</ele>
        <time>2022-04-16T09:28:06Z</time>
      </trkpt>
      <trkpt lat="42.89894" lon="0.20077">
        <ele>1981</ele>
        <time>2022-04-16T09:28:09Z</time>
      </trkpt>
      <trkpt lat="42.89892" lon="0.20074">
        <ele>1981</ele>
        <time>2022-04-16T09:28:13Z</time>
      </trkpt>
      <trkpt lat="42.89891" lon="0.20072">
        <ele>1981</ele>
        <time>2022-04-16T09:28:16Z</time>
      </trkpt>
      <trkpt lat="42.89891" lon="0.20067">
        <ele>1981</ele>
        <time>2022-04-16T09:28:18Z</time>
      </trkpt>
      <trkpt lat="42.89889" lon="0.20067">
        <ele>1981</ele>
        <time>2022-04-16T09:28:24Z</time>
      </trkpt>
      <trkpt lat="42.89887" lon="0.20066">
        <ele>1981</ele>
        <time>2022-04-16T09:28:28Z</time>
      </trkpt>
      <trkpt lat="42.89885" lon="0.20064">
        <ele>1981</ele>
        <time>2022-04-16T09:28:30Z</time>
      </trkpt>
      <trkpt lat="42.89883" lon="0.20062">
        <ele>1984</ele>
        <time>2022-04-16T09:28:35Z</time>
      </trkpt>
      <trkpt lat="42.89881" lon="0.20062">
        <ele>1984</ele>
        <time>2022-04-16T09:28:39Z</time>
      </trkpt>
      <trkpt lat="42.89879" lon="0.20061">
        <ele>1985</ele>
        <time>2022-04-16T09:28:45Z</time>
      </trkpt>
      <trkpt lat="42.89877" lon="0.2006">
        <ele>1985</ele>
        <time>2022-04-16T09:28:50Z</time>
      </trkpt>
      <trkpt lat="42.89875" lon="0.20058">
        <ele>1986</ele>
        <time>2022-04-16T09:28:53Z</time>
      </trkpt>
      <trkpt lat="42.89873" lon="0.20058">
        <ele>1986</ele>
        <time>2022-04-16T09:29:00Z</time>
      </trkpt>
      <trkpt lat="42.89872" lon="0.20056">
        <ele>1987</ele>
        <time>2022-04-16T09:29:07Z</time>
      </trkpt>
      <trkpt lat="42.89869" lon="0.20056">
        <ele>1987</ele>
        <time>2022-04-16T09:29:13Z</time>
      </trkpt>
      <trkpt lat="42.89867" lon="0.20056">
        <ele>1987</ele>
        <time>2022-04-16T09:29:18Z</time>
      </trkpt>
      <trkpt lat="42.89866" lon="0.20057">
        <ele>1991</ele>
        <time>2022-04-16T09:29:22Z</time>
      </trkpt>
      <trkpt lat="42.89864" lon="0.20058">
        <ele>1991</ele>
        <time>2022-04-16T09:29:26Z</time>
      </trkpt>
      <trkpt lat="42.89862" lon="0.20059">
        <ele>1991</ele>
        <time>2022-04-16T09:29:29Z</time>
      </trkpt>
      <trkpt lat="42.8986" lon="0.2006">
        <ele>1991</ele>
        <time>2022-04-16T09:29:32Z</time>
      </trkpt>
      <trkpt lat="42.89858" lon="0.2006">
        <ele>1991</ele>
        <time>2022-04-16T09:29:33Z</time>
      </trkpt>
      <trkpt lat="42.89855" lon="0.2006">
        <ele>1991</ele>
        <time>2022-04-16T09:29:36Z</time>
      </trkpt>
      <trkpt lat="42.89853" lon="0.20059">
        <ele>1991</ele>
        <time>2022-04-16T09:29:39Z</time>
      </trkpt>
      <trkpt lat="42.89843" lon="0.20057">
        <ele>1993</ele>
        <time>2022-04-16T09:29:54Z</time>
      </trkpt>
      <trkpt lat="42.89835" lon="0.20052">
        <ele>1994</ele>
        <time>2022-04-16T09:30:06Z</time>
      </trkpt>
      <trkpt lat="42.89828" lon="0.20043">
        <ele>1998</ele>
        <time>2022-04-16T09:30:23Z</time>
      </trkpt>
      <trkpt lat="42.89818" lon="0.2004">
        <ele>1998</ele>
        <time>2022-04-16T09:30:39Z</time>
      </trkpt>
      <trkpt lat="42.89809" lon="0.20041">
        <ele>2001</ele>
        <time>2022-04-16T09:30:55Z</time>
      </trkpt>
      <trkpt lat="42.898" lon="0.2004">
        <ele>2004</ele>
        <time>2022-04-16T09:31:14Z</time>
      </trkpt>
      <trkpt lat="42.8979" lon="0.20039">
        <ele>2005</ele>
        <time>2022-04-16T09:31:26Z</time>
      </trkpt>
      <trkpt lat="42.89782" lon="0.20031">
        <ele>2007</ele>
        <time>2022-04-16T09:31:39Z</time>
      </trkpt>
      <trkpt lat="42.89773" lon="0.20028">
        <ele>2009</ele>
        <time>2022-04-16T09:31:59Z</time>
      </trkpt>
      <trkpt lat="42.89765" lon="0.20023">
        <ele>2012</ele>
        <time>2022-04-16T09:32:12Z</time>
      </trkpt>
      <trkpt lat="42.89757" lon="0.20017">
        <ele>2017</ele>
        <time>2022-04-16T09:32:49Z</time>
      </trkpt>
      <trkpt lat="42.8975" lon="0.20009">
        <ele>2023</ele>
        <time>2022-04-16T09:33:22Z</time>
      </trkpt>
      <trkpt lat="42.8974" lon="0.20006">
        <ele>2024</ele>
        <time>2022-04-16T09:33:36Z</time>
      </trkpt>
      <trkpt lat="42.89731" lon="0.20009">
        <ele>2024</ele>
        <time>2022-04-16T09:33:59Z</time>
      </trkpt>
      <trkpt lat="42.89712" lon="0.20011">
        <ele>2027</ele>
        <time>2022-04-16T09:34:24Z</time>
      </trkpt>
      <trkpt lat="42.8971" lon="0.20011">
        <ele>2027</ele>
        <time>2022-04-16T09:34:26Z</time>
      </trkpt>
      <trkpt lat="42.89708" lon="0.20012">
        <ele>2027</ele>
        <time>2022-04-16T09:34:29Z</time>
      </trkpt>
      <trkpt lat="42.89706" lon="0.20014">
        <ele>2027</ele>
        <time>2022-04-16T09:34:33Z</time>
      </trkpt>
      <trkpt lat="42.89704" lon="0.20016">
        <ele>2027</ele>
        <time>2022-04-16T09:34:35Z</time>
      </trkpt>
      <trkpt lat="42.89703" lon="0.20017">
        <ele>2027</ele>
        <time>2022-04-16T09:34:39Z</time>
      </trkpt>
      <trkpt lat="42.89701" lon="0.20019">
        <ele>2027</ele>
        <time>2022-04-16T09:34:41Z</time>
      </trkpt>
      <trkpt lat="42.89699" lon="0.20021">
        <ele>2027</ele>
        <time>2022-04-16T09:34:44Z</time>
      </trkpt>
      <trkpt lat="42.89697" lon="0.20023">
        <ele>2027</ele>
        <time>2022-04-16T09:34:48Z</time>
      </trkpt>
      <trkpt lat="42.89695" lon="0.20023">
        <ele>2027</ele>
        <time>2022-04-16T09:34:50Z</time>
      </trkpt>
      <trkpt lat="42.89693" lon="0.20024">
        <ele>2027</ele>
        <time>2022-04-16T09:34:53Z</time>
      </trkpt>
      <trkpt lat="42.89691" lon="0.20026">
        <ele>2027</ele>
        <time>2022-04-16T09:34:56Z</time>
      </trkpt>
      <trkpt lat="42.89689" lon="0.20027">
        <ele>2027</ele>
        <time>2022-04-16T09:34:58Z</time>
      </trkpt>
      <trkpt lat="42.89687" lon="0.20028">
        <ele>2027</ele>
        <time>2022-04-16T09:35:00Z</time>
      </trkpt>
      <trkpt lat="42.89685" lon="0.2003">
        <ele>2028</ele>
        <time>2022-04-16T09:35:02Z</time>
      </trkpt>
      <trkpt lat="42.89683" lon="0.20031">
        <ele>2028</ele>
        <time>2022-04-16T09:35:05Z</time>
      </trkpt>
      <trkpt lat="42.89681" lon="0.20032">
        <ele>2028</ele>
        <time>2022-04-16T09:35:09Z</time>
      </trkpt>
      <trkpt lat="42.8968" lon="0.2003">
        <ele>2027</ele>
        <time>2022-04-16T09:35:13Z</time>
      </trkpt>
      <trkpt lat="42.89677" lon="0.2003">
        <ele>2027</ele>
        <time>2022-04-16T09:35:17Z</time>
      </trkpt>
      <trkpt lat="42.89676" lon="0.2003">
        <ele>2030</ele>
        <time>2022-04-16T09:35:21Z</time>
      </trkpt>
      <trkpt lat="42.89673" lon="0.20029">
        <ele>2030</ele>
        <time>2022-04-16T09:35:25Z</time>
      </trkpt>
      <trkpt lat="42.89671" lon="0.20029">
        <ele>2030</ele>
        <time>2022-04-16T09:35:29Z</time>
      </trkpt>
      <trkpt lat="42.89669" lon="0.20028">
        <ele>2030</ele>
        <time>2022-04-16T09:35:34Z</time>
      </trkpt>
      <trkpt lat="42.89667" lon="0.20027">
        <ele>2030</ele>
        <time>2022-04-16T09:35:38Z</time>
      </trkpt>
      <trkpt lat="42.89665" lon="0.20026">
        <ele>2032</ele>
        <time>2022-04-16T09:35:44Z</time>
      </trkpt>
      <trkpt lat="42.89666" lon="0.20023">
        <ele>2032</ele>
        <time>2022-04-16T09:35:49Z</time>
      </trkpt>
      <trkpt lat="42.89667" lon="0.2002">
        <ele>2033</ele>
        <time>2022-04-16T09:35:53Z</time>
      </trkpt>
      <trkpt lat="42.89667" lon="0.20017">
        <ele>2033</ele>
        <time>2022-04-16T09:35:56Z</time>
      </trkpt>
      <trkpt lat="42.89668" lon="0.20015">
        <ele>2033</ele>
        <time>2022-04-16T09:36:00Z</time>
      </trkpt>
      <trkpt lat="42.89669" lon="0.20012">
        <ele>2035</ele>
        <time>2022-04-16T09:36:04Z</time>
      </trkpt>
      <trkpt lat="42.8967" lon="0.2001">
        <ele>2035</ele>
        <time>2022-04-16T09:36:10Z</time>
      </trkpt>
      <trkpt lat="42.8967" lon="0.20007">
        <ele>2038</ele>
        <time>2022-04-16T09:36:17Z</time>
      </trkpt>
      <trkpt lat="42.89671" lon="0.20005">
        <ele>2038</ele>
        <time>2022-04-16T09:36:20Z</time>
      </trkpt>
      <trkpt lat="42.89671" lon="0.20002">
        <ele>2039</ele>
        <time>2022-04-16T09:36:23Z</time>
      </trkpt>
      <trkpt lat="42.8967" lon="0.2">
        <ele>2039</ele>
        <time>2022-04-16T09:36:27Z</time>
      </trkpt>
      <trkpt lat="42.89669" lon="0.19997">
        <ele>2039</ele>
        <time>2022-04-16T09:36:31Z</time>
      </trkpt>
      <trkpt lat="42.89667" lon="0.19996">
        <ele>2039</ele>
        <time>2022-04-16T09:36:35Z</time>
      </trkpt>
      <trkpt lat="42.89665" lon="0.19995">
        <ele>2039</ele>
        <time>2022-04-16T09:36:38Z</time>
      </trkpt>
      <trkpt lat="42.89664" lon="0.19993">
        <ele>2039</ele>
        <time>2022-04-16T09:36:40Z</time>
      </trkpt>
      <trkpt lat="42.89662" lon="0.19991">
        <ele>2042</ele>
        <time>2022-04-16T09:36:42Z</time>
      </trkpt>
      <trkpt lat="42.8966" lon="0.19989">
        <ele>2042</ele>
        <time>2022-04-16T09:36:46Z</time>
      </trkpt>
      <trkpt lat="42.89659" lon="0.19987">
        <ele>2042</ele>
        <time>2022-04-16T09:36:49Z</time>
      </trkpt>
      <trkpt lat="42.89658" lon="0.19984">
        <ele>2042</ele>
        <time>2022-04-16T09:36:52Z</time>
      </trkpt>
      <trkpt lat="42.89656" lon="0.19984">
        <ele>2042</ele>
        <time>2022-04-16T09:36:53Z</time>
      </trkpt>
      <trkpt lat="42.89654" lon="0.19982">
        <ele>2042</ele>
        <time>2022-04-16T09:36:56Z</time>
      </trkpt>
      <trkpt lat="42.89652" lon="0.19981">
        <ele>2042</ele>
        <time>2022-04-16T09:36:59Z</time>
      </trkpt>
      <trkpt lat="42.8965" lon="0.19979">
        <ele>2043</ele>
        <time>2022-04-16T09:37:01Z</time>
      </trkpt>
      <trkpt lat="42.89649" lon="0.19976">
        <ele>2043</ele>
        <time>2022-04-16T09:37:03Z</time>
      </trkpt>
      <trkpt lat="42.89648" lon="0.19974">
        <ele>2043</ele>
        <time>2022-04-16T09:37:06Z</time>
      </trkpt>
      <trkpt lat="42.89647" lon="0.19971">
        <ele>2043</ele>
        <time>2022-04-16T09:37:09Z</time>
      </trkpt>
      <trkpt lat="42.89645" lon="0.19969">
        <ele>2043</ele>
        <time>2022-04-16T09:37:11Z</time>
      </trkpt>
      <trkpt lat="42.89643" lon="0.19967">
        <ele>2043</ele>
        <time>2022-04-16T09:37:15Z</time>
      </trkpt>
      <trkpt lat="42.89644" lon="0.19964">
        <ele>2043</ele>
        <time>2022-04-16T09:37:17Z</time>
      </trkpt>
      <trkpt lat="42.89644" lon="0.1996">
        <ele>2043</ele>
        <time>2022-04-16T09:37:20Z</time>
      </trkpt>
      <trkpt lat="42.89644" lon="0.19957">
        <ele>2042</ele>
        <time>2022-04-16T09:37:22Z</time>
      </trkpt>
      <trkpt lat="42.89644" lon="0.19954">
        <ele>2042</ele>
        <time>2022-04-16T09:37:24Z</time>
      </trkpt>
      <trkpt lat="42.89644" lon="0.19952">
        <ele>2042</ele>
        <time>2022-04-16T09:37:26Z</time>
      </trkpt>
      <trkpt lat="42.89644" lon="0.19948">
        <ele>2042</ele>
        <time>2022-04-16T09:37:29Z</time>
      </trkpt>
      <trkpt lat="42.89642" lon="0.19943">
        <ele>2042</ele>
        <time>2022-04-16T09:37:31Z</time>
      </trkpt>
      <trkpt lat="42.89642" lon="0.1994">
        <ele>2042</ele>
        <time>2022-04-16T09:37:35Z</time>
      </trkpt>
      <trkpt lat="42.8964" lon="0.19938">
        <ele>2042</ele>
        <time>2022-04-16T09:37:40Z</time>
      </trkpt>
      <trkpt lat="42.89639" lon="0.19936">
        <ele>2043</ele>
        <time>2022-04-16T09:37:43Z</time>
      </trkpt>
      <trkpt lat="42.89638" lon="0.19934">
        <ele>2043</ele>
        <time>2022-04-16T09:37:47Z</time>
      </trkpt>
      <trkpt lat="42.89636" lon="0.19932">
        <ele>2043</ele>
        <time>2022-04-16T09:37:49Z</time>
      </trkpt>
      <trkpt lat="42.89635" lon="0.1993">
        <ele>2043</ele>
        <time>2022-04-16T09:37:53Z</time>
      </trkpt>
      <trkpt lat="42.89633" lon="0.19929">
        <ele>2043</ele>
        <time>2022-04-16T09:38:05Z</time>
      </trkpt>
      <trkpt lat="42.89632" lon="0.19926">
        <ele>2043</ele>
        <time>2022-04-16T09:38:09Z</time>
      </trkpt>
      <trkpt lat="42.8963" lon="0.19924">
        <ele>2042</ele>
        <time>2022-04-16T09:38:12Z</time>
      </trkpt>
      <trkpt lat="42.89629" lon="0.19921">
        <ele>2042</ele>
        <time>2022-04-16T09:38:14Z</time>
      </trkpt>
      <trkpt lat="42.89628" lon="0.19919">
        <ele>2042</ele>
        <time>2022-04-16T09:38:17Z</time>
      </trkpt>
      <trkpt lat="42.89627" lon="0.19916">
        <ele>2042</ele>
        <time>2022-04-16T09:38:20Z</time>
      </trkpt>
      <trkpt lat="42.89626" lon="0.19915">
        <ele>2042</ele>
        <time>2022-04-16T09:38:24Z</time>
      </trkpt>
      <trkpt lat="42.89625" lon="0.19912">
        <ele>2042</ele>
        <time>2022-04-16T09:38:29Z</time>
      </trkpt>
      <trkpt lat="42.89627" lon="0.1991">
        <ele>2041</ele>
        <time>2022-04-16T09:38:32Z</time>
      </trkpt>
      <trkpt lat="42.89624" lon="0.19907">
        <ele>2042</ele>
        <time>2022-04-16T09:39:02Z</time>
      </trkpt>
      <trkpt lat="42.89622" lon="0.19905">
        <ele>2042</ele>
        <time>2022-04-16T09:39:10Z</time>
      </trkpt>
      <trkpt lat="42.89623" lon="0.19908">
        <ele>2042</ele>
        <time>2022-04-16T09:39:35Z</time>
      </trkpt>
      <trkpt lat="42.89624" lon="0.19909">
        <ele>2042</ele>
        <time>2022-04-16T09:39:44Z</time>
      </trkpt>
      <trkpt lat="42.89623" lon="0.19906">
        <ele>2042</ele>
        <time>2022-04-16T09:39:51Z</time>
      </trkpt>
      <trkpt lat="42.89621" lon="0.19904">
        <ele>2042</ele>
        <time>2022-04-16T09:39:56Z</time>
      </trkpt>
      <trkpt lat="42.89621" lon="0.19901">
        <ele>2042</ele>
        <time>2022-04-16T09:40:02Z</time>
      </trkpt>
      <trkpt lat="42.8962" lon="0.19898">
        <ele>2042</ele>
        <time>2022-04-16T09:40:05Z</time>
      </trkpt>
      <trkpt lat="42.8962" lon="0.19896">
        <ele>2042</ele>
        <time>2022-04-16T09:40:10Z</time>
      </trkpt>
      <trkpt lat="42.89618" lon="0.19894">
        <ele>2042</ele>
        <time>2022-04-16T09:40:17Z</time>
      </trkpt>
      <trkpt lat="42.89618" lon="0.19891">
        <ele>2042</ele>
        <time>2022-04-16T09:40:21Z</time>
      </trkpt>
      <trkpt lat="42.89616" lon="0.19889">
        <ele>2042</ele>
        <time>2022-04-16T09:40:25Z</time>
      </trkpt>
      <trkpt lat="42.89615" lon="0.19887">
        <ele>2042</ele>
        <time>2022-04-16T09:40:28Z</time>
      </trkpt>
      <trkpt lat="42.89614" lon="0.19886">
        <ele>2042</ele>
        <time>2022-04-16T09:40:32Z</time>
      </trkpt>
      <trkpt lat="42.89612" lon="0.19884">
        <ele>2042</ele>
        <time>2022-04-16T09:40:35Z</time>
      </trkpt>
      <trkpt lat="42.89611" lon="0.19881">
        <ele>2042</ele>
        <time>2022-04-16T09:40:38Z</time>
      </trkpt>
      <trkpt lat="42.89608" lon="0.19881">
        <ele>2042</ele>
        <time>2022-04-16T09:40:41Z</time>
      </trkpt>
      <trkpt lat="42.89605" lon="0.1988">
        <ele>2042</ele>
        <time>2022-04-16T09:40:44Z</time>
      </trkpt>
      <trkpt lat="42.89604" lon="0.19878">
        <ele>2042</ele>
        <time>2022-04-16T09:40:47Z</time>
      </trkpt>
      <trkpt lat="42.89602" lon="0.19877">
        <ele>2042</ele>
        <time>2022-04-16T09:40:50Z</time>
      </trkpt>
      <trkpt lat="42.896" lon="0.19874">
        <ele>2041</ele>
        <time>2022-04-16T09:40:53Z</time>
      </trkpt>
      <trkpt lat="42.89599" lon="0.19871">
        <ele>2041</ele>
        <time>2022-04-16T09:40:56Z</time>
      </trkpt>
      <trkpt lat="42.89597" lon="0.19869">
        <ele>2041</ele>
        <time>2022-04-16T09:41:00Z</time>
      </trkpt>
      <trkpt lat="42.89595" lon="0.19867">
        <ele>2042</ele>
        <time>2022-04-16T09:41:02Z</time>
      </trkpt>
      <trkpt lat="42.89593" lon="0.19864">
        <ele>2042</ele>
        <time>2022-04-16T09:41:05Z</time>
      </trkpt>
      <trkpt lat="42.89593" lon="0.19862">
        <ele>2042</ele>
        <time>2022-04-16T09:41:07Z</time>
      </trkpt>
      <trkpt lat="42.89591" lon="0.19859">
        <ele>2042</ele>
        <time>2022-04-16T09:41:13Z</time>
      </trkpt>
      <trkpt lat="42.8959" lon="0.19858">
        <ele>2042</ele>
        <time>2022-04-16T09:41:17Z</time>
      </trkpt>
      <trkpt lat="42.89588" lon="0.19856">
        <ele>2042</ele>
        <time>2022-04-16T09:41:23Z</time>
      </trkpt>
      <trkpt lat="42.89587" lon="0.19853">
        <ele>2042</ele>
        <time>2022-04-16T09:41:28Z</time>
      </trkpt>
      <trkpt lat="42.89585" lon="0.19852">
        <ele>2043</ele>
        <time>2022-04-16T09:41:31Z</time>
      </trkpt>
      <trkpt lat="42.89583" lon="0.19852">
        <ele>2043</ele>
        <time>2022-04-16T09:41:34Z</time>
      </trkpt>
      <trkpt lat="42.89581" lon="0.19853">
        <ele>2043</ele>
        <time>2022-04-16T09:41:37Z</time>
      </trkpt>
      <trkpt lat="42.89579" lon="0.19853">
        <ele>2043</ele>
        <time>2022-04-16T09:41:40Z</time>
      </trkpt>
      <trkpt lat="42.89577" lon="0.19854">
        <ele>2044</ele>
        <time>2022-04-16T09:41:43Z</time>
      </trkpt>
      <trkpt lat="42.89575" lon="0.19854">
        <ele>2044</ele>
        <time>2022-04-16T09:41:47Z</time>
      </trkpt>
      <trkpt lat="42.89573" lon="0.19855">
        <ele>2044</ele>
        <time>2022-04-16T09:41:49Z</time>
      </trkpt>
      <trkpt lat="42.8957" lon="0.19855">
        <ele>2044</ele>
        <time>2022-04-16T09:41:52Z</time>
      </trkpt>
      <trkpt lat="42.89568" lon="0.19855">
        <ele>2044</ele>
        <time>2022-04-16T09:41:56Z</time>
      </trkpt>
      <trkpt lat="42.89566" lon="0.19855">
        <ele>2044</ele>
        <time>2022-04-16T09:41:57Z</time>
      </trkpt>
      <trkpt lat="42.89564" lon="0.19853">
        <ele>2044</ele>
        <time>2022-04-16T09:42:01Z</time>
      </trkpt>
      <trkpt lat="42.89562" lon="0.19851">
        <ele>2044</ele>
        <time>2022-04-16T09:42:04Z</time>
      </trkpt>
      <trkpt lat="42.89559" lon="0.1985">
        <ele>2044</ele>
        <time>2022-04-16T09:42:06Z</time>
      </trkpt>
      <trkpt lat="42.89557" lon="0.19849">
        <ele>2044</ele>
        <time>2022-04-16T09:42:09Z</time>
      </trkpt>
      <trkpt lat="42.89555" lon="0.19848">
        <ele>2044</ele>
        <time>2022-04-16T09:42:12Z</time>
      </trkpt>
      <trkpt lat="42.89553" lon="0.19846">
        <ele>2044</ele>
        <time>2022-04-16T09:42:16Z</time>
      </trkpt>
      <trkpt lat="42.89551" lon="0.19845">
        <ele>2044</ele>
        <time>2022-04-16T09:42:19Z</time>
      </trkpt>
      <trkpt lat="42.89549" lon="0.19843">
        <ele>2043</ele>
        <time>2022-04-16T09:42:22Z</time>
      </trkpt>
      <trkpt lat="42.89547" lon="0.19842">
        <ele>2043</ele>
        <time>2022-04-16T09:42:25Z</time>
      </trkpt>
      <trkpt lat="42.89545" lon="0.19841">
        <ele>2043</ele>
        <time>2022-04-16T09:42:30Z</time>
      </trkpt>
      <trkpt lat="42.89543" lon="0.19841">
        <ele>2043</ele>
        <time>2022-04-16T09:42:38Z</time>
      </trkpt>
      <trkpt lat="42.8954" lon="0.1984">
        <ele>2043</ele>
        <time>2022-04-16T09:42:41Z</time>
      </trkpt>
      <trkpt lat="42.89538" lon="0.19837">
        <ele>2043</ele>
        <time>2022-04-16T09:42:44Z</time>
      </trkpt>
      <trkpt lat="42.89538" lon="0.19835">
        <ele>2043</ele>
        <time>2022-04-16T09:42:50Z</time>
      </trkpt>
      <trkpt lat="42.89536" lon="0.19833">
        <ele>2043</ele>
        <time>2022-04-16T09:42:52Z</time>
      </trkpt>
      <trkpt lat="42.89534" lon="0.19833">
        <ele>2043</ele>
        <time>2022-04-16T09:42:55Z</time>
      </trkpt>
      <trkpt lat="42.89532" lon="0.19833">
        <ele>2043</ele>
        <time>2022-04-16T09:42:58Z</time>
      </trkpt>
      <trkpt lat="42.8953" lon="0.19833">
        <ele>2042</ele>
        <time>2022-04-16T09:43:02Z</time>
      </trkpt>
      <trkpt lat="42.89528" lon="0.19832">
        <ele>2042</ele>
        <time>2022-04-16T09:43:04Z</time>
      </trkpt>
      <trkpt lat="42.89526" lon="0.19831">
        <ele>2042</ele>
        <time>2022-04-16T09:43:13Z</time>
      </trkpt>
      <trkpt lat="42.89525" lon="0.19829">
        <ele>2041</ele>
        <time>2022-04-16T09:43:21Z</time>
      </trkpt>
      <trkpt lat="42.89523" lon="0.19829">
        <ele>2041</ele>
        <time>2022-04-16T09:43:24Z</time>
      </trkpt>
      <trkpt lat="42.89521" lon="0.19827">
        <ele>2041</ele>
        <time>2022-04-16T09:43:29Z</time>
      </trkpt>
      <trkpt lat="42.89519" lon="0.19826">
        <ele>2041</ele>
        <time>2022-04-16T09:43:33Z</time>
      </trkpt>
      <trkpt lat="42.89517" lon="0.19823">
        <ele>2041</ele>
        <time>2022-04-16T09:43:37Z</time>
      </trkpt>
      <trkpt lat="42.89516" lon="0.19822">
        <ele>2044</ele>
        <time>2022-04-16T09:43:41Z</time>
      </trkpt>
      <trkpt lat="42.89513" lon="0.19822">
        <ele>2044</ele>
        <time>2022-04-16T09:43:44Z</time>
      </trkpt>
      <trkpt lat="42.89511" lon="0.19822">
        <ele>2044</ele>
        <time>2022-04-16T09:43:47Z</time>
      </trkpt>
      <trkpt lat="42.89509" lon="0.19822">
        <ele>2044</ele>
        <time>2022-04-16T09:43:50Z</time>
      </trkpt>
      <trkpt lat="42.89506" lon="0.19824">
        <ele>2044</ele>
        <time>2022-04-16T09:43:52Z</time>
      </trkpt>
      <trkpt lat="42.89505" lon="0.19825">
        <ele>2044</ele>
        <time>2022-04-16T09:43:55Z</time>
      </trkpt>
      <trkpt lat="42.89496" lon="0.19819">
        <ele>2044</ele>
        <time>2022-04-16T09:44:05Z</time>
      </trkpt>
      <trkpt lat="42.89493" lon="0.19823">
        <ele>2043</ele>
        <time>2022-04-16T09:44:11Z</time>
      </trkpt>
      <trkpt lat="42.89491" lon="0.1982">
        <ele>2043</ele>
        <time>2022-04-16T09:44:16Z</time>
      </trkpt>
      <trkpt lat="42.89489" lon="0.19817">
        <ele>2043</ele>
        <time>2022-04-16T09:44:20Z</time>
      </trkpt>
      <trkpt lat="42.89487" lon="0.19817">
        <ele>2045</ele>
        <time>2022-04-16T09:44:24Z</time>
      </trkpt>
      <trkpt lat="42.89484" lon="0.19815">
        <ele>2045</ele>
        <time>2022-04-16T09:44:27Z</time>
      </trkpt>
      <trkpt lat="42.89483" lon="0.19812">
        <ele>2045</ele>
        <time>2022-04-16T09:44:29Z</time>
      </trkpt>
      <trkpt lat="42.89483" lon="0.19809">
        <ele>2045</ele>
        <time>2022-04-16T09:44:30Z</time>
      </trkpt>
      <trkpt lat="42.89482" lon="0.19806">
        <ele>2045</ele>
        <time>2022-04-16T09:44:32Z</time>
      </trkpt>
      <trkpt lat="42.89482" lon="0.19803">
        <ele>2045</ele>
        <time>2022-04-16T09:44:34Z</time>
      </trkpt>
      <trkpt lat="42.89481" lon="0.198">
        <ele>2045</ele>
        <time>2022-04-16T09:44:36Z</time>
      </trkpt>
      <trkpt lat="42.8948" lon="0.19797">
        <ele>2045</ele>
        <time>2022-04-16T09:44:38Z</time>
      </trkpt>
      <trkpt lat="42.8948" lon="0.19794">
        <ele>2044</ele>
        <time>2022-04-16T09:44:43Z</time>
      </trkpt>
      <trkpt lat="42.89479" lon="0.19792">
        <ele>2044</ele>
        <time>2022-04-16T09:44:44Z</time>
      </trkpt>
      <trkpt lat="42.89479" lon="0.19789">
        <ele>2044</ele>
        <time>2022-04-16T09:44:46Z</time>
      </trkpt>
      <trkpt lat="42.89478" lon="0.19786">
        <ele>2044</ele>
        <time>2022-04-16T09:44:49Z</time>
      </trkpt>
      <trkpt lat="42.89477" lon="0.19784">
        <ele>2044</ele>
        <time>2022-04-16T09:44:53Z</time>
      </trkpt>
      <trkpt lat="42.89475" lon="0.19781">
        <ele>2044</ele>
        <time>2022-04-16T09:44:55Z</time>
      </trkpt>
      <trkpt lat="42.89474" lon="0.19775">
        <ele>2044</ele>
        <time>2022-04-16T09:44:59Z</time>
      </trkpt>
      <trkpt lat="42.89473" lon="0.19773">
        <ele>2044</ele>
        <time>2022-04-16T09:45:05Z</time>
      </trkpt>
      <trkpt lat="42.89471" lon="0.19771">
        <ele>2044</ele>
        <time>2022-04-16T09:45:08Z</time>
      </trkpt>
      <trkpt lat="42.89469" lon="0.19769">
        <ele>2044</ele>
        <time>2022-04-16T09:45:12Z</time>
      </trkpt>
      <trkpt lat="42.89467" lon="0.19767">
        <ele>2044</ele>
        <time>2022-04-16T09:45:17Z</time>
      </trkpt>
      <trkpt lat="42.89466" lon="0.19765">
        <ele>2044</ele>
        <time>2022-04-16T09:45:19Z</time>
      </trkpt>
      <trkpt lat="42.89464" lon="0.19764">
        <ele>2045</ele>
        <time>2022-04-16T09:45:23Z</time>
      </trkpt>
      <trkpt lat="42.89463" lon="0.19762">
        <ele>2045</ele>
        <time>2022-04-16T09:45:26Z</time>
      </trkpt>
      <trkpt lat="42.89461" lon="0.19762">
        <ele>2045</ele>
        <time>2022-04-16T09:45:29Z</time>
      </trkpt>
      <trkpt lat="42.89459" lon="0.19762">
        <ele>2045</ele>
        <time>2022-04-16T09:45:32Z</time>
      </trkpt>
      <trkpt lat="42.89457" lon="0.19763">
        <ele>2045</ele>
        <time>2022-04-16T09:45:35Z</time>
      </trkpt>
      <trkpt lat="42.89455" lon="0.19763">
        <ele>2045</ele>
        <time>2022-04-16T09:45:39Z</time>
      </trkpt>
      <trkpt lat="42.89453" lon="0.19763">
        <ele>2045</ele>
        <time>2022-04-16T09:45:41Z</time>
      </trkpt>
      <trkpt lat="42.89451" lon="0.19763">
        <ele>2045</ele>
        <time>2022-04-16T09:45:44Z</time>
      </trkpt>
      <trkpt lat="42.89448" lon="0.19764">
        <ele>2045</ele>
        <time>2022-04-16T09:45:46Z</time>
      </trkpt>
      <trkpt lat="42.89446" lon="0.19763">
        <ele>2045</ele>
        <time>2022-04-16T09:45:50Z</time>
      </trkpt>
      <trkpt lat="42.89445" lon="0.19761">
        <ele>2045</ele>
        <time>2022-04-16T09:45:54Z</time>
      </trkpt>
      <trkpt lat="42.89447" lon="0.1976">
        <ele>2045</ele>
        <time>2022-04-16T09:45:59Z</time>
      </trkpt>
      <trkpt lat="42.89448" lon="0.19757">
        <ele>2045</ele>
        <time>2022-04-16T09:46:03Z</time>
      </trkpt>
      <trkpt lat="42.89448" lon="0.19755">
        <ele>2045</ele>
        <time>2022-04-16T09:46:07Z</time>
      </trkpt>
      <trkpt lat="42.89448" lon="0.19752">
        <ele>2045</ele>
        <time>2022-04-16T09:46:11Z</time>
      </trkpt>
      <trkpt lat="42.89448" lon="0.19749">
        <ele>2045</ele>
        <time>2022-04-16T09:46:16Z</time>
      </trkpt>
      <trkpt lat="42.89447" lon="0.19746">
        <ele>2045</ele>
        <time>2022-04-16T09:46:19Z</time>
      </trkpt>
      <trkpt lat="42.89446" lon="0.19744">
        <ele>2047</ele>
        <time>2022-04-16T09:46:25Z</time>
      </trkpt>
      <trkpt lat="42.89445" lon="0.19741">
        <ele>2047</ele>
        <time>2022-04-16T09:46:29Z</time>
      </trkpt>
      <trkpt lat="42.89444" lon="0.19739">
        <ele>2050</ele>
        <time>2022-04-16T09:46:32Z</time>
      </trkpt>
      <trkpt lat="42.89442" lon="0.19737">
        <ele>2050</ele>
        <time>2022-04-16T09:46:37Z</time>
      </trkpt>
      <trkpt lat="42.89441" lon="0.19735">
        <ele>2050</ele>
        <time>2022-04-16T09:46:40Z</time>
      </trkpt>
      <trkpt lat="42.8944" lon="0.19733">
        <ele>2051</ele>
        <time>2022-04-16T09:46:42Z</time>
      </trkpt>
      <trkpt lat="42.89438" lon="0.19731">
        <ele>2051</ele>
        <time>2022-04-16T09:46:45Z</time>
      </trkpt>
      <trkpt lat="42.89437" lon="0.1973">
        <ele>2051</ele>
        <time>2022-04-16T09:46:48Z</time>
      </trkpt>
      <trkpt lat="42.89435" lon="0.19728">
        <ele>2051</ele>
        <time>2022-04-16T09:46:51Z</time>
      </trkpt>
      <trkpt lat="42.89433" lon="0.19726">
        <ele>2051</ele>
        <time>2022-04-16T09:46:54Z</time>
      </trkpt>
      <trkpt lat="42.89431" lon="0.19724">
        <ele>2051</ele>
        <time>2022-04-16T09:46:59Z</time>
      </trkpt>
      <trkpt lat="42.8943" lon="0.19723">
        <ele>2051</ele>
        <time>2022-04-16T09:47:02Z</time>
      </trkpt>
      <trkpt lat="42.89428" lon="0.19724">
        <ele>2051</ele>
        <time>2022-04-16T09:47:05Z</time>
      </trkpt>
      <trkpt lat="42.89425" lon="0.19723">
        <ele>2051</ele>
        <time>2022-04-16T09:47:08Z</time>
      </trkpt>
      <trkpt lat="42.89423" lon="0.19722">
        <ele>2051</ele>
        <time>2022-04-16T09:47:11Z</time>
      </trkpt>
      <trkpt lat="42.89421" lon="0.19721">
        <ele>2051</ele>
        <time>2022-04-16T09:47:14Z</time>
      </trkpt>
      <trkpt lat="42.89418" lon="0.19721">
        <ele>2051</ele>
        <time>2022-04-16T09:47:17Z</time>
      </trkpt>
      <trkpt lat="42.89416" lon="0.1972">
        <ele>2051</ele>
        <time>2022-04-16T09:47:20Z</time>
      </trkpt>
      <trkpt lat="42.89415" lon="0.1972">
        <ele>2051</ele>
        <time>2022-04-16T09:47:22Z</time>
      </trkpt>
      <trkpt lat="42.89413" lon="0.1972">
        <ele>2051</ele>
        <time>2022-04-16T09:47:25Z</time>
      </trkpt>
      <trkpt lat="42.89411" lon="0.19718">
        <ele>2051</ele>
        <time>2022-04-16T09:47:28Z</time>
      </trkpt>
      <trkpt lat="42.8941" lon="0.19716">
        <ele>2051</ele>
        <time>2022-04-16T09:47:32Z</time>
      </trkpt>
      <trkpt lat="42.89409" lon="0.19714">
        <ele>2051</ele>
        <time>2022-04-16T09:47:36Z</time>
      </trkpt>
      <trkpt lat="42.89407" lon="0.19712">
        <ele>2051</ele>
        <time>2022-04-16T09:47:39Z</time>
      </trkpt>
      <trkpt lat="42.89406" lon="0.19711">
        <ele>2052</ele>
        <time>2022-04-16T09:47:44Z</time>
      </trkpt>
      <trkpt lat="42.89405" lon="0.19709">
        <ele>2052</ele>
        <time>2022-04-16T09:47:48Z</time>
      </trkpt>
      <trkpt lat="42.89403" lon="0.19707">
        <ele>2055</ele>
        <time>2022-04-16T09:47:52Z</time>
      </trkpt>
      <trkpt lat="42.89401" lon="0.19706">
        <ele>2055</ele>
        <time>2022-04-16T09:47:58Z</time>
      </trkpt>
      <trkpt lat="42.894" lon="0.19705">
        <ele>2055</ele>
        <time>2022-04-16T09:48:01Z</time>
      </trkpt>
      <trkpt lat="42.89398" lon="0.19705">
        <ele>2055</ele>
        <time>2022-04-16T09:48:04Z</time>
      </trkpt>
      <trkpt lat="42.89395" lon="0.19704">
        <ele>2056</ele>
        <time>2022-04-16T09:48:14Z</time>
      </trkpt>
      <trkpt lat="42.89397" lon="0.19706">
        <ele>2057</ele>
        <time>2022-04-16T09:48:44Z</time>
      </trkpt>
      <trkpt lat="42.89399" lon="0.19708">
        <ele>2057</ele>
        <time>2022-04-16T09:48:50Z</time>
      </trkpt>
      <trkpt lat="42.894" lon="0.1971">
        <ele>2058</ele>
        <time>2022-04-16T09:52:21Z</time>
      </trkpt>
      <trkpt lat="42.89399" lon="0.19708">
        <ele>2057</ele>
        <time>2022-04-16T09:53:12Z</time>
      </trkpt>
      <trkpt lat="42.89397" lon="0.19709">
        <ele>2058</ele>
        <time>2022-04-16T09:54:17Z</time>
      </trkpt>
      <trkpt lat="42.89396" lon="0.19711">
        <ele>2058</ele>
        <time>2022-04-16T09:54:20Z</time>
      </trkpt>
      <trkpt lat="42.89393" lon="0.19712">
        <ele>2058</ele>
        <time>2022-04-16T09:54:23Z</time>
      </trkpt>
      <trkpt lat="42.89391" lon="0.19712">
        <ele>2058</ele>
        <time>2022-04-16T09:54:25Z</time>
      </trkpt>
      <trkpt lat="42.89389" lon="0.19711">
        <ele>2058</ele>
        <time>2022-04-16T09:54:27Z</time>
      </trkpt>
      <trkpt lat="42.89387" lon="0.19711">
        <ele>2058</ele>
        <time>2022-04-16T09:54:30Z</time>
      </trkpt>
      <trkpt lat="42.89385" lon="0.1971">
        <ele>2060</ele>
        <time>2022-04-16T09:54:33Z</time>
      </trkpt>
      <trkpt lat="42.89383" lon="0.19709">
        <ele>2060</ele>
        <time>2022-04-16T09:54:34Z</time>
      </trkpt>
      <trkpt lat="42.8938" lon="0.1971">
        <ele>2060</ele>
        <time>2022-04-16T09:54:37Z</time>
      </trkpt>
      <trkpt lat="42.89378" lon="0.1971">
        <ele>2060</ele>
        <time>2022-04-16T09:54:39Z</time>
      </trkpt>
      <trkpt lat="42.89377" lon="0.1971">
        <ele>2060</ele>
        <time>2022-04-16T09:54:41Z</time>
      </trkpt>
      <trkpt lat="42.89374" lon="0.1971">
        <ele>2060</ele>
        <time>2022-04-16T09:54:43Z</time>
      </trkpt>
      <trkpt lat="42.89372" lon="0.19711">
        <ele>2060</ele>
        <time>2022-04-16T09:54:45Z</time>
      </trkpt>
      <trkpt lat="42.8937" lon="0.19712">
        <ele>2060</ele>
        <time>2022-04-16T09:54:48Z</time>
      </trkpt>
      <trkpt lat="42.89368" lon="0.19713">
        <ele>2059</ele>
        <time>2022-04-16T09:54:52Z</time>
      </trkpt>
      <trkpt lat="42.89366" lon="0.19715">
        <ele>2059</ele>
        <time>2022-04-16T09:54:55Z</time>
      </trkpt>
      <trkpt lat="42.89365" lon="0.19717">
        <ele>2059</ele>
        <time>2022-04-16T09:54:58Z</time>
      </trkpt>
      <trkpt lat="42.89363" lon="0.19718">
        <ele>2059</ele>
        <time>2022-04-16T09:55:00Z</time>
      </trkpt>
      <trkpt lat="42.89361" lon="0.1972">
        <ele>2060</ele>
        <time>2022-04-16T09:55:03Z</time>
      </trkpt>
      <trkpt lat="42.8936" lon="0.19722">
        <ele>2060</ele>
        <time>2022-04-16T09:55:06Z</time>
      </trkpt>
      <trkpt lat="42.89358" lon="0.19724">
        <ele>2060</ele>
        <time>2022-04-16T09:55:09Z</time>
      </trkpt>
      <trkpt lat="42.89356" lon="0.19726">
        <ele>2060</ele>
        <time>2022-04-16T09:55:12Z</time>
      </trkpt>
      <trkpt lat="42.89354" lon="0.19728">
        <ele>2060</ele>
        <time>2022-04-16T09:55:15Z</time>
      </trkpt>
      <trkpt lat="42.89351" lon="0.19729">
        <ele>2060</ele>
        <time>2022-04-16T09:55:20Z</time>
      </trkpt>
      <trkpt lat="42.8935" lon="0.1973">
        <ele>2061</ele>
        <time>2022-04-16T09:55:23Z</time>
      </trkpt>
      <trkpt lat="42.89347" lon="0.1973">
        <ele>2061</ele>
        <time>2022-04-16T09:55:27Z</time>
      </trkpt>
      <trkpt lat="42.89345" lon="0.19731">
        <ele>2061</ele>
        <time>2022-04-16T09:55:29Z</time>
      </trkpt>
      <trkpt lat="42.89343" lon="0.19731">
        <ele>2061</ele>
        <time>2022-04-16T09:55:33Z</time>
      </trkpt>
      <trkpt lat="42.8934" lon="0.19731">
        <ele>2061</ele>
        <time>2022-04-16T09:55:36Z</time>
      </trkpt>
      <trkpt lat="42.89338" lon="0.19731">
        <ele>2061</ele>
        <time>2022-04-16T09:55:39Z</time>
      </trkpt>
      <trkpt lat="42.89336" lon="0.19731">
        <ele>2062</ele>
        <time>2022-04-16T09:55:41Z</time>
      </trkpt>
      <trkpt lat="42.89334" lon="0.19732">
        <ele>2062</ele>
        <time>2022-04-16T09:55:45Z</time>
      </trkpt>
      <trkpt lat="42.89332" lon="0.19732">
        <ele>2062</ele>
        <time>2022-04-16T09:55:48Z</time>
      </trkpt>
      <trkpt lat="42.8933" lon="0.19733">
        <ele>2062</ele>
        <time>2022-04-16T09:55:51Z</time>
      </trkpt>
      <trkpt lat="42.89329" lon="0.19735">
        <ele>2062</ele>
        <time>2022-04-16T09:55:56Z</time>
      </trkpt>
      <trkpt lat="42.89328" lon="0.19737">
        <ele>2062</ele>
        <time>2022-04-16T09:56:08Z</time>
      </trkpt>
      <trkpt lat="42.89327" lon="0.19739">
        <ele>2063</ele>
        <time>2022-04-16T09:56:23Z</time>
      </trkpt>
      <trkpt lat="42.89326" lon="0.19742">
        <ele>2063</ele>
        <time>2022-04-16T09:56:26Z</time>
      </trkpt>
      <trkpt lat="42.89325" lon="0.19745">
        <ele>2063</ele>
        <time>2022-04-16T09:56:30Z</time>
      </trkpt>
      <trkpt lat="42.89324" lon="0.19747">
        <ele>2063</ele>
        <time>2022-04-16T09:56:34Z</time>
      </trkpt>
      <trkpt lat="42.89323" lon="0.19748">
        <ele>2063</ele>
        <time>2022-04-16T09:56:38Z</time>
      </trkpt>
      <trkpt lat="42.89321" lon="0.19747">
        <ele>2065</ele>
        <time>2022-04-16T09:56:44Z</time>
      </trkpt>
      <trkpt lat="42.89319" lon="0.19746">
        <ele>2065</ele>
        <time>2022-04-16T09:56:50Z</time>
      </trkpt>
      <trkpt lat="42.89317" lon="0.19744">
        <ele>2067</ele>
        <time>2022-04-16T09:56:55Z</time>
      </trkpt>
      <trkpt lat="42.89315" lon="0.19744">
        <ele>2067</ele>
        <time>2022-04-16T09:56:59Z</time>
      </trkpt>
      <trkpt lat="42.89313" lon="0.19742">
        <ele>2069</ele>
        <time>2022-04-16T09:57:02Z</time>
      </trkpt>
      <trkpt lat="42.89311" lon="0.19741">
        <ele>2069</ele>
        <time>2022-04-16T09:57:07Z</time>
      </trkpt>
      <trkpt lat="42.89309" lon="0.19739">
        <ele>2069</ele>
        <time>2022-04-16T09:57:10Z</time>
      </trkpt>
      <trkpt lat="42.89307" lon="0.19738">
        <ele>2070</ele>
        <time>2022-04-16T09:57:14Z</time>
      </trkpt>
      <trkpt lat="42.89306" lon="0.19736">
        <ele>2072</ele>
        <time>2022-04-16T09:57:22Z</time>
      </trkpt>
      <trkpt lat="42.89303" lon="0.19736">
        <ele>2072</ele>
        <time>2022-04-16T09:57:27Z</time>
      </trkpt>
      <trkpt lat="42.89302" lon="0.19738">
        <ele>2071</ele>
        <time>2022-04-16T09:57:32Z</time>
      </trkpt>
      <trkpt lat="42.893" lon="0.19738">
        <ele>2071</ele>
        <time>2022-04-16T09:57:38Z</time>
      </trkpt>
      <trkpt lat="42.89298" lon="0.19738">
        <ele>2074</ele>
        <time>2022-04-16T09:57:43Z</time>
      </trkpt>
      <trkpt lat="42.89296" lon="0.19738">
        <ele>2074</ele>
        <time>2022-04-16T09:57:49Z</time>
      </trkpt>
      <trkpt lat="42.89294" lon="0.19737">
        <ele>2075</ele>
        <time>2022-04-16T09:57:53Z</time>
      </trkpt>
      <trkpt lat="42.89292" lon="0.19737">
        <ele>2075</ele>
        <time>2022-04-16T09:57:57Z</time>
      </trkpt>
      <trkpt lat="42.8929" lon="0.19737">
        <ele>2075</ele>
        <time>2022-04-16T09:57:59Z</time>
      </trkpt>
      <trkpt lat="42.89288" lon="0.19739">
        <ele>2077</ele>
        <time>2022-04-16T09:58:05Z</time>
      </trkpt>
      <trkpt lat="42.89286" lon="0.19741">
        <ele>2077</ele>
        <time>2022-04-16T09:58:08Z</time>
      </trkpt>
      <trkpt lat="42.89285" lon="0.19742">
        <ele>2078</ele>
        <time>2022-04-16T09:58:12Z</time>
      </trkpt>
      <trkpt lat="42.89283" lon="0.19743">
        <ele>2078</ele>
        <time>2022-04-16T09:58:14Z</time>
      </trkpt>
      <trkpt lat="42.89281" lon="0.19744">
        <ele>2078</ele>
        <time>2022-04-16T09:58:19Z</time>
      </trkpt>
      <trkpt lat="42.8928" lon="0.19746">
        <ele>2079</ele>
        <time>2022-04-16T09:58:21Z</time>
      </trkpt>
      <trkpt lat="42.89279" lon="0.19749">
        <ele>2079</ele>
        <time>2022-04-16T09:58:26Z</time>
      </trkpt>
      <trkpt lat="42.89277" lon="0.19751">
        <ele>2079</ele>
        <time>2022-04-16T09:58:29Z</time>
      </trkpt>
      <trkpt lat="42.89276" lon="0.19753">
        <ele>2079</ele>
        <time>2022-04-16T09:58:32Z</time>
      </trkpt>
      <trkpt lat="42.89276" lon="0.19756">
        <ele>2079</ele>
        <time>2022-04-16T09:58:36Z</time>
      </trkpt>
      <trkpt lat="42.89276" lon="0.19759">
        <ele>2079</ele>
        <time>2022-04-16T09:58:40Z</time>
      </trkpt>
      <trkpt lat="42.89276" lon="0.19762">
        <ele>2077</ele>
        <time>2022-04-16T09:58:42Z</time>
      </trkpt>
      <trkpt lat="42.89275" lon="0.19764">
        <ele>2077</ele>
        <time>2022-04-16T09:58:49Z</time>
      </trkpt>
      <trkpt lat="42.89274" lon="0.19767">
        <ele>2077</ele>
        <time>2022-04-16T09:58:53Z</time>
      </trkpt>
      <trkpt lat="42.89273" lon="0.19769">
        <ele>2077</ele>
        <time>2022-04-16T09:58:55Z</time>
      </trkpt>
      <trkpt lat="42.89271" lon="0.19771">
        <ele>2077</ele>
        <time>2022-04-16T09:59:00Z</time>
      </trkpt>
      <trkpt lat="42.89269" lon="0.19772">
        <ele>2079</ele>
        <time>2022-04-16T09:59:04Z</time>
      </trkpt>
      <trkpt lat="42.89267" lon="0.19773">
        <ele>2079</ele>
        <time>2022-04-16T09:59:09Z</time>
      </trkpt>
      <trkpt lat="42.89265" lon="0.19773">
        <ele>2081</ele>
        <time>2022-04-16T09:59:12Z</time>
      </trkpt>
      <trkpt lat="42.89263" lon="0.19774">
        <ele>2081</ele>
        <time>2022-04-16T09:59:16Z</time>
      </trkpt>
      <trkpt lat="42.89261" lon="0.19774">
        <ele>2081</ele>
        <time>2022-04-16T09:59:20Z</time>
      </trkpt>
      <trkpt lat="42.89259" lon="0.19776">
        <ele>2081</ele>
        <time>2022-04-16T09:59:23Z</time>
      </trkpt>
      <trkpt lat="42.89259" lon="0.19779">
        <ele>2081</ele>
        <time>2022-04-16T09:59:26Z</time>
      </trkpt>
      <trkpt lat="42.89258" lon="0.19781">
        <ele>2081</ele>
        <time>2022-04-16T09:59:29Z</time>
      </trkpt>
      <trkpt lat="42.89256" lon="0.19784">
        <ele>2082</ele>
        <time>2022-04-16T09:59:33Z</time>
      </trkpt>
      <trkpt lat="42.89254" lon="0.19786">
        <ele>2082</ele>
        <time>2022-04-16T09:59:36Z</time>
      </trkpt>
      <trkpt lat="42.89253" lon="0.19788">
        <ele>2082</ele>
        <time>2022-04-16T09:59:38Z</time>
      </trkpt>
      <trkpt lat="42.89252" lon="0.19789">
        <ele>2081</ele>
        <time>2022-04-16T09:59:41Z</time>
      </trkpt>
      <trkpt lat="42.8925" lon="0.19792">
        <ele>2081</ele>
        <time>2022-04-16T09:59:44Z</time>
      </trkpt>
      <trkpt lat="42.89249" lon="0.19794">
        <ele>2081</ele>
        <time>2022-04-16T09:59:47Z</time>
      </trkpt>
      <trkpt lat="42.89247" lon="0.19797">
        <ele>2081</ele>
        <time>2022-04-16T09:59:50Z</time>
      </trkpt>
      <trkpt lat="42.89246" lon="0.19799">
        <ele>2082</ele>
        <time>2022-04-16T09:59:54Z</time>
      </trkpt>
      <trkpt lat="42.89244" lon="0.19801">
        <ele>2082</ele>
        <time>2022-04-16T09:59:57Z</time>
      </trkpt>
      <trkpt lat="42.89244" lon="0.19804">
        <ele>2082</ele>
        <time>2022-04-16T10:00:00Z</time>
      </trkpt>
      <trkpt lat="42.89242" lon="0.19806">
        <ele>2082</ele>
        <time>2022-04-16T10:00:03Z</time>
      </trkpt>
      <trkpt lat="42.89241" lon="0.19809">
        <ele>2082</ele>
        <time>2022-04-16T10:00:06Z</time>
      </trkpt>
      <trkpt lat="42.8924" lon="0.19812">
        <ele>2082</ele>
        <time>2022-04-16T10:00:09Z</time>
      </trkpt>
      <trkpt lat="42.89239" lon="0.19815">
        <ele>2082</ele>
        <time>2022-04-16T10:00:12Z</time>
      </trkpt>
      <trkpt lat="42.89238" lon="0.19818">
        <ele>2082</ele>
        <time>2022-04-16T10:00:14Z</time>
      </trkpt>
      <trkpt lat="42.89238" lon="0.19822">
        <ele>2082</ele>
        <time>2022-04-16T10:00:18Z</time>
      </trkpt>
      <trkpt lat="42.89237" lon="0.19825">
        <ele>2082</ele>
        <time>2022-04-16T10:00:21Z</time>
      </trkpt>
      <trkpt lat="42.89237" lon="0.19828">
        <ele>2082</ele>
        <time>2022-04-16T10:00:24Z</time>
      </trkpt>
      <trkpt lat="42.89237" lon="0.19831">
        <ele>2082</ele>
        <time>2022-04-16T10:00:27Z</time>
      </trkpt>
      <trkpt lat="42.89237" lon="0.19834">
        <ele>2082</ele>
        <time>2022-04-16T10:00:29Z</time>
      </trkpt>
      <trkpt lat="42.89236" lon="0.19837">
        <ele>2082</ele>
        <time>2022-04-16T10:00:34Z</time>
      </trkpt>
      <trkpt lat="42.89235" lon="0.19839">
        <ele>2082</ele>
        <time>2022-04-16T10:00:37Z</time>
      </trkpt>
      <trkpt lat="42.89235" lon="0.19842">
        <ele>2082</ele>
        <time>2022-04-16T10:00:42Z</time>
      </trkpt>
      <trkpt lat="42.89234" lon="0.19845">
        <ele>2082</ele>
        <time>2022-04-16T10:00:47Z</time>
      </trkpt>
      <trkpt lat="42.89233" lon="0.19847">
        <ele>2085</ele>
        <time>2022-04-16T10:00:52Z</time>
      </trkpt>
      <trkpt lat="42.89232" lon="0.1985">
        <ele>2085</ele>
        <time>2022-04-16T10:00:56Z</time>
      </trkpt>
      <trkpt lat="42.89231" lon="0.19853">
        <ele>2085</ele>
        <time>2022-04-16T10:01:00Z</time>
      </trkpt>
      <trkpt lat="42.8923" lon="0.19855">
        <ele>2085</ele>
        <time>2022-04-16T10:01:04Z</time>
      </trkpt>
      <trkpt lat="42.89229" lon="0.19857">
        <ele>2085</ele>
        <time>2022-04-16T10:01:11Z</time>
      </trkpt>
      <trkpt lat="42.89228" lon="0.19859">
        <ele>2086</ele>
        <time>2022-04-16T10:01:16Z</time>
      </trkpt>
      <trkpt lat="42.89226" lon="0.1986">
        <ele>2086</ele>
        <time>2022-04-16T10:01:19Z</time>
      </trkpt>
      <trkpt lat="42.89225" lon="0.19862">
        <ele>2090</ele>
        <time>2022-04-16T10:01:48Z</time>
      </trkpt>
      <trkpt lat="42.89223" lon="0.19864">
        <ele>2090</ele>
        <time>2022-04-16T10:01:51Z</time>
      </trkpt>
      <trkpt lat="42.89222" lon="0.19866">
        <ele>2090</ele>
        <time>2022-04-16T10:01:55Z</time>
      </trkpt>
      <trkpt lat="42.8922" lon="0.19868">
        <ele>2090</ele>
        <time>2022-04-16T10:01:57Z</time>
      </trkpt>
      <trkpt lat="42.89219" lon="0.19871">
        <ele>2090</ele>
        <time>2022-04-16T10:02:01Z</time>
      </trkpt>
      <trkpt lat="42.89218" lon="0.19873">
        <ele>2090</ele>
        <time>2022-04-16T10:02:03Z</time>
      </trkpt>
      <trkpt lat="42.89217" lon="0.19876">
        <ele>2090</ele>
        <time>2022-04-16T10:02:07Z</time>
      </trkpt>
      <trkpt lat="42.89216" lon="0.19878">
        <ele>2090</ele>
        <time>2022-04-16T10:02:11Z</time>
      </trkpt>
      <trkpt lat="42.89215" lon="0.19881">
        <ele>2090</ele>
        <time>2022-04-16T10:02:15Z</time>
      </trkpt>
      <trkpt lat="42.89214" lon="0.19883">
        <ele>2090</ele>
        <time>2022-04-16T10:02:19Z</time>
      </trkpt>
      <trkpt lat="42.89213" lon="0.19886">
        <ele>2091</ele>
        <time>2022-04-16T10:02:24Z</time>
      </trkpt>
      <trkpt lat="42.89212" lon="0.19888">
        <ele>2091</ele>
        <time>2022-04-16T10:02:26Z</time>
      </trkpt>
      <trkpt lat="42.89211" lon="0.1989">
        <ele>2091</ele>
        <time>2022-04-16T10:02:30Z</time>
      </trkpt>
      <trkpt lat="42.89211" lon="0.19893">
        <ele>2092</ele>
        <time>2022-04-16T10:02:35Z</time>
      </trkpt>
      <trkpt lat="42.89209" lon="0.19896">
        <ele>2092</ele>
        <time>2022-04-16T10:02:39Z</time>
      </trkpt>
      <trkpt lat="42.89208" lon="0.19898">
        <ele>2094</ele>
        <time>2022-04-16T10:02:42Z</time>
      </trkpt>
      <trkpt lat="42.89207" lon="0.199">
        <ele>2094</ele>
        <time>2022-04-16T10:02:46Z</time>
      </trkpt>
      <trkpt lat="42.89205" lon="0.19902">
        <ele>2094</ele>
        <time>2022-04-16T10:02:51Z</time>
      </trkpt>
      <trkpt lat="42.89204" lon="0.19904">
        <ele>2095</ele>
        <time>2022-04-16T10:02:57Z</time>
      </trkpt>
      <trkpt lat="42.89203" lon="0.19906">
        <ele>2097</ele>
        <time>2022-04-16T10:03:02Z</time>
      </trkpt>
      <trkpt lat="42.89201" lon="0.19908">
        <ele>2097</ele>
        <time>2022-04-16T10:03:06Z</time>
      </trkpt>
      <trkpt lat="42.892" lon="0.1991">
        <ele>2097</ele>
        <time>2022-04-16T10:03:11Z</time>
      </trkpt>
      <trkpt lat="42.89199" lon="0.19912">
        <ele>2097</ele>
        <time>2022-04-16T10:03:15Z</time>
      </trkpt>
      <trkpt lat="42.89197" lon="0.19913">
        <ele>2097</ele>
        <time>2022-04-16T10:03:19Z</time>
      </trkpt>
      <trkpt lat="42.89196" lon="0.19915">
        <ele>2099</ele>
        <time>2022-04-16T10:03:25Z</time>
      </trkpt>
      <trkpt lat="42.89194" lon="0.19916">
        <ele>2101</ele>
        <time>2022-04-16T10:03:34Z</time>
      </trkpt>
      <trkpt lat="42.89193" lon="0.19918">
        <ele>2101</ele>
        <time>2022-04-16T10:03:40Z</time>
      </trkpt>
      <trkpt lat="42.89192" lon="0.19921">
        <ele>2103</ele>
        <time>2022-04-16T10:03:47Z</time>
      </trkpt>
      <trkpt lat="42.89192" lon="0.19924">
        <ele>2104</ele>
        <time>2022-04-16T10:03:51Z</time>
      </trkpt>
      <trkpt lat="42.89192" lon="0.19926">
        <ele>2104</ele>
        <time>2022-04-16T10:03:56Z</time>
      </trkpt>
      <trkpt lat="42.89193" lon="0.19929">
        <ele>2104</ele>
        <time>2022-04-16T10:04:00Z</time>
      </trkpt>
      <trkpt lat="42.89191" lon="0.19931">
        <ele>2107</ele>
        <time>2022-04-16T10:04:11Z</time>
      </trkpt>
      <trkpt lat="42.89189" lon="0.19931">
        <ele>2107</ele>
        <time>2022-04-16T10:05:26Z</time>
      </trkpt>
      <trkpt lat="42.89187" lon="0.19931">
        <ele>2107</ele>
        <time>2022-04-16T10:05:31Z</time>
      </trkpt>
      <trkpt lat="42.89185" lon="0.19932">
        <ele>2107</ele>
        <time>2022-04-16T10:05:35Z</time>
      </trkpt>
      <trkpt lat="42.89184" lon="0.19933">
        <ele>2107</ele>
        <time>2022-04-16T10:05:40Z</time>
      </trkpt>
      <trkpt lat="42.89181" lon="0.19933">
        <ele>2109</ele>
        <time>2022-04-16T10:05:43Z</time>
      </trkpt>
      <trkpt lat="42.8918" lon="0.19934">
        <ele>2109</ele>
        <time>2022-04-16T10:05:46Z</time>
      </trkpt>
      <trkpt lat="42.89178" lon="0.19934">
        <ele>2109</ele>
        <time>2022-04-16T10:05:50Z</time>
      </trkpt>
      <trkpt lat="42.89176" lon="0.19934">
        <ele>2110</ele>
        <time>2022-04-16T10:05:53Z</time>
      </trkpt>
      <trkpt lat="42.89174" lon="0.19934">
        <ele>2110</ele>
        <time>2022-04-16T10:05:57Z</time>
      </trkpt>
      <trkpt lat="42.89172" lon="0.19934">
        <ele>2112</ele>
        <time>2022-04-16T10:06:03Z</time>
      </trkpt>
      <trkpt lat="42.8917" lon="0.19934">
        <ele>2112</ele>
        <time>2022-04-16T10:06:09Z</time>
      </trkpt>
      <trkpt lat="42.89168" lon="0.19934">
        <ele>2113</ele>
        <time>2022-04-16T10:06:16Z</time>
      </trkpt>
      <trkpt lat="42.89166" lon="0.19934">
        <ele>2114</ele>
        <time>2022-04-16T10:06:21Z</time>
      </trkpt>
      <trkpt lat="42.89164" lon="0.19934">
        <ele>2114</ele>
        <time>2022-04-16T10:06:25Z</time>
      </trkpt>
      <trkpt lat="42.89162" lon="0.19933">
        <ele>2114</ele>
        <time>2022-04-16T10:06:29Z</time>
      </trkpt>
      <trkpt lat="42.89161" lon="0.19936">
        <ele>2116</ele>
        <time>2022-04-16T10:06:35Z</time>
      </trkpt>
      <trkpt lat="42.89161" lon="0.19939">
        <ele>2116</ele>
        <time>2022-04-16T10:06:39Z</time>
      </trkpt>
      <trkpt lat="42.89161" lon="0.19941">
        <ele>2118</ele>
        <time>2022-04-16T10:06:43Z</time>
      </trkpt>
      <trkpt lat="42.89163" lon="0.19943">
        <ele>2118</ele>
        <time>2022-04-16T10:06:47Z</time>
      </trkpt>
      <trkpt lat="42.89164" lon="0.19944">
        <ele>2118</ele>
        <time>2022-04-16T10:06:50Z</time>
      </trkpt>
      <trkpt lat="42.89164" lon="0.19947">
        <ele>2119</ele>
        <time>2022-04-16T10:06:55Z</time>
      </trkpt>
      <trkpt lat="42.89164" lon="0.1995">
        <ele>2119</ele>
        <time>2022-04-16T10:06:57Z</time>
      </trkpt>
      <trkpt lat="42.89163" lon="0.19952">
        <ele>2121</ele>
        <time>2022-04-16T10:07:02Z</time>
      </trkpt>
      <trkpt lat="42.89162" lon="0.19955">
        <ele>2121</ele>
        <time>2022-04-16T10:07:06Z</time>
      </trkpt>
      <trkpt lat="42.89161" lon="0.19958">
        <ele>2121</ele>
        <time>2022-04-16T10:07:11Z</time>
      </trkpt>
      <trkpt lat="42.8916" lon="0.1996">
        <ele>2122</ele>
        <time>2022-04-16T10:07:15Z</time>
      </trkpt>
      <trkpt lat="42.89159" lon="0.19962">
        <ele>2124</ele>
        <time>2022-04-16T10:07:28Z</time>
      </trkpt>
      <trkpt lat="42.89158" lon="0.19964">
        <ele>2125</ele>
        <time>2022-04-16T10:07:31Z</time>
      </trkpt>
      <trkpt lat="42.89157" lon="0.19966">
        <ele>2125</ele>
        <time>2022-04-16T10:07:34Z</time>
      </trkpt>
      <trkpt lat="42.89156" lon="0.19969">
        <ele>2125</ele>
        <time>2022-04-16T10:07:37Z</time>
      </trkpt>
      <trkpt lat="42.89155" lon="0.19972">
        <ele>2125</ele>
        <time>2022-04-16T10:07:40Z</time>
      </trkpt>
      <trkpt lat="42.89155" lon="0.19975">
        <ele>2125</ele>
        <time>2022-04-16T10:07:43Z</time>
      </trkpt>
      <trkpt lat="42.89154" lon="0.19978">
        <ele>2125</ele>
        <time>2022-04-16T10:07:47Z</time>
      </trkpt>
      <trkpt lat="42.89153" lon="0.19981">
        <ele>2125</ele>
        <time>2022-04-16T10:07:50Z</time>
      </trkpt>
      <trkpt lat="42.89153" lon="0.19984">
        <ele>2125</ele>
        <time>2022-04-16T10:07:53Z</time>
      </trkpt>
      <trkpt lat="42.89152" lon="0.19986">
        <ele>2125</ele>
        <time>2022-04-16T10:08:00Z</time>
      </trkpt>
      <trkpt lat="42.8915" lon="0.19989">
        <ele>2125</ele>
        <time>2022-04-16T10:08:01Z</time>
      </trkpt>
      <trkpt lat="42.89149" lon="0.19991">
        <ele>2125</ele>
        <time>2022-04-16T10:08:04Z</time>
      </trkpt>
      <trkpt lat="42.89148" lon="0.19993">
        <ele>2125</ele>
        <time>2022-04-16T10:08:07Z</time>
      </trkpt>
      <trkpt lat="42.89147" lon="0.19996">
        <ele>2125</ele>
        <time>2022-04-16T10:08:11Z</time>
      </trkpt>
      <trkpt lat="42.89145" lon="0.19999">
        <ele>2125</ele>
        <time>2022-04-16T10:08:14Z</time>
      </trkpt>
      <trkpt lat="42.89144" lon="0.20001">
        <ele>2125</ele>
        <time>2022-04-16T10:08:16Z</time>
      </trkpt>
      <trkpt lat="42.89143" lon="0.20004">
        <ele>2125</ele>
        <time>2022-04-16T10:08:19Z</time>
      </trkpt>
      <trkpt lat="42.89141" lon="0.20006">
        <ele>2124</ele>
        <time>2022-04-16T10:08:23Z</time>
      </trkpt>
      <trkpt lat="42.89139" lon="0.20008">
        <ele>2124</ele>
        <time>2022-04-16T10:08:25Z</time>
      </trkpt>
      <trkpt lat="42.89137" lon="0.20009">
        <ele>2124</ele>
        <time>2022-04-16T10:08:28Z</time>
      </trkpt>
      <trkpt lat="42.89135" lon="0.2001">
        <ele>2125</ele>
        <time>2022-04-16T10:08:32Z</time>
      </trkpt>
      <trkpt lat="42.89132" lon="0.20011">
        <ele>2125</ele>
        <time>2022-04-16T10:08:34Z</time>
      </trkpt>
      <trkpt lat="42.8913" lon="0.20011">
        <ele>2125</ele>
        <time>2022-04-16T10:08:36Z</time>
      </trkpt>
      <trkpt lat="42.89128" lon="0.20012">
        <ele>2125</ele>
        <time>2022-04-16T10:08:38Z</time>
      </trkpt>
      <trkpt lat="42.89126" lon="0.20014">
        <ele>2125</ele>
        <time>2022-04-16T10:08:42Z</time>
      </trkpt>
      <trkpt lat="42.89127" lon="0.20016">
        <ele>2124</ele>
        <time>2022-04-16T10:08:55Z</time>
      </trkpt>
      <trkpt lat="42.89128" lon="0.20018">
        <ele>2124</ele>
        <time>2022-04-16T10:08:58Z</time>
      </trkpt>
      <trkpt lat="42.8913" lon="0.20019">
        <ele>2125</ele>
        <time>2022-04-16T10:09:01Z</time>
      </trkpt>
      <trkpt lat="42.89133" lon="0.20019">
        <ele>2125</ele>
        <time>2022-04-16T10:09:05Z</time>
      </trkpt>
      <trkpt lat="42.89135" lon="0.2002">
        <ele>2125</ele>
        <time>2022-04-16T10:09:07Z</time>
      </trkpt>
      <trkpt lat="42.89137" lon="0.20021">
        <ele>2125</ele>
        <time>2022-04-16T10:09:11Z</time>
      </trkpt>
      <trkpt lat="42.89139" lon="0.20022">
        <ele>2125</ele>
        <time>2022-04-16T10:09:13Z</time>
      </trkpt>
      <trkpt lat="42.8914" lon="0.20023">
        <ele>2125</ele>
        <time>2022-04-16T10:09:17Z</time>
      </trkpt>
      <trkpt lat="42.89142" lon="0.20024">
        <ele>2125</ele>
        <time>2022-04-16T10:09:20Z</time>
      </trkpt>
      <trkpt lat="42.89144" lon="0.20025">
        <ele>2127</ele>
        <time>2022-04-16T10:09:23Z</time>
      </trkpt>
      <trkpt lat="42.89146" lon="0.20026">
        <ele>2127</ele>
        <time>2022-04-16T10:09:26Z</time>
      </trkpt>
      <trkpt lat="42.89148" lon="0.20027">
        <ele>2127</ele>
        <time>2022-04-16T10:09:29Z</time>
      </trkpt>
      <trkpt lat="42.8915" lon="0.20027">
        <ele>2129</ele>
        <time>2022-04-16T10:09:33Z</time>
      </trkpt>
      <trkpt lat="42.89152" lon="0.20028">
        <ele>2129</ele>
        <time>2022-04-16T10:09:35Z</time>
      </trkpt>
      <trkpt lat="42.89154" lon="0.2003">
        <ele>2129</ele>
        <time>2022-04-16T10:09:40Z</time>
      </trkpt>
      <trkpt lat="42.89155" lon="0.2003">
        <ele>2129</ele>
        <time>2022-04-16T10:09:43Z</time>
      </trkpt>
      <trkpt lat="42.89157" lon="0.20031">
        <ele>2129</ele>
        <time>2022-04-16T10:09:49Z</time>
      </trkpt>
      <trkpt lat="42.89159" lon="0.20033">
        <ele>2131</ele>
        <time>2022-04-16T10:09:53Z</time>
      </trkpt>
      <trkpt lat="42.8916" lon="0.20035">
        <ele>2134</ele>
        <time>2022-04-16T10:10:02Z</time>
      </trkpt>
      <trkpt lat="42.89161" lon="0.20038">
        <ele>2134</ele>
        <time>2022-04-16T10:10:06Z</time>
      </trkpt>
      <trkpt lat="42.89162" lon="0.2004">
        <ele>2134</ele>
        <time>2022-04-16T10:10:08Z</time>
      </trkpt>
      <trkpt lat="42.89162" lon="0.20043">
        <ele>2134</ele>
        <time>2022-04-16T10:10:12Z</time>
      </trkpt>
      <trkpt lat="42.89163" lon="0.20046">
        <ele>2134</ele>
        <time>2022-04-16T10:10:15Z</time>
      </trkpt>
      <trkpt lat="42.89163" lon="0.20049">
        <ele>2134</ele>
        <time>2022-04-16T10:10:17Z</time>
      </trkpt>
      <trkpt lat="42.89164" lon="0.20052">
        <ele>2135</ele>
        <time>2022-04-16T10:10:25Z</time>
      </trkpt>
      <trkpt lat="42.89164" lon="0.20056">
        <ele>2135</ele>
        <time>2022-04-16T10:10:29Z</time>
      </trkpt>
      <trkpt lat="42.89164" lon="0.20058">
        <ele>2135</ele>
        <time>2022-04-16T10:10:30Z</time>
      </trkpt>
      <trkpt lat="42.89164" lon="0.20062">
        <ele>2136</ele>
        <time>2022-04-16T10:10:33Z</time>
      </trkpt>
      <trkpt lat="42.89164" lon="0.20066">
        <ele>2136</ele>
        <time>2022-04-16T10:10:36Z</time>
      </trkpt>
      <trkpt lat="42.89165" lon="0.20069">
        <ele>2136</ele>
        <time>2022-04-16T10:10:39Z</time>
      </trkpt>
      <trkpt lat="42.89165" lon="0.20072">
        <ele>2136</ele>
        <time>2022-04-16T10:10:42Z</time>
      </trkpt>
      <trkpt lat="42.89165" lon="0.20075">
        <ele>2136</ele>
        <time>2022-04-16T10:10:45Z</time>
      </trkpt>
      <trkpt lat="42.89165" lon="0.20078">
        <ele>2136</ele>
        <time>2022-04-16T10:10:46Z</time>
      </trkpt>
      <trkpt lat="42.89166" lon="0.20082">
        <ele>2136</ele>
        <time>2022-04-16T10:10:50Z</time>
      </trkpt>
      <trkpt lat="42.89167" lon="0.20084">
        <ele>2136</ele>
        <time>2022-04-16T10:10:51Z</time>
      </trkpt>
      <trkpt lat="42.89167" lon="0.20087">
        <ele>2136</ele>
        <time>2022-04-16T10:10:53Z</time>
      </trkpt>
      <trkpt lat="42.89168" lon="0.20089">
        <ele>2136</ele>
        <time>2022-04-16T10:10:56Z</time>
      </trkpt>
      <trkpt lat="42.89169" lon="0.20092">
        <ele>2136</ele>
        <time>2022-04-16T10:10:57Z</time>
      </trkpt>
      <trkpt lat="42.89169" lon="0.20095">
        <ele>2136</ele>
        <time>2022-04-16T10:10:59Z</time>
      </trkpt>
      <trkpt lat="42.8917" lon="0.20097">
        <ele>2135</ele>
        <time>2022-04-16T10:11:02Z</time>
      </trkpt>
      <trkpt lat="42.89171" lon="0.201">
        <ele>2135</ele>
        <time>2022-04-16T10:11:04Z</time>
      </trkpt>
      <trkpt lat="42.89172" lon="0.20103">
        <ele>2135</ele>
        <time>2022-04-16T10:11:06Z</time>
      </trkpt>
      <trkpt lat="42.89173" lon="0.20105">
        <ele>2135</ele>
        <time>2022-04-16T10:11:08Z</time>
      </trkpt>
      <trkpt lat="42.89174" lon="0.20107">
        <ele>2135</ele>
        <time>2022-04-16T10:11:10Z</time>
      </trkpt>
      <trkpt lat="42.89175" lon="0.2011">
        <ele>2135</ele>
        <time>2022-04-16T10:11:13Z</time>
      </trkpt>
      <trkpt lat="42.89175" lon="0.20113">
        <ele>2135</ele>
        <time>2022-04-16T10:11:14Z</time>
      </trkpt>
      <trkpt lat="42.89175" lon="0.20115">
        <ele>2135</ele>
        <time>2022-04-16T10:11:16Z</time>
      </trkpt>
      <trkpt lat="42.89174" lon="0.20118">
        <ele>2135</ele>
        <time>2022-04-16T10:11:19Z</time>
      </trkpt>
      <trkpt lat="42.89174" lon="0.20122">
        <ele>2134</ele>
        <time>2022-04-16T10:11:23Z</time>
      </trkpt>
      <trkpt lat="42.89174" lon="0.20124">
        <ele>2134</ele>
        <time>2022-04-16T10:11:26Z</time>
      </trkpt>
      <trkpt lat="42.89173" lon="0.20126">
        <ele>2134</ele>
        <time>2022-04-16T10:11:29Z</time>
      </trkpt>
      <trkpt lat="42.89172" lon="0.20129">
        <ele>2135</ele>
        <time>2022-04-16T10:11:31Z</time>
      </trkpt>
      <trkpt lat="42.89171" lon="0.20132">
        <ele>2135</ele>
        <time>2022-04-16T10:11:34Z</time>
      </trkpt>
      <trkpt lat="42.89169" lon="0.2013">
        <ele>2135</ele>
        <time>2022-04-16T10:11:53Z</time>
      </trkpt>
      <trkpt lat="42.89167" lon="0.20129">
        <ele>2135</ele>
        <time>2022-04-16T10:11:57Z</time>
      </trkpt>
      <trkpt lat="42.89166" lon="0.20128">
        <ele>2135</ele>
        <time>2022-04-16T10:12:00Z</time>
      </trkpt>
      <trkpt lat="42.89164" lon="0.20127">
        <ele>2135</ele>
        <time>2022-04-16T10:12:02Z</time>
      </trkpt>
      <trkpt lat="42.89162" lon="0.20125">
        <ele>2135</ele>
        <time>2022-04-16T10:12:05Z</time>
      </trkpt>
      <trkpt lat="42.89161" lon="0.20123">
        <ele>2135</ele>
        <time>2022-04-16T10:12:08Z</time>
      </trkpt>
      <trkpt lat="42.8916" lon="0.20121">
        <ele>2138</ele>
        <time>2022-04-16T10:12:12Z</time>
      </trkpt>
      <trkpt lat="42.89159" lon="0.20118">
        <ele>2138</ele>
        <time>2022-04-16T10:12:14Z</time>
      </trkpt>
      <trkpt lat="42.89157" lon="0.20118">
        <ele>2138</ele>
        <time>2022-04-16T10:12:19Z</time>
      </trkpt>
      <trkpt lat="42.89155" lon="0.20119">
        <ele>2138</ele>
        <time>2022-04-16T10:12:23Z</time>
      </trkpt>
      <trkpt lat="42.89154" lon="0.20122">
        <ele>2138</ele>
        <time>2022-04-16T10:12:26Z</time>
      </trkpt>
      <trkpt lat="42.89153" lon="0.20125">
        <ele>2141</ele>
        <time>2022-04-16T10:12:49Z</time>
      </trkpt>
      <trkpt lat="42.89152" lon="0.20126">
        <ele>2141</ele>
        <time>2022-04-16T10:12:52Z</time>
      </trkpt>
      <trkpt lat="42.8915" lon="0.20127">
        <ele>2141</ele>
        <time>2022-04-16T10:12:57Z</time>
      </trkpt>
      <trkpt lat="42.89148" lon="0.20126">
        <ele>2141</ele>
        <time>2022-04-16T10:12:59Z</time>
      </trkpt>
      <trkpt lat="42.89147" lon="0.20125">
        <ele>2143</ele>
        <time>2022-04-16T10:13:02Z</time>
      </trkpt>
      <trkpt lat="42.89145" lon="0.20125">
        <ele>2143</ele>
        <time>2022-04-16T10:13:07Z</time>
      </trkpt>
      <trkpt lat="42.89143" lon="0.20125">
        <ele>2145</ele>
        <time>2022-04-16T10:14:39Z</time>
      </trkpt>
      <trkpt lat="42.89141" lon="0.20127">
        <ele>2145</ele>
        <time>2022-04-16T10:14:43Z</time>
      </trkpt>
      <trkpt lat="42.8914" lon="0.2013">
        <ele>2145</ele>
        <time>2022-04-16T10:14:47Z</time>
      </trkpt>
      <trkpt lat="42.89138" lon="0.20132">
        <ele>2145</ele>
        <time>2022-04-16T10:14:50Z</time>
      </trkpt>
      <trkpt lat="42.89138" lon="0.20135">
        <ele>2147</ele>
        <time>2022-04-16T10:14:52Z</time>
      </trkpt>
      <trkpt lat="42.89137" lon="0.20138">
        <ele>2147</ele>
        <time>2022-04-16T10:14:55Z</time>
      </trkpt>
      <trkpt lat="42.89136" lon="0.20141">
        <ele>2147</ele>
        <time>2022-04-16T10:14:58Z</time>
      </trkpt>
      <trkpt lat="42.89135" lon="0.20144">
        <ele>2148</ele>
        <time>2022-04-16T10:15:01Z</time>
      </trkpt>
      <trkpt lat="42.89134" lon="0.20146">
        <ele>2148</ele>
        <time>2022-04-16T10:15:04Z</time>
      </trkpt>
      <trkpt lat="42.89133" lon="0.20149">
        <ele>2148</ele>
        <time>2022-04-16T10:15:06Z</time>
      </trkpt>
      <trkpt lat="42.89132" lon="0.20152">
        <ele>2148</ele>
        <time>2022-04-16T10:15:10Z</time>
      </trkpt>
      <trkpt lat="42.89131" lon="0.20155">
        <ele>2148</ele>
        <time>2022-04-16T10:15:12Z</time>
      </trkpt>
      <trkpt lat="42.8913" lon="0.20158">
        <ele>2148</ele>
        <time>2022-04-16T10:15:15Z</time>
      </trkpt>
      <trkpt lat="42.89129" lon="0.2016">
        <ele>2148</ele>
        <time>2022-04-16T10:15:18Z</time>
      </trkpt>
      <trkpt lat="42.89129" lon="0.20163">
        <ele>2148</ele>
        <time>2022-04-16T10:15:21Z</time>
      </trkpt>
      <trkpt lat="42.89128" lon="0.20166">
        <ele>2148</ele>
        <time>2022-04-16T10:15:24Z</time>
      </trkpt>
      <trkpt lat="42.89127" lon="0.20169">
        <ele>2148</ele>
        <time>2022-04-16T10:15:28Z</time>
      </trkpt>
      <trkpt lat="42.89126" lon="0.20172">
        <ele>2148</ele>
        <time>2022-04-16T10:15:31Z</time>
      </trkpt>
      <trkpt lat="42.89125" lon="0.2017">
        <ele>2149</ele>
        <time>2022-04-16T10:16:18Z</time>
      </trkpt>
      <trkpt lat="42.89122" lon="0.2017">
        <ele>2149</ele>
        <time>2022-04-16T10:16:28Z</time>
      </trkpt>
      <trkpt lat="42.8912" lon="0.20172">
        <ele>2149</ele>
        <time>2022-04-16T10:16:32Z</time>
      </trkpt>
      <trkpt lat="42.89119" lon="0.20175">
        <ele>2149</ele>
        <time>2022-04-16T10:16:34Z</time>
      </trkpt>
      <trkpt lat="42.89118" lon="0.20177">
        <ele>2149</ele>
        <time>2022-04-16T10:16:37Z</time>
      </trkpt>
      <trkpt lat="42.89117" lon="0.2018">
        <ele>2149</ele>
        <time>2022-04-16T10:16:41Z</time>
      </trkpt>
      <trkpt lat="42.89116" lon="0.20182">
        <ele>2150</ele>
        <time>2022-04-16T10:16:44Z</time>
      </trkpt>
      <trkpt lat="42.89115" lon="0.20184">
        <ele>2150</ele>
        <time>2022-04-16T10:16:47Z</time>
      </trkpt>
      <trkpt lat="42.89113" lon="0.20186">
        <ele>2150</ele>
        <time>2022-04-16T10:16:51Z</time>
      </trkpt>
      <trkpt lat="42.89112" lon="0.20188">
        <ele>2150</ele>
        <time>2022-04-16T10:16:53Z</time>
      </trkpt>
      <trkpt lat="42.8911" lon="0.20191">
        <ele>2150</ele>
        <time>2022-04-16T10:16:56Z</time>
      </trkpt>
      <trkpt lat="42.89109" lon="0.20192">
        <ele>2150</ele>
        <time>2022-04-16T10:16:59Z</time>
      </trkpt>
      <trkpt lat="42.89107" lon="0.20194">
        <ele>2154</ele>
        <time>2022-04-16T10:17:03Z</time>
      </trkpt>
      <trkpt lat="42.89105" lon="0.20196">
        <ele>2154</ele>
        <time>2022-04-16T10:17:06Z</time>
      </trkpt>
      <trkpt lat="42.89103" lon="0.20197">
        <ele>2154</ele>
        <time>2022-04-16T10:17:08Z</time>
      </trkpt>
      <trkpt lat="42.89102" lon="0.20199">
        <ele>2155</ele>
        <time>2022-04-16T10:17:11Z</time>
      </trkpt>
      <trkpt lat="42.891" lon="0.20201">
        <ele>2155</ele>
        <time>2022-04-16T10:17:15Z</time>
      </trkpt>
      <trkpt lat="42.89098" lon="0.20202">
        <ele>2155</ele>
        <time>2022-04-16T10:17:17Z</time>
      </trkpt>
      <trkpt lat="42.89096" lon="0.20202">
        <ele>2155</ele>
        <time>2022-04-16T10:17:20Z</time>
      </trkpt>
      <trkpt lat="42.89094" lon="0.20203">
        <ele>2155</ele>
        <time>2022-04-16T10:17:23Z</time>
      </trkpt>
      <trkpt lat="42.89092" lon="0.20204">
        <ele>2155</ele>
        <time>2022-04-16T10:17:28Z</time>
      </trkpt>
      <trkpt lat="42.8909" lon="0.20204">
        <ele>2157</ele>
        <time>2022-04-16T10:17:35Z</time>
      </trkpt>
      <trkpt lat="42.89088" lon="0.20204">
        <ele>2157</ele>
        <time>2022-04-16T10:17:39Z</time>
      </trkpt>
      <trkpt lat="42.89085" lon="0.20203">
        <ele>2157</ele>
        <time>2022-04-16T10:17:41Z</time>
      </trkpt>
      <trkpt lat="42.89084" lon="0.20202">
        <ele>2157</ele>
        <time>2022-04-16T10:17:43Z</time>
      </trkpt>
      <trkpt lat="42.89082" lon="0.20202">
        <ele>2157</ele>
        <time>2022-04-16T10:17:45Z</time>
      </trkpt>
      <trkpt lat="42.8908" lon="0.20201">
        <ele>2157</ele>
        <time>2022-04-16T10:17:46Z</time>
      </trkpt>
      <trkpt lat="42.89078" lon="0.202">
        <ele>2157</ele>
        <time>2022-04-16T10:17:49Z</time>
      </trkpt>
      <trkpt lat="42.89077" lon="0.20203">
        <ele>2158</ele>
        <time>2022-04-16T10:18:24Z</time>
      </trkpt>
      <trkpt lat="42.89077" lon="0.20207">
        <ele>2158</ele>
        <time>2022-04-16T10:18:27Z</time>
      </trkpt>
      <trkpt lat="42.89075" lon="0.20209">
        <ele>2158</ele>
        <time>2022-04-16T10:18:30Z</time>
      </trkpt>
      <trkpt lat="42.89074" lon="0.20212">
        <ele>2159</ele>
        <time>2022-04-16T10:18:33Z</time>
      </trkpt>
      <trkpt lat="42.89072" lon="0.20215">
        <ele>2159</ele>
        <time>2022-04-16T10:18:38Z</time>
      </trkpt>
      <trkpt lat="42.89071" lon="0.20217">
        <ele>2159</ele>
        <time>2022-04-16T10:18:40Z</time>
      </trkpt>
      <trkpt lat="42.8907" lon="0.20219">
        <ele>2159</ele>
        <time>2022-04-16T10:18:44Z</time>
      </trkpt>
      <trkpt lat="42.89068" lon="0.2022">
        <ele>2159</ele>
        <time>2022-04-16T10:18:46Z</time>
      </trkpt>
      <trkpt lat="42.89066" lon="0.20223">
        <ele>2159</ele>
        <time>2022-04-16T10:18:49Z</time>
      </trkpt>
      <trkpt lat="42.89065" lon="0.20224">
        <ele>2159</ele>
        <time>2022-04-16T10:18:52Z</time>
      </trkpt>
      <trkpt lat="42.89063" lon="0.20224">
        <ele>2159</ele>
        <time>2022-04-16T10:18:56Z</time>
      </trkpt>
      <trkpt lat="42.8906" lon="0.20225">
        <ele>2159</ele>
        <time>2022-04-16T10:18:59Z</time>
      </trkpt>
      <trkpt lat="42.89058" lon="0.20226">
        <ele>2162</ele>
        <time>2022-04-16T10:19:02Z</time>
      </trkpt>
      <trkpt lat="42.89056" lon="0.20228">
        <ele>2162</ele>
        <time>2022-04-16T10:19:05Z</time>
      </trkpt>
      <trkpt lat="42.89054" lon="0.20229">
        <ele>2162</ele>
        <time>2022-04-16T10:19:07Z</time>
      </trkpt>
      <trkpt lat="42.89052" lon="0.20231">
        <ele>2162</ele>
        <time>2022-04-16T10:19:10Z</time>
      </trkpt>
      <trkpt lat="42.89056" lon="0.20243">
        <ele>2164</ele>
        <time>2022-04-16T10:20:46Z</time>
      </trkpt>
      <trkpt lat="42.89065" lon="0.20247">
        <ele>2164</ele>
        <time>2022-04-16T10:20:57Z</time>
      </trkpt>
      <trkpt lat="42.89073" lon="0.20255">
        <ele>2166</ele>
        <time>2022-04-16T10:21:14Z</time>
      </trkpt>
      <trkpt lat="42.8907" lon="0.20267">
        <ele>2168</ele>
        <time>2022-04-16T10:21:25Z</time>
      </trkpt>
      <trkpt lat="42.89062" lon="0.20273">
        <ele>2169</ele>
        <time>2022-04-16T10:21:42Z</time>
      </trkpt>
      <trkpt lat="42.89059" lon="0.20276">
        <ele>2169</ele>
        <time>2022-04-16T10:21:45Z</time>
      </trkpt>
      <trkpt lat="42.89059" lon="0.20278">
        <ele>2169</ele>
        <time>2022-04-16T10:21:48Z</time>
      </trkpt>
      <trkpt lat="42.89059" lon="0.20281">
        <ele>2169</ele>
        <time>2022-04-16T10:21:49Z</time>
      </trkpt>
      <trkpt lat="42.89058" lon="0.20284">
        <ele>2169</ele>
        <time>2022-04-16T10:21:52Z</time>
      </trkpt>
      <trkpt lat="42.89057" lon="0.20286">
        <ele>2169</ele>
        <time>2022-04-16T10:21:56Z</time>
      </trkpt>
      <trkpt lat="42.89056" lon="0.20289">
        <ele>2169</ele>
        <time>2022-04-16T10:22:00Z</time>
      </trkpt>
      <trkpt lat="42.89055" lon="0.20291">
        <ele>2168</ele>
        <time>2022-04-16T10:22:03Z</time>
      </trkpt>
      <trkpt lat="42.89054" lon="0.20294">
        <ele>2168</ele>
        <time>2022-04-16T10:22:06Z</time>
      </trkpt>
      <trkpt lat="42.89053" lon="0.20296">
        <ele>2168</ele>
        <time>2022-04-16T10:22:10Z</time>
      </trkpt>
      <trkpt lat="42.89051" lon="0.20298">
        <ele>2168</ele>
        <time>2022-04-16T10:22:13Z</time>
      </trkpt>
      <trkpt lat="42.8905" lon="0.20301">
        <ele>2168</ele>
        <time>2022-04-16T10:22:15Z</time>
      </trkpt>
      <trkpt lat="42.89048" lon="0.20303">
        <ele>2168</ele>
        <time>2022-04-16T10:22:18Z</time>
      </trkpt>
      <trkpt lat="42.89046" lon="0.20303">
        <ele>2170</ele>
        <time>2022-04-16T10:22:21Z</time>
      </trkpt>
      <trkpt lat="42.89044" lon="0.20303">
        <ele>2170</ele>
        <time>2022-04-16T10:22:24Z</time>
      </trkpt>
      <trkpt lat="42.89042" lon="0.20303">
        <ele>2170</ele>
        <time>2022-04-16T10:22:26Z</time>
      </trkpt>
      <trkpt lat="42.89039" lon="0.20303">
        <ele>2170</ele>
        <time>2022-04-16T10:22:27Z</time>
      </trkpt>
      <trkpt lat="42.89037" lon="0.20303">
        <ele>2170</ele>
        <time>2022-04-16T10:22:30Z</time>
      </trkpt>
      <trkpt lat="42.89035" lon="0.20303">
        <ele>2170</ele>
        <time>2022-04-16T10:22:31Z</time>
      </trkpt>
      <trkpt lat="42.89033" lon="0.20305">
        <ele>2170</ele>
        <time>2022-04-16T10:22:34Z</time>
      </trkpt>
      <trkpt lat="42.89031" lon="0.20307">
        <ele>2170</ele>
        <time>2022-04-16T10:22:48Z</time>
      </trkpt>
      <trkpt lat="42.8903" lon="0.2031">
        <ele>2170</ele>
        <time>2022-04-16T10:22:50Z</time>
      </trkpt>
      <trkpt lat="42.89029" lon="0.20312">
        <ele>2170</ele>
        <time>2022-04-16T10:22:53Z</time>
      </trkpt>
      <trkpt lat="42.89027" lon="0.20313">
        <ele>2170</ele>
        <time>2022-04-16T10:22:54Z</time>
      </trkpt>
      <trkpt lat="42.89026" lon="0.20315">
        <ele>2170</ele>
        <time>2022-04-16T10:22:56Z</time>
      </trkpt>
      <trkpt lat="42.89025" lon="0.20319">
        <ele>2170</ele>
        <time>2022-04-16T10:22:59Z</time>
      </trkpt>
      <trkpt lat="42.89024" lon="0.20321">
        <ele>2168</ele>
        <time>2022-04-16T10:23:02Z</time>
      </trkpt>
      <trkpt lat="42.89023" lon="0.20325">
        <ele>2168</ele>
        <time>2022-04-16T10:23:04Z</time>
      </trkpt>
      <trkpt lat="42.89021" lon="0.20325">
        <ele>2167</ele>
        <time>2022-04-16T10:23:26Z</time>
      </trkpt>
      <trkpt lat="42.89019" lon="0.20325">
        <ele>2167</ele>
        <time>2022-04-16T10:23:27Z</time>
      </trkpt>
      <trkpt lat="42.89017" lon="0.20324">
        <ele>2167</ele>
        <time>2022-04-16T10:23:29Z</time>
      </trkpt>
      <trkpt lat="42.89015" lon="0.20324">
        <ele>2168</ele>
        <time>2022-04-16T10:23:31Z</time>
      </trkpt>
      <trkpt lat="42.89012" lon="0.20323">
        <ele>2168</ele>
        <time>2022-04-16T10:23:34Z</time>
      </trkpt>
      <trkpt lat="42.89011" lon="0.20321">
        <ele>2168</ele>
        <time>2022-04-16T10:23:37Z</time>
      </trkpt>
      <trkpt lat="42.89011" lon="0.20317">
        <ele>2168</ele>
        <time>2022-04-16T10:23:40Z</time>
      </trkpt>
      <trkpt lat="42.89012" lon="0.20315">
        <ele>2165</ele>
        <time>2022-04-16T10:23:42Z</time>
      </trkpt>
      <trkpt lat="42.89012" lon="0.20312">
        <ele>2165</ele>
        <time>2022-04-16T10:23:45Z</time>
      </trkpt>
      <trkpt lat="42.89012" lon="0.20309">
        <ele>2165</ele>
        <time>2022-04-16T10:23:48Z</time>
      </trkpt>
      <trkpt lat="42.89011" lon="0.20306">
        <ele>2163</ele>
        <time>2022-04-16T10:23:51Z</time>
      </trkpt>
      <trkpt lat="42.89011" lon="0.20303">
        <ele>2163</ele>
        <time>2022-04-16T10:23:54Z</time>
      </trkpt>
      <trkpt lat="42.89011" lon="0.203">
        <ele>2163</ele>
        <time>2022-04-16T10:23:58Z</time>
      </trkpt>
      <trkpt lat="42.89011" lon="0.20298">
        <ele>2163</ele>
        <time>2022-04-16T10:24:00Z</time>
      </trkpt>
      <trkpt lat="42.89011" lon="0.20294">
        <ele>2160</ele>
        <time>2022-04-16T10:24:03Z</time>
      </trkpt>
      <trkpt lat="42.8901" lon="0.20292">
        <ele>2160</ele>
        <time>2022-04-16T10:24:06Z</time>
      </trkpt>
      <trkpt lat="42.89009" lon="0.2029">
        <ele>2160</ele>
        <time>2022-04-16T10:24:09Z</time>
      </trkpt>
      <trkpt lat="42.89007" lon="0.20292">
        <ele>2157</ele>
        <time>2022-04-16T10:24:12Z</time>
      </trkpt>
      <trkpt lat="42.89005" lon="0.20291">
        <ele>2157</ele>
        <time>2022-04-16T10:24:18Z</time>
      </trkpt>
      <trkpt lat="42.89004" lon="0.20288">
        <ele>2154</ele>
        <time>2022-04-16T10:24:22Z</time>
      </trkpt>
      <trkpt lat="42.89002" lon="0.20289">
        <ele>2154</ele>
        <time>2022-04-16T10:24:25Z</time>
      </trkpt>
      <trkpt lat="42.89" lon="0.2029">
        <ele>2154</ele>
        <time>2022-04-16T10:24:27Z</time>
      </trkpt>
      <trkpt lat="42.88998" lon="0.20291">
        <ele>2154</ele>
        <time>2022-04-16T10:24:30Z</time>
      </trkpt>
      <trkpt lat="42.88996" lon="0.20291">
        <ele>2152</ele>
        <time>2022-04-16T10:24:33Z</time>
      </trkpt>
      <trkpt lat="42.88994" lon="0.20291">
        <ele>2150</ele>
        <time>2022-04-16T10:24:41Z</time>
      </trkpt>
      <trkpt lat="42.88993" lon="0.20289">
        <ele>2150</ele>
        <time>2022-04-16T10:24:45Z</time>
      </trkpt>
      <trkpt lat="42.88991" lon="0.20289">
        <ele>2149</ele>
        <time>2022-04-16T10:24:52Z</time>
      </trkpt>
      <trkpt lat="42.88989" lon="0.2029">
        <ele>2149</ele>
        <time>2022-04-16T10:24:58Z</time>
      </trkpt>
      <trkpt lat="42.88987" lon="0.20292">
        <ele>2146</ele>
        <time>2022-04-16T10:25:02Z</time>
      </trkpt>
      <trkpt lat="42.88986" lon="0.20293">
        <ele>2146</ele>
        <time>2022-04-16T10:25:03Z</time>
      </trkpt>
      <trkpt lat="42.88985" lon="0.20296">
        <ele>2146</ele>
        <time>2022-04-16T10:25:05Z</time>
      </trkpt>
      <trkpt lat="42.88984" lon="0.20298">
        <ele>2146</ele>
        <time>2022-04-16T10:25:07Z</time>
      </trkpt>
      <trkpt lat="42.88983" lon="0.20301">
        <ele>2144</ele>
        <time>2022-04-16T10:25:11Z</time>
      </trkpt>
      <trkpt lat="42.88982" lon="0.20302">
        <ele>2144</ele>
        <time>2022-04-16T10:25:17Z</time>
      </trkpt>
      <trkpt lat="42.88981" lon="0.20305">
        <ele>2144</ele>
        <time>2022-04-16T10:25:19Z</time>
      </trkpt>
      <trkpt lat="42.88981" lon="0.20307">
        <ele>2144</ele>
        <time>2022-04-16T10:25:22Z</time>
      </trkpt>
      <trkpt lat="42.88981" lon="0.2031">
        <ele>2144</ele>
        <time>2022-04-16T10:25:27Z</time>
      </trkpt>
      <trkpt lat="42.8898" lon="0.20312">
        <ele>2145</ele>
        <time>2022-04-16T10:25:32Z</time>
      </trkpt>
      <trkpt lat="42.88979" lon="0.20315">
        <ele>2145</ele>
        <time>2022-04-16T10:25:40Z</time>
      </trkpt>
      <trkpt lat="42.8898" lon="0.20318">
        <ele>2144</ele>
        <time>2022-04-16T10:25:54Z</time>
      </trkpt>
      <trkpt lat="42.8898" lon="0.20321">
        <ele>2141</ele>
        <time>2022-04-16T10:26:13Z</time>
      </trkpt>
      <trkpt lat="42.8898" lon="0.20324">
        <ele>2141</ele>
        <time>2022-04-16T10:26:16Z</time>
      </trkpt>
      <trkpt lat="42.88979" lon="0.20326">
        <ele>2143</ele>
        <time>2022-04-16T10:26:25Z</time>
      </trkpt>
      <trkpt lat="42.88977" lon="0.20327">
        <ele>2142</ele>
        <time>2022-04-16T10:26:31Z</time>
      </trkpt>
      <trkpt lat="42.88976" lon="0.20329">
        <ele>2142</ele>
        <time>2022-04-16T10:26:35Z</time>
      </trkpt>
      <trkpt lat="42.88975" lon="0.20331">
        <ele>2142</ele>
        <time>2022-04-16T10:26:41Z</time>
      </trkpt>
      <trkpt lat="42.88973" lon="0.20334">
        <ele>2141</ele>
        <time>2022-04-16T10:26:44Z</time>
      </trkpt>
      <trkpt lat="42.88972" lon="0.20336">
        <ele>2141</ele>
        <time>2022-04-16T10:26:48Z</time>
      </trkpt>
      <trkpt lat="42.8897" lon="0.20336">
        <ele>2138</ele>
        <time>2022-04-16T10:26:55Z</time>
      </trkpt>
      <trkpt lat="42.88969" lon="0.20338">
        <ele>2138</ele>
        <time>2022-04-16T10:26:58Z</time>
      </trkpt>
      <trkpt lat="42.88969" lon="0.20341">
        <ele>2135</ele>
        <time>2022-04-16T10:27:02Z</time>
      </trkpt>
      <trkpt lat="42.88968" lon="0.20344">
        <ele>2135</ele>
        <time>2022-04-16T10:27:05Z</time>
      </trkpt>
      <trkpt lat="42.88967" lon="0.20347">
        <ele>2135</ele>
        <time>2022-04-16T10:27:08Z</time>
      </trkpt>
      <trkpt lat="42.88966" lon="0.2035">
        <ele>2134</ele>
        <time>2022-04-16T10:27:11Z</time>
      </trkpt>
      <trkpt lat="42.88964" lon="0.20352">
        <ele>2134</ele>
        <time>2022-04-16T10:27:14Z</time>
      </trkpt>
      <trkpt lat="42.88962" lon="0.20353">
        <ele>2134</ele>
        <time>2022-04-16T10:27:17Z</time>
      </trkpt>
      <trkpt lat="42.88961" lon="0.20354">
        <ele>2134</ele>
        <time>2022-04-16T10:27:20Z</time>
      </trkpt>
      <trkpt lat="42.8896" lon="0.20356">
        <ele>2132</ele>
        <time>2022-04-16T10:27:27Z</time>
      </trkpt>
      <trkpt lat="42.88958" lon="0.20357">
        <ele>2132</ele>
        <time>2022-04-16T10:27:31Z</time>
      </trkpt>
      <trkpt lat="42.88956" lon="0.20357">
        <ele>2132</ele>
        <time>2022-04-16T10:27:33Z</time>
      </trkpt>
      <trkpt lat="42.88954" lon="0.20357">
        <ele>2132</ele>
        <time>2022-04-16T10:27:37Z</time>
      </trkpt>
      <trkpt lat="42.88952" lon="0.20356">
        <ele>2130</ele>
        <time>2022-04-16T10:27:49Z</time>
      </trkpt>
      <trkpt lat="42.8895" lon="0.20354">
        <ele>2129</ele>
        <time>2022-04-16T10:27:53Z</time>
      </trkpt>
      <trkpt lat="42.88948" lon="0.20354">
        <ele>2129</ele>
        <time>2022-04-16T10:27:57Z</time>
      </trkpt>
      <trkpt lat="42.88947" lon="0.20353">
        <ele>2128</ele>
        <time>2022-04-16T10:28:01Z</time>
      </trkpt>
      <trkpt lat="42.88945" lon="0.2035">
        <ele>2126</ele>
        <time>2022-04-16T10:28:14Z</time>
      </trkpt>
      <trkpt lat="42.88944" lon="0.20349">
        <ele>2126</ele>
        <time>2022-04-16T10:28:16Z</time>
      </trkpt>
      <trkpt lat="42.88942" lon="0.20347">
        <ele>2126</ele>
        <time>2022-04-16T10:28:18Z</time>
      </trkpt>
      <trkpt lat="42.8894" lon="0.20345">
        <ele>2123</ele>
        <time>2022-04-16T10:28:21Z</time>
      </trkpt>
      <trkpt lat="42.88938" lon="0.20343">
        <ele>2123</ele>
        <time>2022-04-16T10:28:23Z</time>
      </trkpt>
      <trkpt lat="42.88936" lon="0.20344">
        <ele>2119</ele>
        <time>2022-04-16T10:28:31Z</time>
      </trkpt>
      <trkpt lat="42.88934" lon="0.20343">
        <ele>2119</ele>
        <time>2022-04-16T10:28:34Z</time>
      </trkpt>
      <trkpt lat="42.88932" lon="0.20344">
        <ele>2119</ele>
        <time>2022-04-16T10:28:36Z</time>
      </trkpt>
      <trkpt lat="42.88931" lon="0.20343">
        <ele>2119</ele>
        <time>2022-04-16T10:28:38Z</time>
      </trkpt>
      <trkpt lat="42.88929" lon="0.20342">
        <ele>2119</ele>
        <time>2022-04-16T10:28:41Z</time>
      </trkpt>
      <trkpt lat="42.88927" lon="0.20341">
        <ele>2119</ele>
        <time>2022-04-16T10:28:42Z</time>
      </trkpt>
      <trkpt lat="42.88925" lon="0.2034">
        <ele>2119</ele>
        <time>2022-04-16T10:28:45Z</time>
      </trkpt>
      <trkpt lat="42.88923" lon="0.2034">
        <ele>2119</ele>
        <time>2022-04-16T10:28:48Z</time>
      </trkpt>
      <trkpt lat="42.88922" lon="0.20342">
        <ele>2117</ele>
        <time>2022-04-16T10:29:38Z</time>
      </trkpt>
      <trkpt lat="42.88924" lon="0.20355">
        <ele>2116</ele>
        <time>2022-04-16T10:29:57Z</time>
      </trkpt>
      <trkpt lat="42.88933" lon="0.20349">
        <ele>2117</ele>
        <time>2022-04-16T10:30:07Z</time>
      </trkpt>
      <trkpt lat="42.88926" lon="0.20343">
        <ele>2116</ele>
        <time>2022-04-16T10:30:34Z</time>
      </trkpt>
      <trkpt lat="42.88925" lon="0.20343">
        <ele>2116</ele>
        <time>2022-04-16T10:31:04Z</time>
      </trkpt>
      <trkpt lat="42.88923" lon="0.20346">
        <ele>2116</ele>
        <time>2022-04-16T10:31:54Z</time>
      </trkpt>
      <trkpt lat="42.88921" lon="0.20347">
        <ele>2116</ele>
        <time>2022-04-16T10:31:57Z</time>
      </trkpt>
      <trkpt lat="42.88918" lon="0.20349">
        <ele>2116</ele>
        <time>2022-04-16T10:31:59Z</time>
      </trkpt>
      <trkpt lat="42.88917" lon="0.2035">
        <ele>2116</ele>
        <time>2022-04-16T10:32:01Z</time>
      </trkpt>
      <trkpt lat="42.88915" lon="0.20352">
        <ele>2116</ele>
        <time>2022-04-16T10:32:04Z</time>
      </trkpt>
      <trkpt lat="42.88913" lon="0.20353">
        <ele>2116</ele>
        <time>2022-04-16T10:32:06Z</time>
      </trkpt>
      <trkpt lat="42.88912" lon="0.20355">
        <ele>2116</ele>
        <time>2022-04-16T10:32:08Z</time>
      </trkpt>
      <trkpt lat="42.8891" lon="0.20356">
        <ele>2116</ele>
        <time>2022-04-16T10:32:09Z</time>
      </trkpt>
      <trkpt lat="42.88909" lon="0.20358">
        <ele>2116</ele>
        <time>2022-04-16T10:32:11Z</time>
      </trkpt>
      <trkpt lat="42.88907" lon="0.2036">
        <ele>2116</ele>
        <time>2022-04-16T10:32:14Z</time>
      </trkpt>
      <trkpt lat="42.88906" lon="0.20363">
        <ele>2116</ele>
        <time>2022-04-16T10:32:16Z</time>
      </trkpt>
      <trkpt lat="42.88905" lon="0.20365">
        <ele>2116</ele>
        <time>2022-04-16T10:32:18Z</time>
      </trkpt>
      <trkpt lat="42.88904" lon="0.20367">
        <ele>2116</ele>
        <time>2022-04-16T10:32:20Z</time>
      </trkpt>
      <trkpt lat="42.88902" lon="0.2037">
        <ele>2116</ele>
        <time>2022-04-16T10:32:21Z</time>
      </trkpt>
      <trkpt lat="42.889" lon="0.20372">
        <ele>2116</ele>
        <time>2022-04-16T10:32:23Z</time>
      </trkpt>
      <trkpt lat="42.88899" lon="0.20375">
        <ele>2116</ele>
        <time>2022-04-16T10:32:25Z</time>
      </trkpt>
      <trkpt lat="42.88897" lon="0.20377">
        <ele>2116</ele>
        <time>2022-04-16T10:32:27Z</time>
      </trkpt>
      <trkpt lat="42.88896" lon="0.20378">
        <ele>2116</ele>
        <time>2022-04-16T10:32:29Z</time>
      </trkpt>
      <trkpt lat="42.88894" lon="0.2038">
        <ele>2115</ele>
        <time>2022-04-16T10:32:32Z</time>
      </trkpt>
      <trkpt lat="42.88892" lon="0.20381">
        <ele>2115</ele>
        <time>2022-04-16T10:32:34Z</time>
      </trkpt>
      <trkpt lat="42.8889" lon="0.20382">
        <ele>2115</ele>
        <time>2022-04-16T10:32:36Z</time>
      </trkpt>
      <trkpt lat="42.88888" lon="0.20383">
        <ele>2115</ele>
        <time>2022-04-16T10:32:39Z</time>
      </trkpt>
      <trkpt lat="42.88886" lon="0.20383">
        <ele>2115</ele>
        <time>2022-04-16T10:32:42Z</time>
      </trkpt>
      <trkpt lat="42.88883" lon="0.20383">
        <ele>2115</ele>
        <time>2022-04-16T10:32:48Z</time>
      </trkpt>
      <trkpt lat="42.88881" lon="0.20384">
        <ele>2116</ele>
        <time>2022-04-16T10:32:51Z</time>
      </trkpt>
      <trkpt lat="42.88879" lon="0.20385">
        <ele>2116</ele>
        <time>2022-04-16T10:32:54Z</time>
      </trkpt>
      <trkpt lat="42.88877" lon="0.20386">
        <ele>2116</ele>
        <time>2022-04-16T10:32:58Z</time>
      </trkpt>
      <trkpt lat="42.88875" lon="0.20387">
        <ele>2116</ele>
        <time>2022-04-16T10:33:00Z</time>
      </trkpt>
      <trkpt lat="42.88873" lon="0.20388">
        <ele>2117</ele>
        <time>2022-04-16T10:33:02Z</time>
      </trkpt>
      <trkpt lat="42.88871" lon="0.20389">
        <ele>2117</ele>
        <time>2022-04-16T10:33:04Z</time>
      </trkpt>
      <trkpt lat="42.88869" lon="0.2039">
        <ele>2117</ele>
        <time>2022-04-16T10:33:07Z</time>
      </trkpt>
      <trkpt lat="42.88866" lon="0.2039">
        <ele>2117</ele>
        <time>2022-04-16T10:33:10Z</time>
      </trkpt>
      <trkpt lat="42.88863" lon="0.20392">
        <ele>2117</ele>
        <time>2022-04-16T10:33:12Z</time>
      </trkpt>
      <trkpt lat="42.88861" lon="0.20393">
        <ele>2117</ele>
        <time>2022-04-16T10:33:15Z</time>
      </trkpt>
      <trkpt lat="42.88859" lon="0.20394">
        <ele>2117</ele>
        <time>2022-04-16T10:33:17Z</time>
      </trkpt>
      <trkpt lat="42.88857" lon="0.20396">
        <ele>2117</ele>
        <time>2022-04-16T10:33:20Z</time>
      </trkpt>
      <trkpt lat="42.88856" lon="0.20398">
        <ele>2117</ele>
        <time>2022-04-16T10:33:22Z</time>
      </trkpt>
      <trkpt lat="42.88853" lon="0.204">
        <ele>2117</ele>
        <time>2022-04-16T10:33:25Z</time>
      </trkpt>
      <trkpt lat="42.88851" lon="0.20403">
        <ele>2117</ele>
        <time>2022-04-16T10:33:28Z</time>
      </trkpt>
      <trkpt lat="42.88849" lon="0.20405">
        <ele>2117</ele>
        <time>2022-04-16T10:33:30Z</time>
      </trkpt>
      <trkpt lat="42.88847" lon="0.20406">
        <ele>2118</ele>
        <time>2022-04-16T10:33:33Z</time>
      </trkpt>
      <trkpt lat="42.88845" lon="0.20408">
        <ele>2118</ele>
        <time>2022-04-16T10:33:34Z</time>
      </trkpt>
      <trkpt lat="42.88844" lon="0.2041">
        <ele>2118</ele>
        <time>2022-04-16T10:33:36Z</time>
      </trkpt>
      <trkpt lat="42.88842" lon="0.20412">
        <ele>2118</ele>
        <time>2022-04-16T10:33:38Z</time>
      </trkpt>
      <trkpt lat="42.8884" lon="0.20413">
        <ele>2118</ele>
        <time>2022-04-16T10:33:40Z</time>
      </trkpt>
      <trkpt lat="42.88839" lon="0.20415">
        <ele>2117</ele>
        <time>2022-04-16T10:33:42Z</time>
      </trkpt>
      <trkpt lat="42.88836" lon="0.20419">
        <ele>2117</ele>
        <time>2022-04-16T10:33:46Z</time>
      </trkpt>
      <trkpt lat="42.88834" lon="0.2042">
        <ele>2117</ele>
        <time>2022-04-16T10:33:49Z</time>
      </trkpt>
      <trkpt lat="42.88832" lon="0.20422">
        <ele>2116</ele>
        <time>2022-04-16T10:33:51Z</time>
      </trkpt>
      <trkpt lat="42.88826" lon="0.20431">
        <ele>2114</ele>
        <time>2022-04-16T10:34:08Z</time>
      </trkpt>
      <trkpt lat="42.88818" lon="0.20438">
        <ele>2112</ele>
        <time>2022-04-16T10:34:23Z</time>
      </trkpt>
      <trkpt lat="42.88813" lon="0.2045">
        <ele>2112</ele>
        <time>2022-04-16T10:34:31Z</time>
      </trkpt>
      <trkpt lat="42.88805" lon="0.20457">
        <ele>2112</ele>
        <time>2022-04-16T10:34:38Z</time>
      </trkpt>
      <trkpt lat="42.88798" lon="0.20464">
        <ele>2110</ele>
        <time>2022-04-16T10:34:49Z</time>
      </trkpt>
      <trkpt lat="42.88787" lon="0.20469">
        <ele>2113</ele>
        <time>2022-04-16T10:35:04Z</time>
      </trkpt>
      <trkpt lat="42.8878" lon="0.20474">
        <ele>2113</ele>
        <time>2022-04-16T10:35:17Z</time>
      </trkpt>
      <trkpt lat="42.88778" lon="0.20475">
        <ele>2113</ele>
        <time>2022-04-16T10:35:20Z</time>
      </trkpt>
      <trkpt lat="42.88775" lon="0.20475">
        <ele>2114</ele>
        <time>2022-04-16T10:35:23Z</time>
      </trkpt>
      <trkpt lat="42.88773" lon="0.20476">
        <ele>2114</ele>
        <time>2022-04-16T10:35:26Z</time>
      </trkpt>
      <trkpt lat="42.8877" lon="0.20476">
        <ele>2114</ele>
        <time>2022-04-16T10:35:28Z</time>
      </trkpt>
      <trkpt lat="42.88768" lon="0.20477">
        <ele>2114</ele>
        <time>2022-04-16T10:35:31Z</time>
      </trkpt>
      <trkpt lat="42.88766" lon="0.20479">
        <ele>2114</ele>
        <time>2022-04-16T10:35:34Z</time>
      </trkpt>
      <trkpt lat="42.88764" lon="0.20481">
        <ele>2114</ele>
        <time>2022-04-16T10:35:38Z</time>
      </trkpt>
      <trkpt lat="42.88762" lon="0.20481">
        <ele>2114</ele>
        <time>2022-04-16T10:35:41Z</time>
      </trkpt>
      <trkpt lat="42.88759" lon="0.20481">
        <ele>2114</ele>
        <time>2022-04-16T10:35:44Z</time>
      </trkpt>
      <trkpt lat="42.8875" lon="0.20483">
        <ele>2114</ele>
        <time>2022-04-16T10:35:57Z</time>
      </trkpt>
      <trkpt lat="42.8874" lon="0.20484">
        <ele>2110</ele>
        <time>2022-04-16T10:36:09Z</time>
      </trkpt>
      <trkpt lat="42.88735" lon="0.20491">
        <ele>2110</ele>
        <time>2022-04-16T10:36:19Z</time>
      </trkpt>
      <trkpt lat="42.88734" lon="0.20493">
        <ele>2112</ele>
        <time>2022-04-16T10:36:21Z</time>
      </trkpt>
      <trkpt lat="42.88732" lon="0.20495">
        <ele>2112</ele>
        <time>2022-04-16T10:36:24Z</time>
      </trkpt>
      <trkpt lat="42.8873" lon="0.20497">
        <ele>2112</ele>
        <time>2022-04-16T10:36:28Z</time>
      </trkpt>
      <trkpt lat="42.88721" lon="0.205">
        <ele>2113</ele>
        <time>2022-04-16T10:36:40Z</time>
      </trkpt>
      <trkpt lat="42.88709" lon="0.20509">
        <ele>2114</ele>
        <time>2022-04-16T10:37:09Z</time>
      </trkpt>
      <trkpt lat="42.88708" lon="0.20512">
        <ele>2114</ele>
        <time>2022-04-16T10:37:10Z</time>
      </trkpt>
      <trkpt lat="42.88707" lon="0.20515">
        <ele>2113</ele>
        <time>2022-04-16T10:37:13Z</time>
      </trkpt>
      <trkpt lat="42.88706" lon="0.20517">
        <ele>2113</ele>
        <time>2022-04-16T10:37:16Z</time>
      </trkpt>
      <trkpt lat="42.88704" lon="0.20518">
        <ele>2113</ele>
        <time>2022-04-16T10:37:19Z</time>
      </trkpt>
      <trkpt lat="42.88702" lon="0.20519">
        <ele>2114</ele>
        <time>2022-04-16T10:37:21Z</time>
      </trkpt>
      <trkpt lat="42.887" lon="0.20521">
        <ele>2114</ele>
        <time>2022-04-16T10:37:23Z</time>
      </trkpt>
      <trkpt lat="42.88698" lon="0.20522">
        <ele>2114</ele>
        <time>2022-04-16T10:37:26Z</time>
      </trkpt>
      <trkpt lat="42.88696" lon="0.20524">
        <ele>2114</ele>
        <time>2022-04-16T10:37:28Z</time>
      </trkpt>
      <trkpt lat="42.88694" lon="0.20525">
        <ele>2114</ele>
        <time>2022-04-16T10:37:31Z</time>
      </trkpt>
      <trkpt lat="42.88692" lon="0.20527">
        <ele>2114</ele>
        <time>2022-04-16T10:37:34Z</time>
      </trkpt>
      <trkpt lat="42.8869" lon="0.20528">
        <ele>2114</ele>
        <time>2022-04-16T10:37:35Z</time>
      </trkpt>
      <trkpt lat="42.88688" lon="0.20528">
        <ele>2114</ele>
        <time>2022-04-16T10:37:38Z</time>
      </trkpt>
      <trkpt lat="42.88686" lon="0.20529">
        <ele>2114</ele>
        <time>2022-04-16T10:37:40Z</time>
      </trkpt>
      <trkpt lat="42.88684" lon="0.2053">
        <ele>2114</ele>
        <time>2022-04-16T10:37:43Z</time>
      </trkpt>
      <trkpt lat="42.88681" lon="0.2053">
        <ele>2114</ele>
        <time>2022-04-16T10:37:46Z</time>
      </trkpt>
      <trkpt lat="42.88679" lon="0.20531">
        <ele>2114</ele>
        <time>2022-04-16T10:37:48Z</time>
      </trkpt>
      <trkpt lat="42.88677" lon="0.20532">
        <ele>2114</ele>
        <time>2022-04-16T10:37:51Z</time>
      </trkpt>
      <trkpt lat="42.88675" lon="0.20532">
        <ele>2114</ele>
        <time>2022-04-16T10:37:54Z</time>
      </trkpt>
      <trkpt lat="42.88671" lon="0.20533">
        <ele>2114</ele>
        <time>2022-04-16T10:37:57Z</time>
      </trkpt>
      <trkpt lat="42.88669" lon="0.20533">
        <ele>2114</ele>
        <time>2022-04-16T10:38:01Z</time>
      </trkpt>
      <trkpt lat="42.88667" lon="0.20532">
        <ele>2114</ele>
        <time>2022-04-16T10:38:03Z</time>
      </trkpt>
      <trkpt lat="42.88663" lon="0.20525">
        <ele>2113</ele>
        <time>2022-04-16T10:38:13Z</time>
      </trkpt>
      <trkpt lat="42.88658" lon="0.20512">
        <ele>2112</ele>
        <time>2022-04-16T10:38:45Z</time>
      </trkpt>
      <trkpt lat="42.88648" lon="0.20511">
        <ele>2108</ele>
        <time>2022-04-16T10:39:04Z</time>
      </trkpt>
      <trkpt lat="42.88642" lon="0.20501">
        <ele>2109</ele>
        <time>2022-04-16T10:39:27Z</time>
      </trkpt>
      <trkpt lat="42.88633" lon="0.20505">
        <ele>2112</ele>
        <time>2022-04-16T10:39:44Z</time>
      </trkpt>
      <trkpt lat="42.88623" lon="0.20505">
        <ele>2113</ele>
        <time>2022-04-16T10:39:59Z</time>
      </trkpt>
      <trkpt lat="42.88634" lon="0.20508">
        <ele>2115</ele>
        <time>2022-04-16T10:41:03Z</time>
      </trkpt>
      <trkpt lat="42.88624" lon="0.2051">
        <ele>2115</ele>
        <time>2022-04-16T10:41:06Z</time>
      </trkpt>
      <trkpt lat="42.88617" lon="0.20517">
        <ele>2115</ele>
        <time>2022-04-16T10:41:08Z</time>
      </trkpt>
      <trkpt lat="42.88626" lon="0.20521">
        <ele>2115</ele>
        <time>2022-04-16T10:42:28Z</time>
      </trkpt>
      <trkpt lat="42.88614" lon="0.20506">
        <ele>2115</ele>
        <time>2022-04-16T10:42:54Z</time>
      </trkpt>
      <trkpt lat="42.88622" lon="0.20513">
        <ele>2115</ele>
        <time>2022-04-16T10:43:12Z</time>
      </trkpt>
      <trkpt lat="42.88613" lon="0.20512">
        <ele>2115</ele>
        <time>2022-04-16T10:45:01Z</time>
      </trkpt>
      <trkpt lat="42.88622" lon="0.20515">
        <ele>2115</ele>
        <time>2022-04-16T10:45:58Z</time>
      </trkpt>
      <trkpt lat="42.88613" lon="0.20513">
        <ele>2114</ele>
        <time>2022-04-16T10:47:17Z</time>
      </trkpt>
      <trkpt lat="42.88623" lon="0.20514">
        <ele>2114</ele>
        <time>2022-04-16T10:47:52Z</time>
      </trkpt>
      <trkpt lat="42.88614" lon="0.20513">
        <ele>2114</ele>
        <time>2022-04-16T10:48:37Z</time>
      </trkpt>
      <trkpt lat="42.88622" lon="0.20505">
        <ele>2113</ele>
        <time>2022-04-16T10:50:49Z</time>
      </trkpt>
      <trkpt lat="42.88614" lon="0.20514">
        <ele>2114</ele>
        <time>2022-04-16T10:51:33Z</time>
      </trkpt>
      <trkpt lat="42.88624" lon="0.20515">
        <ele>2114</ele>
        <time>2022-04-16T10:53:15Z</time>
      </trkpt>
      <trkpt lat="42.88615" lon="0.20514">
        <ele>2114</ele>
        <time>2022-04-16T10:53:33Z</time>
      </trkpt>
      <trkpt lat="42.88622" lon="0.20522">
        <ele>2113</ele>
        <time>2022-04-16T10:56:10Z</time>
      </trkpt>
      <trkpt lat="42.88619" lon="0.20511">
        <ele>2114</ele>
        <time>2022-04-16T10:56:43Z</time>
      </trkpt>
      <trkpt lat="42.88628" lon="0.20511">
        <ele>2115</ele>
        <time>2022-04-16T10:57:24Z</time>
      </trkpt>
      <trkpt lat="42.8862" lon="0.20516">
        <ele>2114</ele>
        <time>2022-04-16T10:57:59Z</time>
      </trkpt>
      <trkpt lat="42.88609" lon="0.20514">
        <ele>2114</ele>
        <time>2022-04-16T10:59:59Z</time>
      </trkpt>
      <trkpt lat="42.8862" lon="0.20513">
        <ele>2114</ele>
        <time>2022-04-16T11:01:03Z</time>
      </trkpt>
      <trkpt lat="42.88611" lon="0.20516">
        <ele>2114</ele>
        <time>2022-04-16T11:01:31Z</time>
      </trkpt>
      <trkpt lat="42.88619" lon="0.2051">
        <ele>2115</ele>
        <time>2022-04-16T11:03:17Z</time>
      </trkpt>
      <trkpt lat="42.88609" lon="0.20515">
        <ele>2115</ele>
        <time>2022-04-16T11:04:57Z</time>
      </trkpt>
      <trkpt lat="42.88616" lon="0.20504">
        <ele>2115</ele>
        <time>2022-04-16T11:06:14Z</time>
      </trkpt>
      <trkpt lat="42.88608" lon="0.20511">
        <ele>2115</ele>
        <time>2022-04-16T11:06:51Z</time>
      </trkpt>
      <trkpt lat="42.88617" lon="0.20515">
        <ele>2116</ele>
        <time>2022-04-16T11:07:28Z</time>
      </trkpt>
      <trkpt lat="42.88608" lon="0.20514">
        <ele>2114</ele>
        <time>2022-04-16T11:08:25Z</time>
      </trkpt>
      <trkpt lat="42.88617" lon="0.20514">
        <ele>2114</ele>
        <time>2022-04-16T11:09:46Z</time>
      </trkpt>
      <trkpt lat="42.88607" lon="0.20518">
        <ele>2113</ele>
        <time>2022-04-16T11:13:12Z</time>
      </trkpt>
      <trkpt lat="42.88618" lon="0.20512">
        <ele>2112</ele>
        <time>2022-04-16T11:13:53Z</time>
      </trkpt>
      <trkpt lat="42.88609" lon="0.20517">
        <ele>2113</ele>
        <time>2022-04-16T11:14:39Z</time>
      </trkpt>
      <trkpt lat="42.88616" lon="0.20507">
        <ele>2113</ele>
        <time>2022-04-16T11:16:50Z</time>
      </trkpt>
      <trkpt lat="42.88625" lon="0.20509">
        <ele>2114</ele>
        <time>2022-04-16T11:18:16Z</time>
      </trkpt>
      <trkpt lat="42.88633" lon="0.20516">
        <ele>2114</ele>
        <time>2022-04-16T11:18:29Z</time>
      </trkpt>
      <trkpt lat="42.88624" lon="0.20517">
        <ele>2114</ele>
        <time>2022-04-16T11:18:45Z</time>
      </trkpt>
      <trkpt lat="42.88617" lon="0.20509">
        <ele>2114</ele>
        <time>2022-04-16T11:18:59Z</time>
      </trkpt>
      <trkpt lat="42.88628" lon="0.20511">
        <ele>2113</ele>
        <time>2022-04-16T11:20:36Z</time>
      </trkpt>
      <trkpt lat="42.88619" lon="0.20511">
        <ele>2115</ele>
        <time>2022-04-16T11:20:54Z</time>
      </trkpt>
      <trkpt lat="42.88611" lon="0.20507">
        <ele>2115</ele>
        <time>2022-04-16T11:25:05Z</time>
      </trkpt>
      <trkpt lat="42.88619" lon="0.20514">
        <ele>2116</ele>
        <time>2022-04-16T11:28:14Z</time>
      </trkpt>
      <trkpt lat="42.88611" lon="0.20507">
        <ele>2117</ele>
        <time>2022-04-16T11:32:06Z</time>
      </trkpt>
      <trkpt lat="42.88619" lon="0.20512">
        <ele>2120</ele>
        <time>2022-04-16T11:38:05Z</time>
      </trkpt>
      <trkpt lat="42.88612" lon="0.20505">
        <ele>2119</ele>
        <time>2022-04-16T11:38:40Z</time>
      </trkpt>
      <trkpt lat="42.8862" lon="0.20513">
        <ele>2120</ele>
        <time>2022-04-16T11:40:13Z</time>
      </trkpt>
      <trkpt lat="42.88611" lon="0.2051">
        <ele>2120</ele>
        <time>2022-04-16T11:41:05Z</time>
      </trkpt>
      <trkpt lat="42.88609" lon="0.20522">
        <ele>2122</ele>
        <time>2022-04-16T11:47:30Z</time>
      </trkpt>
      <trkpt lat="42.88612" lon="0.2051">
        <ele>2122</ele>
        <time>2022-04-16T11:48:56Z</time>
      </trkpt>
      <trkpt lat="42.88607" lon="0.20523">
        <ele>2123</ele>
        <time>2022-04-16T11:51:22Z</time>
      </trkpt>
      <trkpt lat="42.88618" lon="0.2052">
        <ele>2123</ele>
        <time>2022-04-16T11:51:32Z</time>
      </trkpt>
      <trkpt lat="42.88627" lon="0.20525">
        <ele>2123</ele>
        <time>2022-04-16T11:51:35Z</time>
      </trkpt>
      <trkpt lat="42.88635" lon="0.20514">
        <ele>2123</ele>
        <time>2022-04-16T11:51:48Z</time>
      </trkpt>
      <trkpt lat="42.88626" lon="0.20514">
        <ele>2123</ele>
        <time>2022-04-16T11:51:58Z</time>
      </trkpt>
      <trkpt lat="42.88617" lon="0.20507">
        <ele>2124</ele>
        <time>2022-04-16T11:53:06Z</time>
      </trkpt>
      <trkpt lat="42.88627" lon="0.20511">
        <ele>2124</ele>
        <time>2022-04-16T11:53:14Z</time>
      </trkpt>
      <trkpt lat="42.88618" lon="0.20509">
        <ele>2124</ele>
        <time>2022-04-16T11:54:25Z</time>
      </trkpt>
      <trkpt lat="42.8862" lon="0.20525">
        <ele>2126</ele>
        <time>2022-04-16T11:55:26Z</time>
      </trkpt>
      <trkpt lat="42.88612" lon="0.20532">
        <ele>2125</ele>
        <time>2022-04-16T11:55:45Z</time>
      </trkpt>
      <trkpt lat="42.88613" lon="0.20518">
        <ele>2126</ele>
        <time>2022-04-16T11:55:55Z</time>
      </trkpt>
      <trkpt lat="42.88616" lon="0.20503">
        <ele>2126</ele>
        <time>2022-04-16T11:56:17Z</time>
      </trkpt>
      <trkpt lat="42.88625" lon="0.20509">
        <ele>2126</ele>
        <time>2022-04-16T11:56:30Z</time>
      </trkpt>
      <trkpt lat="42.88634" lon="0.20505">
        <ele>2124</ele>
        <time>2022-04-16T11:56:44Z</time>
      </trkpt>
      <trkpt lat="42.88642" lon="0.20498">
        <ele>2121</ele>
        <time>2022-04-16T11:57:01Z</time>
      </trkpt>
      <trkpt lat="42.88648" lon="0.20487">
        <ele>2119</ele>
        <time>2022-04-16T11:57:11Z</time>
      </trkpt>
      <trkpt lat="42.88655" lon="0.20479">
        <ele>2117</ele>
        <time>2022-04-16T11:57:21Z</time>
      </trkpt>
      <trkpt lat="42.88666" lon="0.20473">
        <ele>2117</ele>
        <time>2022-04-16T11:57:27Z</time>
      </trkpt>
      <trkpt lat="42.88675" lon="0.20467">
        <ele>2115</ele>
        <time>2022-04-16T11:57:37Z</time>
      </trkpt>
      <trkpt lat="42.88686" lon="0.20463">
        <ele>2114</ele>
        <time>2022-04-16T11:57:51Z</time>
      </trkpt>
      <trkpt lat="42.88696" lon="0.20461">
        <ele>2113</ele>
        <time>2022-04-16T11:57:57Z</time>
      </trkpt>
      <trkpt lat="42.88704" lon="0.20454">
        <ele>2111</ele>
        <time>2022-04-16T11:58:09Z</time>
      </trkpt>
      <trkpt lat="42.88713" lon="0.20455">
        <ele>2111</ele>
        <time>2022-04-16T11:58:18Z</time>
      </trkpt>
      <trkpt lat="42.88722" lon="0.20451">
        <ele>2111</ele>
        <time>2022-04-16T11:58:27Z</time>
      </trkpt>
      <trkpt lat="42.88732" lon="0.20448">
        <ele>2110</ele>
        <time>2022-04-16T11:58:38Z</time>
      </trkpt>
      <trkpt lat="42.88739" lon="0.20441">
        <ele>2110</ele>
        <time>2022-04-16T11:58:50Z</time>
      </trkpt>
      <trkpt lat="42.88748" lon="0.20434">
        <ele>2110</ele>
        <time>2022-04-16T11:59:00Z</time>
      </trkpt>
      <trkpt lat="42.88753" lon="0.20423">
        <ele>2109</ele>
        <time>2022-04-16T11:59:08Z</time>
      </trkpt>
      <trkpt lat="42.88762" lon="0.20415">
        <ele>2109</ele>
        <time>2022-04-16T11:59:16Z</time>
      </trkpt>
      <trkpt lat="42.88769" lon="0.20407">
        <ele>2109</ele>
        <time>2022-04-16T11:59:28Z</time>
      </trkpt>
      <trkpt lat="42.88775" lon="0.20397">
        <ele>2109</ele>
        <time>2022-04-16T11:59:37Z</time>
      </trkpt>
      <trkpt lat="42.88783" lon="0.20388">
        <ele>2109</ele>
        <time>2022-04-16T11:59:47Z</time>
      </trkpt>
      <trkpt lat="42.88791" lon="0.20378">
        <ele>2109</ele>
        <time>2022-04-16T11:59:58Z</time>
      </trkpt>
      <trkpt lat="42.888" lon="0.2037">
        <ele>2109</ele>
        <time>2022-04-16T12:00:10Z</time>
      </trkpt>
      <trkpt lat="42.88809" lon="0.20363">
        <ele>2109</ele>
        <time>2022-04-16T12:00:24Z</time>
      </trkpt>
      <trkpt lat="42.88817" lon="0.20353">
        <ele>2110</ele>
        <time>2022-04-16T12:00:36Z</time>
      </trkpt>
      <trkpt lat="42.88828" lon="0.20349">
        <ele>2113</ele>
        <time>2022-04-16T12:00:48Z</time>
      </trkpt>
      <trkpt lat="42.88837" lon="0.20346">
        <ele>2115</ele>
        <time>2022-04-16T12:00:59Z</time>
      </trkpt>
      <trkpt lat="42.88845" lon="0.2034">
        <ele>2115</ele>
        <time>2022-04-16T12:01:07Z</time>
      </trkpt>
      <trkpt lat="42.8885" lon="0.20329">
        <ele>2116</ele>
        <time>2022-04-16T12:01:19Z</time>
      </trkpt>
      <trkpt lat="42.88855" lon="0.20318">
        <ele>2116</ele>
        <time>2022-04-16T12:01:34Z</time>
      </trkpt>
      <trkpt lat="42.88863" lon="0.20311">
        <ele>2116</ele>
        <time>2022-04-16T12:01:43Z</time>
      </trkpt>
      <trkpt lat="42.88869" lon="0.20302">
        <ele>2116</ele>
        <time>2022-04-16T12:01:53Z</time>
      </trkpt>
      <trkpt lat="42.88875" lon="0.20293">
        <ele>2116</ele>
        <time>2022-04-16T12:02:03Z</time>
      </trkpt>
      <trkpt lat="42.8888" lon="0.20282">
        <ele>2116</ele>
        <time>2022-04-16T12:02:11Z</time>
      </trkpt>
      <trkpt lat="42.88882" lon="0.2027">
        <ele>2117</ele>
        <time>2022-04-16T12:02:21Z</time>
      </trkpt>
      <trkpt lat="42.88887" lon="0.20259">
        <ele>2115</ele>
        <time>2022-04-16T12:02:34Z</time>
      </trkpt>
      <trkpt lat="42.88897" lon="0.20259">
        <ele>2115</ele>
        <time>2022-04-16T12:02:43Z</time>
      </trkpt>
      <trkpt lat="42.88905" lon="0.20253">
        <ele>2115</ele>
        <time>2022-04-16T12:02:54Z</time>
      </trkpt>
      <trkpt lat="42.88913" lon="0.20243">
        <ele>2115</ele>
        <time>2022-04-16T12:03:08Z</time>
      </trkpt>
      <trkpt lat="42.88921" lon="0.20236">
        <ele>2116</ele>
        <time>2022-04-16T12:03:21Z</time>
      </trkpt>
      <trkpt lat="42.88923" lon="0.20223">
        <ele>2116</ele>
        <time>2022-04-16T12:03:31Z</time>
      </trkpt>
      <trkpt lat="42.8893" lon="0.20215">
        <ele>2116</ele>
        <time>2022-04-16T12:03:45Z</time>
      </trkpt>
      <trkpt lat="42.88939" lon="0.20211">
        <ele>2116</ele>
        <time>2022-04-16T12:03:56Z</time>
      </trkpt>
      <trkpt lat="42.88945" lon="0.20202">
        <ele>2116</ele>
        <time>2022-04-16T12:04:07Z</time>
      </trkpt>
      <trkpt lat="42.88954" lon="0.20193">
        <ele>2118</ele>
        <time>2022-04-16T12:04:21Z</time>
      </trkpt>
      <trkpt lat="42.8896" lon="0.20184">
        <ele>2118</ele>
        <time>2022-04-16T12:04:38Z</time>
      </trkpt>
      <trkpt lat="42.88967" lon="0.20174">
        <ele>2118</ele>
        <time>2022-04-16T12:04:48Z</time>
      </trkpt>
      <trkpt lat="42.88976" lon="0.20167">
        <ele>2116</ele>
        <time>2022-04-16T12:05:02Z</time>
      </trkpt>
      <trkpt lat="42.88985" lon="0.20164">
        <ele>2116</ele>
        <time>2022-04-16T12:05:10Z</time>
      </trkpt>
      <trkpt lat="42.88993" lon="0.20157">
        <ele>2116</ele>
        <time>2022-04-16T12:05:20Z</time>
      </trkpt>
      <trkpt lat="42.89001" lon="0.2015">
        <ele>2116</ele>
        <time>2022-04-16T12:05:31Z</time>
      </trkpt>
      <trkpt lat="42.89009" lon="0.20142">
        <ele>2117</ele>
        <time>2022-04-16T12:05:44Z</time>
      </trkpt>
      <trkpt lat="42.89019" lon="0.20142">
        <ele>2117</ele>
        <time>2022-04-16T12:05:59Z</time>
      </trkpt>
      <trkpt lat="42.89032" lon="0.20136">
        <ele>2117</ele>
        <time>2022-04-16T12:06:16Z</time>
      </trkpt>
      <trkpt lat="42.89028" lon="0.20124">
        <ele>2117</ele>
        <time>2022-04-16T12:06:49Z</time>
      </trkpt>
      <trkpt lat="42.89035" lon="0.20115">
        <ele>2115</ele>
        <time>2022-04-16T12:07:33Z</time>
      </trkpt>
      <trkpt lat="42.8904" lon="0.20105">
        <ele>2115</ele>
        <time>2022-04-16T12:07:52Z</time>
      </trkpt>
      <trkpt lat="42.89049" lon="0.20106">
        <ele>2115</ele>
        <time>2022-04-16T12:08:12Z</time>
      </trkpt>
      <trkpt lat="42.89051" lon="0.20093">
        <ele>2115</ele>
        <time>2022-04-16T12:08:29Z</time>
      </trkpt>
      <trkpt lat="42.89054" lon="0.2008">
        <ele>2117</ele>
        <time>2022-04-16T12:09:01Z</time>
      </trkpt>
      <trkpt lat="42.89041" lon="0.20076">
        <ele>2115</ele>
        <time>2022-04-16T12:09:44Z</time>
      </trkpt>
      <trkpt lat="42.89051" lon="0.20077">
        <ele>2114</ele>
        <time>2022-04-16T12:10:05Z</time>
      </trkpt>
      <trkpt lat="42.8906" lon="0.20072">
        <ele>2116</ele>
        <time>2022-04-16T12:10:28Z</time>
      </trkpt>
      <trkpt lat="42.89068" lon="0.20066">
        <ele>2118</ele>
        <time>2022-04-16T12:10:40Z</time>
      </trkpt>
      <trkpt lat="42.89073" lon="0.20054">
        <ele>2121</ele>
        <time>2022-04-16T12:11:21Z</time>
      </trkpt>
      <trkpt lat="42.89083" lon="0.20052">
        <ele>2125</ele>
        <time>2022-04-16T12:11:50Z</time>
      </trkpt>
      <trkpt lat="42.8909" lon="0.20043">
        <ele>2126</ele>
        <time>2022-04-16T12:12:10Z</time>
      </trkpt>
      <trkpt lat="42.8908" lon="0.20041">
        <ele>2127</ele>
        <time>2022-04-16T12:12:25Z</time>
      </trkpt>
      <trkpt lat="42.8909" lon="0.2004">
        <ele>2128</ele>
        <time>2022-04-16T12:14:21Z</time>
      </trkpt>
      <trkpt lat="42.89099" lon="0.20035">
        <ele>2129</ele>
        <time>2022-04-16T12:14:35Z</time>
      </trkpt>
      <trkpt lat="42.8911" lon="0.20034">
        <ele>2129</ele>
        <time>2022-04-16T12:14:50Z</time>
      </trkpt>
      <trkpt lat="42.891" lon="0.20032">
        <ele>2128</ele>
        <time>2022-04-16T12:15:02Z</time>
      </trkpt>
      <trkpt lat="42.89108" lon="0.20026">
        <ele>2131</ele>
        <time>2022-04-16T12:15:36Z</time>
      </trkpt>
      <trkpt lat="42.89117" lon="0.2002">
        <ele>2131</ele>
        <time>2022-04-16T12:15:59Z</time>
      </trkpt>
      <trkpt lat="42.89124" lon="0.20011">
        <ele>2132</ele>
        <time>2022-04-16T12:16:15Z</time>
      </trkpt>
      <trkpt lat="42.89134" lon="0.20009">
        <ele>2133</ele>
        <time>2022-04-16T12:16:39Z</time>
      </trkpt>
      <trkpt lat="42.89145" lon="0.20009">
        <ele>2134</ele>
        <time>2022-04-16T12:16:48Z</time>
      </trkpt>
      <trkpt lat="42.89148" lon="0.19997">
        <ele>2133</ele>
        <time>2022-04-16T12:17:01Z</time>
      </trkpt>
      <trkpt lat="42.89149" lon="0.19984">
        <ele>2133</ele>
        <time>2022-04-16T12:17:16Z</time>
      </trkpt>
      <trkpt lat="42.89153" lon="0.19973">
        <ele>2133</ele>
        <time>2022-04-16T12:17:31Z</time>
      </trkpt>
      <trkpt lat="42.89161" lon="0.19966">
        <ele>2133</ele>
        <time>2022-04-16T12:17:41Z</time>
      </trkpt>
      <trkpt lat="42.89172" lon="0.19964">
        <ele>2132</ele>
        <time>2022-04-16T12:20:58Z</time>
      </trkpt>
      <trkpt lat="42.89179" lon="0.19957">
        <ele>2127</ele>
        <time>2022-04-16T12:21:12Z</time>
      </trkpt>
      <trkpt lat="42.89182" lon="0.19943">
        <ele>2124</ele>
        <time>2022-04-16T12:21:28Z</time>
      </trkpt>
      <trkpt lat="42.89191" lon="0.19937">
        <ele>2120</ele>
        <time>2022-04-16T12:21:38Z</time>
      </trkpt>
      <trkpt lat="42.89193" lon="0.19924">
        <ele>2115</ele>
        <time>2022-04-16T12:21:54Z</time>
      </trkpt>
      <trkpt lat="42.89201" lon="0.19916">
        <ele>2111</ele>
        <time>2022-04-16T12:22:08Z</time>
      </trkpt>
      <trkpt lat="42.89205" lon="0.19905">
        <ele>2106</ele>
        <time>2022-04-16T12:22:24Z</time>
      </trkpt>
      <trkpt lat="42.89212" lon="0.19896">
        <ele>2103</ele>
        <time>2022-04-16T12:22:39Z</time>
      </trkpt>
      <trkpt lat="42.89217" lon="0.19885">
        <ele>2101</ele>
        <time>2022-04-16T12:22:50Z</time>
      </trkpt>
      <trkpt lat="42.89222" lon="0.19875">
        <ele>2099</ele>
        <time>2022-04-16T12:22:58Z</time>
      </trkpt>
      <trkpt lat="42.89226" lon="0.19863">
        <ele>2096</ele>
        <time>2022-04-16T12:23:09Z</time>
      </trkpt>
      <trkpt lat="42.89233" lon="0.19854">
        <ele>2096</ele>
        <time>2022-04-16T12:23:20Z</time>
      </trkpt>
      <trkpt lat="42.89239" lon="0.19844">
        <ele>2094</ele>
        <time>2022-04-16T12:23:28Z</time>
      </trkpt>
      <trkpt lat="42.89241" lon="0.19831">
        <ele>2092</ele>
        <time>2022-04-16T12:23:39Z</time>
      </trkpt>
      <trkpt lat="42.8924" lon="0.19818">
        <ele>2089</ele>
        <time>2022-04-16T12:23:49Z</time>
      </trkpt>
      <trkpt lat="42.89244" lon="0.19805">
        <ele>2087</ele>
        <time>2022-04-16T12:24:01Z</time>
      </trkpt>
      <trkpt lat="42.89251" lon="0.19795">
        <ele>2088</ele>
        <time>2022-04-16T12:24:13Z</time>
      </trkpt>
      <trkpt lat="42.89257" lon="0.19784">
        <ele>2088</ele>
        <time>2022-04-16T12:24:24Z</time>
      </trkpt>
      <trkpt lat="42.89265" lon="0.19776">
        <ele>2088</ele>
        <time>2022-04-16T12:24:40Z</time>
      </trkpt>
      <trkpt lat="42.89273" lon="0.19771">
        <ele>2087</ele>
        <time>2022-04-16T12:24:51Z</time>
      </trkpt>
      <trkpt lat="42.8928" lon="0.19762">
        <ele>2084</ele>
        <time>2022-04-16T12:25:06Z</time>
      </trkpt>
      <trkpt lat="42.89287" lon="0.19751">
        <ele>2083</ele>
        <time>2022-04-16T12:25:35Z</time>
      </trkpt>
      <trkpt lat="42.89295" lon="0.19747">
        <ele>2083</ele>
        <time>2022-04-16T12:25:49Z</time>
      </trkpt>
      <trkpt lat="42.89305" lon="0.19746">
        <ele>2079</ele>
        <time>2022-04-16T12:26:11Z</time>
      </trkpt>
      <trkpt lat="42.89314" lon="0.19747">
        <ele>2075</ele>
        <time>2022-04-16T12:26:22Z</time>
      </trkpt>
      <trkpt lat="42.89324" lon="0.19746">
        <ele>2073</ele>
        <time>2022-04-16T12:26:32Z</time>
      </trkpt>
      <trkpt lat="42.89333" lon="0.19742">
        <ele>2069</ele>
        <time>2022-04-16T12:26:43Z</time>
      </trkpt>
      <trkpt lat="42.89342" lon="0.19742">
        <ele>2066</ele>
        <time>2022-04-16T12:26:54Z</time>
      </trkpt>
      <trkpt lat="42.89353" lon="0.19737">
        <ele>2065</ele>
        <time>2022-04-16T12:27:04Z</time>
      </trkpt>
      <trkpt lat="42.89361" lon="0.19731">
        <ele>2064</ele>
        <time>2022-04-16T12:27:11Z</time>
      </trkpt>
      <trkpt lat="42.89368" lon="0.19721">
        <ele>2063</ele>
        <time>2022-04-16T12:27:21Z</time>
      </trkpt>
      <trkpt lat="42.89377" lon="0.19716">
        <ele>2062</ele>
        <time>2022-04-16T12:27:31Z</time>
      </trkpt>
      <trkpt lat="42.89385" lon="0.19713">
        <ele>2061</ele>
        <time>2022-04-16T12:27:45Z</time>
      </trkpt>
      <trkpt lat="42.89394" lon="0.19717">
        <ele>2060</ele>
        <time>2022-04-16T12:27:53Z</time>
      </trkpt>
      <trkpt lat="42.89404" lon="0.19714">
        <ele>2059</ele>
        <time>2022-04-16T12:28:02Z</time>
      </trkpt>
      <trkpt lat="42.89412" lon="0.19719">
        <ele>2059</ele>
        <time>2022-04-16T12:28:14Z</time>
      </trkpt>
      <trkpt lat="42.8942" lon="0.19727">
        <ele>2058</ele>
        <time>2022-04-16T12:28:27Z</time>
      </trkpt>
      <trkpt lat="42.89429" lon="0.1973">
        <ele>2054</ele>
        <time>2022-04-16T12:28:39Z</time>
      </trkpt>
      <trkpt lat="42.89424" lon="0.1972">
        <ele>2052</ele>
        <time>2022-04-16T12:28:59Z</time>
      </trkpt>
      <trkpt lat="42.89425" lon="0.19706">
        <ele>2052</ele>
        <time>2022-04-16T12:30:31Z</time>
      </trkpt>
      <trkpt lat="42.89416" lon="0.19707">
        <ele>2052</ele>
        <time>2022-04-16T12:30:41Z</time>
      </trkpt>
      <trkpt lat="42.89425" lon="0.19715">
        <ele>2052</ele>
        <time>2022-04-16T12:30:46Z</time>
      </trkpt>
      <trkpt lat="42.89423" lon="0.19727">
        <ele>2051</ele>
        <time>2022-04-16T12:31:05Z</time>
      </trkpt>
      <trkpt lat="42.89429" lon="0.19736">
        <ele>2051</ele>
        <time>2022-04-16T12:31:20Z</time>
      </trkpt>
      <trkpt lat="42.89439" lon="0.19742">
        <ele>2053</ele>
        <time>2022-04-16T12:33:29Z</time>
      </trkpt>
      <trkpt lat="42.89442" lon="0.19755">
        <ele>2052</ele>
        <time>2022-04-16T12:33:46Z</time>
      </trkpt>
      <trkpt lat="42.89448" lon="0.19765">
        <ele>2052</ele>
        <time>2022-04-16T12:33:54Z</time>
      </trkpt>
      <trkpt lat="42.89454" lon="0.19775">
        <ele>2048</ele>
        <time>2022-04-16T12:34:14Z</time>
      </trkpt>
      <trkpt lat="42.89462" lon="0.1977">
        <ele>2048</ele>
        <time>2022-04-16T12:34:29Z</time>
      </trkpt>
      <trkpt lat="42.89469" lon="0.19779">
        <ele>2048</ele>
        <time>2022-04-16T12:34:57Z</time>
      </trkpt>
      <trkpt lat="42.89475" lon="0.1979">
        <ele>2047</ele>
        <time>2022-04-16T12:35:11Z</time>
      </trkpt>
      <trkpt lat="42.89479" lon="0.19802">
        <ele>2047</ele>
        <time>2022-04-16T12:35:21Z</time>
      </trkpt>
      <trkpt lat="42.89484" lon="0.19812">
        <ele>2047</ele>
        <time>2022-04-16T12:35:30Z</time>
      </trkpt>
      <trkpt lat="42.89492" lon="0.1982">
        <ele>2048</ele>
        <time>2022-04-16T12:35:46Z</time>
      </trkpt>
      <trkpt lat="42.89501" lon="0.19828">
        <ele>2048</ele>
        <time>2022-04-16T12:35:57Z</time>
      </trkpt>
      <trkpt lat="42.8951" lon="0.19827">
        <ele>2046</ele>
        <time>2022-04-16T12:36:09Z</time>
      </trkpt>
      <trkpt lat="42.89519" lon="0.19835">
        <ele>2047</ele>
        <time>2022-04-16T12:36:22Z</time>
      </trkpt>
      <trkpt lat="42.89528" lon="0.19837">
        <ele>2046</ele>
        <time>2022-04-16T12:36:48Z</time>
      </trkpt>
      <trkpt lat="42.89537" lon="0.19841">
        <ele>2044</ele>
        <time>2022-04-16T12:37:02Z</time>
      </trkpt>
      <trkpt lat="42.89545" lon="0.19846">
        <ele>2045</ele>
        <time>2022-04-16T12:37:26Z</time>
      </trkpt>
      <trkpt lat="42.89554" lon="0.19848">
        <ele>2046</ele>
        <time>2022-04-16T12:37:40Z</time>
      </trkpt>
      <trkpt lat="42.89563" lon="0.19852">
        <ele>2046</ele>
        <time>2022-04-16T12:37:51Z</time>
      </trkpt>
      <trkpt lat="42.89573" lon="0.19854">
        <ele>2045</ele>
        <time>2022-04-16T12:38:05Z</time>
      </trkpt>
      <trkpt lat="42.89582" lon="0.19854">
        <ele>2047</ele>
        <time>2022-04-16T12:38:16Z</time>
      </trkpt>
      <trkpt lat="42.89591" lon="0.19859">
        <ele>2047</ele>
        <time>2022-04-16T12:38:28Z</time>
      </trkpt>
      <trkpt lat="42.89597" lon="0.19869">
        <ele>2046</ele>
        <time>2022-04-16T12:38:50Z</time>
      </trkpt>
      <trkpt lat="42.89605" lon="0.19881">
        <ele>2044</ele>
        <time>2022-04-16T12:39:08Z</time>
      </trkpt>
      <trkpt lat="42.89613" lon="0.19888">
        <ele>2045</ele>
        <time>2022-04-16T12:39:26Z</time>
      </trkpt>
      <trkpt lat="42.89618" lon="0.19899">
        <ele>2045</ele>
        <time>2022-04-16T12:39:41Z</time>
      </trkpt>
      <trkpt lat="42.89623" lon="0.19909">
        <ele>2045</ele>
        <time>2022-04-16T12:39:49Z</time>
      </trkpt>
      <trkpt lat="42.89624" lon="0.19923">
        <ele>2045</ele>
        <time>2022-04-16T12:40:03Z</time>
      </trkpt>
      <trkpt lat="42.8963" lon="0.19933">
        <ele>2046</ele>
        <time>2022-04-16T12:40:23Z</time>
      </trkpt>
      <trkpt lat="42.89636" lon="0.19943">
        <ele>2046</ele>
        <time>2022-04-16T12:40:38Z</time>
      </trkpt>
      <trkpt lat="42.89643" lon="0.19952">
        <ele>2046</ele>
        <time>2022-04-16T12:40:53Z</time>
      </trkpt>
      <trkpt lat="42.89648" lon="0.19967">
        <ele>2046</ele>
        <time>2022-04-16T12:40:59Z</time>
      </trkpt>
      <trkpt lat="42.89642" lon="0.19978">
        <ele>2045</ele>
        <time>2022-04-16T12:41:05Z</time>
      </trkpt>
      <trkpt lat="42.89649" lon="0.1999">
        <ele>2045</ele>
        <time>2022-04-16T12:41:26Z</time>
      </trkpt>
      <trkpt lat="42.89654" lon="0.20001">
        <ele>2045</ele>
        <time>2022-04-16T12:41:35Z</time>
      </trkpt>
      <trkpt lat="42.89663" lon="0.20007">
        <ele>2045</ele>
        <time>2022-04-16T12:41:46Z</time>
      </trkpt>
      <trkpt lat="42.89672" lon="0.20012">
        <ele>2043</ele>
        <time>2022-04-16T12:42:02Z</time>
      </trkpt>
      <trkpt lat="42.89677" lon="0.20001">
        <ele>2043</ele>
        <time>2022-04-16T12:42:10Z</time>
      </trkpt>
      <trkpt lat="42.89686" lon="0.20005">
        <ele>2043</ele>
        <time>2022-04-16T12:42:28Z</time>
      </trkpt>
      <trkpt lat="42.89692" lon="0.20014">
        <ele>2038</ele>
        <time>2022-04-16T12:42:46Z</time>
      </trkpt>
      <trkpt lat="42.897" lon="0.20021">
        <ele>2036</ele>
        <time>2022-04-16T12:43:00Z</time>
      </trkpt>
      <trkpt lat="42.8971" lon="0.20026">
        <ele>2030</ele>
        <time>2022-04-16T12:43:17Z</time>
      </trkpt>
      <trkpt lat="42.89719" lon="0.20027">
        <ele>2027</ele>
        <time>2022-04-16T12:43:27Z</time>
      </trkpt>
      <trkpt lat="42.89728" lon="0.20023">
        <ele>2028</ele>
        <time>2022-04-16T12:43:35Z</time>
      </trkpt>
      <trkpt lat="42.89731" lon="0.20011">
        <ele>2028</ele>
        <time>2022-04-16T12:43:43Z</time>
      </trkpt>
      <trkpt lat="42.8974" lon="0.2001">
        <ele>2027</ele>
        <time>2022-04-16T12:43:55Z</time>
      </trkpt>
      <trkpt lat="42.89749" lon="0.20008">
        <ele>2027</ele>
        <time>2022-04-16T12:44:05Z</time>
      </trkpt>
      <trkpt lat="42.89753" lon="0.20019">
        <ele>2025</ele>
        <time>2022-04-16T12:44:29Z</time>
      </trkpt>
      <trkpt lat="42.8976" lon="0.20029">
        <ele>2023</ele>
        <time>2022-04-16T12:44:40Z</time>
      </trkpt>
      <trkpt lat="42.8977" lon="0.20031">
        <ele>2021</ele>
        <time>2022-04-16T12:44:51Z</time>
      </trkpt>
      <trkpt lat="42.89779" lon="0.20036">
        <ele>2018</ele>
        <time>2022-04-16T12:45:00Z</time>
      </trkpt>
      <trkpt lat="42.89786" lon="0.20044">
        <ele>2014</ele>
        <time>2022-04-16T12:45:14Z</time>
      </trkpt>
      <trkpt lat="42.89795" lon="0.20049">
        <ele>2012</ele>
        <time>2022-04-16T12:45:23Z</time>
      </trkpt>
      <trkpt lat="42.89804" lon="0.20051">
        <ele>2009</ele>
        <time>2022-04-16T12:45:32Z</time>
      </trkpt>
      <trkpt lat="42.89814" lon="0.20057">
        <ele>2007</ele>
        <time>2022-04-16T12:45:41Z</time>
      </trkpt>
      <trkpt lat="42.89825" lon="0.20055">
        <ele>2005</ele>
        <time>2022-04-16T12:45:51Z</time>
      </trkpt>
      <trkpt lat="42.89834" lon="0.20055">
        <ele>2003</ele>
        <time>2022-04-16T12:46:04Z</time>
      </trkpt>
      <trkpt lat="42.8984" lon="0.20064">
        <ele>2000</ele>
        <time>2022-04-16T12:46:15Z</time>
      </trkpt>
      <trkpt lat="42.89849" lon="0.20066">
        <ele>1999</ele>
        <time>2022-04-16T12:46:26Z</time>
      </trkpt>
      <trkpt lat="42.89858" lon="0.20064">
        <ele>1996</ele>
        <time>2022-04-16T12:46:35Z</time>
      </trkpt>
      <trkpt lat="42.89866" lon="0.20071">
        <ele>1994</ele>
        <time>2022-04-16T12:46:50Z</time>
      </trkpt>
      <trkpt lat="42.89874" lon="0.20078">
        <ele>1990</ele>
        <time>2022-04-16T12:47:10Z</time>
      </trkpt>
      <trkpt lat="42.89876" lon="0.20091">
        <ele>1988</ele>
        <time>2022-04-16T12:47:19Z</time>
      </trkpt>
      <trkpt lat="42.89879" lon="0.20105">
        <ele>1983</ele>
        <time>2022-04-16T12:47:32Z</time>
      </trkpt>
      <trkpt lat="42.89879" lon="0.20117">
        <ele>1981</ele>
        <time>2022-04-16T12:47:47Z</time>
      </trkpt>
      <trkpt lat="42.89877" lon="0.2013">
        <ele>1975</ele>
        <time>2022-04-16T12:48:01Z</time>
      </trkpt>
      <trkpt lat="42.89879" lon="0.20143">
        <ele>1974</ele>
        <time>2022-04-16T12:48:11Z</time>
      </trkpt>
      <trkpt lat="42.89882" lon="0.20155">
        <ele>1972</ele>
        <time>2022-04-16T12:48:23Z</time>
      </trkpt>
      <trkpt lat="42.89888" lon="0.20165">
        <ele>1971</ele>
        <time>2022-04-16T12:48:34Z</time>
      </trkpt>
      <trkpt lat="42.89892" lon="0.2018">
        <ele>1970</ele>
        <time>2022-04-16T12:48:42Z</time>
      </trkpt>
      <trkpt lat="42.89896" lon="0.20192">
        <ele>1969</ele>
        <time>2022-04-16T12:48:53Z</time>
      </trkpt>
      <trkpt lat="42.89902" lon="0.20204">
        <ele>1966</ele>
        <time>2022-04-16T12:49:02Z</time>
      </trkpt>
      <trkpt lat="42.89905" lon="0.20216">
        <ele>1966</ele>
        <time>2022-04-16T12:49:09Z</time>
      </trkpt>
      <trkpt lat="42.89907" lon="0.20228">
        <ele>1965</ele>
        <time>2022-04-16T12:49:15Z</time>
      </trkpt>
      <trkpt lat="42.89909" lon="0.20242">
        <ele>1965</ele>
        <time>2022-04-16T12:49:20Z</time>
      </trkpt>
      <trkpt lat="42.89908" lon="0.20254">
        <ele>1964</ele>
        <time>2022-04-16T12:49:37Z</time>
      </trkpt>
      <trkpt lat="42.89915" lon="0.20265">
        <ele>1963</ele>
        <time>2022-04-16T12:49:49Z</time>
      </trkpt>
      <trkpt lat="42.89917" lon="0.20279">
        <ele>1963</ele>
        <time>2022-04-16T12:49:57Z</time>
      </trkpt>
      <trkpt lat="42.89919" lon="0.20291">
        <ele>1960</ele>
        <time>2022-04-16T12:50:05Z</time>
      </trkpt>
      <trkpt lat="42.89925" lon="0.20303">
        <ele>1960</ele>
        <time>2022-04-16T12:50:16Z</time>
      </trkpt>
      <trkpt lat="42.8993" lon="0.20314">
        <ele>1958</ele>
        <time>2022-04-16T12:50:31Z</time>
      </trkpt>
      <trkpt lat="42.89933" lon="0.20326">
        <ele>1956</ele>
        <time>2022-04-16T12:50:41Z</time>
      </trkpt>
      <trkpt lat="42.89936" lon="0.20338">
        <ele>1956</ele>
        <time>2022-04-16T12:50:50Z</time>
      </trkpt>
      <trkpt lat="42.89939" lon="0.2035">
        <ele>1952</ele>
        <time>2022-04-16T12:51:01Z</time>
      </trkpt>
      <trkpt lat="42.89939" lon="0.20363">
        <ele>1952</ele>
        <time>2022-04-16T12:51:10Z</time>
      </trkpt>
      <trkpt lat="42.89946" lon="0.20373">
        <ele>1951</ele>
        <time>2022-04-16T12:51:20Z</time>
      </trkpt>
      <trkpt lat="42.89949" lon="0.20385">
        <ele>1946</ele>
        <time>2022-04-16T12:51:32Z</time>
      </trkpt>
      <trkpt lat="42.89956" lon="0.20394">
        <ele>1945</ele>
        <time>2022-04-16T12:51:44Z</time>
      </trkpt>
      <trkpt lat="42.89959" lon="0.20406">
        <ele>1944</ele>
        <time>2022-04-16T12:51:52Z</time>
      </trkpt>
      <trkpt lat="42.89957" lon="0.20422">
        <ele>1942</ele>
        <time>2022-04-16T12:52:13Z</time>
      </trkpt>
      <trkpt lat="42.89957" lon="0.20425">
        <ele>1942</ele>
        <time>2022-04-16T12:52:15Z</time>
      </trkpt>
      <trkpt lat="42.89958" lon="0.20428">
        <ele>1942</ele>
        <time>2022-04-16T12:52:18Z</time>
      </trkpt>
      <trkpt lat="42.8996" lon="0.20429">
        <ele>1941</ele>
        <time>2022-04-16T12:52:23Z</time>
      </trkpt>
      <trkpt lat="42.89961" lon="0.20432">
        <ele>1941</ele>
        <time>2022-04-16T12:52:24Z</time>
      </trkpt>
      <trkpt lat="42.89963" lon="0.20435">
        <ele>1941</ele>
        <time>2022-04-16T12:52:26Z</time>
      </trkpt>
      <trkpt lat="42.89965" lon="0.20437">
        <ele>1941</ele>
        <time>2022-04-16T12:52:28Z</time>
      </trkpt>
      <trkpt lat="42.89967" lon="0.20439">
        <ele>1941</ele>
        <time>2022-04-16T12:52:30Z</time>
      </trkpt>
      <trkpt lat="42.89968" lon="0.20441">
        <ele>1940</ele>
        <time>2022-04-16T12:52:33Z</time>
      </trkpt>
      <trkpt lat="42.89971" lon="0.20441">
        <ele>1940</ele>
        <time>2022-04-16T12:52:35Z</time>
      </trkpt>
      <trkpt lat="42.89973" lon="0.20441">
        <ele>1940</ele>
        <time>2022-04-16T12:52:37Z</time>
      </trkpt>
      <trkpt lat="42.89975" lon="0.20442">
        <ele>1940</ele>
        <time>2022-04-16T12:52:39Z</time>
      </trkpt>
      <trkpt lat="42.89976" lon="0.20444">
        <ele>1940</ele>
        <time>2022-04-16T12:52:41Z</time>
      </trkpt>
      <trkpt lat="42.89977" lon="0.20448">
        <ele>1936</ele>
        <time>2022-04-16T12:52:43Z</time>
      </trkpt>
      <trkpt lat="42.89978" lon="0.20451">
        <ele>1936</ele>
        <time>2022-04-16T12:52:45Z</time>
      </trkpt>
      <trkpt lat="42.89979" lon="0.20454">
        <ele>1936</ele>
        <time>2022-04-16T12:52:47Z</time>
      </trkpt>
      <trkpt lat="42.8998" lon="0.20455">
        <ele>1936</ele>
        <time>2022-04-16T12:52:49Z</time>
      </trkpt>
      <trkpt lat="42.89982" lon="0.20456">
        <ele>1936</ele>
        <time>2022-04-16T12:52:51Z</time>
      </trkpt>
      <trkpt lat="42.89984" lon="0.20457">
        <ele>1935</ele>
        <time>2022-04-16T12:52:53Z</time>
      </trkpt>
      <trkpt lat="42.89986" lon="0.20458">
        <ele>1935</ele>
        <time>2022-04-16T12:52:55Z</time>
      </trkpt>
      <trkpt lat="42.89988" lon="0.2046">
        <ele>1935</ele>
        <time>2022-04-16T12:52:57Z</time>
      </trkpt>
      <trkpt lat="42.89989" lon="0.20461">
        <ele>1935</ele>
        <time>2022-04-16T12:52:59Z</time>
      </trkpt>
      <trkpt lat="42.89992" lon="0.20462">
        <ele>1935</ele>
        <time>2022-04-16T12:53:01Z</time>
      </trkpt>
      <trkpt lat="42.89994" lon="0.20463">
        <ele>1933</ele>
        <time>2022-04-16T12:53:03Z</time>
      </trkpt>
      <trkpt lat="42.89996" lon="0.20462">
        <ele>1933</ele>
        <time>2022-04-16T12:53:05Z</time>
      </trkpt>
      <trkpt lat="42.89998" lon="0.20461">
        <ele>1933</ele>
        <time>2022-04-16T12:53:08Z</time>
      </trkpt>
      <trkpt lat="42.9" lon="0.2046">
        <ele>1933</ele>
        <time>2022-04-16T12:53:10Z</time>
      </trkpt>
      <trkpt lat="42.90002" lon="0.20458">
        <ele>1930</ele>
        <time>2022-04-16T12:53:11Z</time>
      </trkpt>
      <trkpt lat="42.90004" lon="0.20457">
        <ele>1930</ele>
        <time>2022-04-16T12:53:14Z</time>
      </trkpt>
      <trkpt lat="42.90005" lon="0.20455">
        <ele>1930</ele>
        <time>2022-04-16T12:53:15Z</time>
      </trkpt>
      <trkpt lat="42.90007" lon="0.20455">
        <ele>1930</ele>
        <time>2022-04-16T12:53:17Z</time>
      </trkpt>
      <trkpt lat="42.90009" lon="0.20454">
        <ele>1930</ele>
        <time>2022-04-16T12:53:19Z</time>
      </trkpt>
      <trkpt lat="42.90011" lon="0.20453">
        <ele>1929</ele>
        <time>2022-04-16T12:53:22Z</time>
      </trkpt>
      <trkpt lat="42.90013" lon="0.20452">
        <ele>1929</ele>
        <time>2022-04-16T12:53:24Z</time>
      </trkpt>
      <trkpt lat="42.90015" lon="0.20451">
        <ele>1929</ele>
        <time>2022-04-16T12:53:26Z</time>
      </trkpt>
      <trkpt lat="42.90017" lon="0.2045">
        <ele>1929</ele>
        <time>2022-04-16T12:53:28Z</time>
      </trkpt>
      <trkpt lat="42.90019" lon="0.2045">
        <ele>1929</ele>
        <time>2022-04-16T12:53:31Z</time>
      </trkpt>
      <trkpt lat="42.90021" lon="0.2045">
        <ele>1928</ele>
        <time>2022-04-16T12:53:34Z</time>
      </trkpt>
      <trkpt lat="42.90024" lon="0.2045">
        <ele>1928</ele>
        <time>2022-04-16T12:53:37Z</time>
      </trkpt>
      <trkpt lat="42.90026" lon="0.20451">
        <ele>1928</ele>
        <time>2022-04-16T12:53:40Z</time>
      </trkpt>
      <trkpt lat="42.90028" lon="0.20451">
        <ele>1925</ele>
        <time>2022-04-16T12:53:43Z</time>
      </trkpt>
      <trkpt lat="42.90031" lon="0.20451">
        <ele>1925</ele>
        <time>2022-04-16T12:53:46Z</time>
      </trkpt>
      <trkpt lat="42.90033" lon="0.20451">
        <ele>1925</ele>
        <time>2022-04-16T12:53:49Z</time>
      </trkpt>
      <trkpt lat="42.90035" lon="0.20451">
        <ele>1923</ele>
        <time>2022-04-16T12:53:51Z</time>
      </trkpt>
      <trkpt lat="42.90038" lon="0.20452">
        <ele>1923</ele>
        <time>2022-04-16T12:53:54Z</time>
      </trkpt>
      <trkpt lat="42.90039" lon="0.20454">
        <ele>1923</ele>
        <time>2022-04-16T12:53:59Z</time>
      </trkpt>
      <trkpt lat="42.9004" lon="0.20456">
        <ele>1922</ele>
        <time>2022-04-16T12:54:02Z</time>
      </trkpt>
      <trkpt lat="42.90042" lon="0.20458">
        <ele>1922</ele>
        <time>2022-04-16T12:54:05Z</time>
      </trkpt>
      <trkpt lat="42.90043" lon="0.20461">
        <ele>1922</ele>
        <time>2022-04-16T12:54:08Z</time>
      </trkpt>
      <trkpt lat="42.90044" lon="0.20463">
        <ele>1922</ele>
        <time>2022-04-16T12:54:10Z</time>
      </trkpt>
      <trkpt lat="42.90046" lon="0.20464">
        <ele>1920</ele>
        <time>2022-04-16T12:54:12Z</time>
      </trkpt>
      <trkpt lat="42.90048" lon="0.20466">
        <ele>1920</ele>
        <time>2022-04-16T12:54:15Z</time>
      </trkpt>
      <trkpt lat="42.90049" lon="0.20469">
        <ele>1920</ele>
        <time>2022-04-16T12:54:18Z</time>
      </trkpt>
      <trkpt lat="42.9005" lon="0.20472">
        <ele>1920</ele>
        <time>2022-04-16T12:54:21Z</time>
      </trkpt>
      <trkpt lat="42.90052" lon="0.20474">
        <ele>1920</ele>
        <time>2022-04-16T12:54:24Z</time>
      </trkpt>
      <trkpt lat="42.90057" lon="0.20485">
        <ele>1918</ele>
        <time>2022-04-16T12:54:32Z</time>
      </trkpt>
      <trkpt lat="42.90064" lon="0.20493">
        <ele>1917</ele>
        <time>2022-04-16T12:54:43Z</time>
      </trkpt>
      <trkpt lat="42.90072" lon="0.205">
        <ele>1914</ele>
        <time>2022-04-16T12:54:56Z</time>
      </trkpt>
      <trkpt lat="42.90077" lon="0.20509">
        <ele>1910</ele>
        <time>2022-04-16T12:55:04Z</time>
      </trkpt>
      <trkpt lat="42.90084" lon="0.20519">
        <ele>1909</ele>
        <time>2022-04-16T12:55:17Z</time>
      </trkpt>
      <trkpt lat="42.90083" lon="0.20531">
        <ele>1906</ele>
        <time>2022-04-16T12:55:27Z</time>
      </trkpt>
      <trkpt lat="42.90091" lon="0.20539">
        <ele>1904</ele>
        <time>2022-04-16T12:55:37Z</time>
      </trkpt>
      <trkpt lat="42.90094" lon="0.20552">
        <ele>1898</ele>
        <time>2022-04-16T12:55:51Z</time>
      </trkpt>
      <trkpt lat="42.90099" lon="0.20563">
        <ele>1894</ele>
        <time>2022-04-16T12:56:04Z</time>
      </trkpt>
      <trkpt lat="42.90104" lon="0.20574">
        <ele>1893</ele>
        <time>2022-04-16T12:56:15Z</time>
      </trkpt>
      <trkpt lat="42.90101" lon="0.20586">
        <ele>1890</ele>
        <time>2022-04-16T12:56:23Z</time>
      </trkpt>
      <trkpt lat="42.90104" lon="0.20599">
        <ele>1890</ele>
        <time>2022-04-16T12:56:30Z</time>
      </trkpt>
      <trkpt lat="42.90112" lon="0.20603">
        <ele>1887</ele>
        <time>2022-04-16T12:56:38Z</time>
      </trkpt>
      <trkpt lat="42.90122" lon="0.2061">
        <ele>1886</ele>
        <time>2022-04-16T12:56:46Z</time>
      </trkpt>
      <trkpt lat="42.90129" lon="0.20619">
        <ele>1883</ele>
        <time>2022-04-16T12:56:59Z</time>
      </trkpt>
      <trkpt lat="42.90135" lon="0.2063">
        <ele>1878</ele>
        <time>2022-04-16T12:57:11Z</time>
      </trkpt>
      <trkpt lat="42.90134" lon="0.20643">
        <ele>1878</ele>
        <time>2022-04-16T12:57:20Z</time>
      </trkpt>
      <trkpt lat="42.90137" lon="0.20655">
        <ele>1877</ele>
        <time>2022-04-16T12:57:27Z</time>
      </trkpt>
      <trkpt lat="42.9014" lon="0.20667">
        <ele>1872</ele>
        <time>2022-04-16T12:57:42Z</time>
      </trkpt>
      <trkpt lat="42.90149" lon="0.20676">
        <ele>1872</ele>
        <time>2022-04-16T12:57:46Z</time>
      </trkpt>
      <trkpt lat="42.90157" lon="0.20681">
        <ele>1869</ele>
        <time>2022-04-16T12:57:51Z</time>
      </trkpt>
      <trkpt lat="42.90166" lon="0.20689">
        <ele>1866</ele>
        <time>2022-04-16T12:58:02Z</time>
      </trkpt>
      <trkpt lat="42.90166" lon="0.20702">
        <ele>1865</ele>
        <time>2022-04-16T12:58:14Z</time>
      </trkpt>
      <trkpt lat="42.90163" lon="0.20713">
        <ele>1865</ele>
        <time>2022-04-16T12:58:18Z</time>
      </trkpt>
      <trkpt lat="42.90165" lon="0.20726">
        <ele>1864</ele>
        <time>2022-04-16T12:58:30Z</time>
      </trkpt>
      <trkpt lat="42.90173" lon="0.20734">
        <ele>1859</ele>
        <time>2022-04-16T12:59:00Z</time>
      </trkpt>
      <trkpt lat="42.90182" lon="0.20737">
        <ele>1857</ele>
        <time>2022-04-16T12:59:14Z</time>
      </trkpt>
      <trkpt lat="42.90188" lon="0.20747">
        <ele>1850</ele>
        <time>2022-04-16T12:59:41Z</time>
      </trkpt>
      <trkpt lat="42.90179" lon="0.20753">
        <ele>1850</ele>
        <time>2022-04-16T12:59:51Z</time>
      </trkpt>
      <trkpt lat="42.90169" lon="0.20756">
        <ele>1849</ele>
        <time>2022-04-16T12:59:59Z</time>
      </trkpt>
      <trkpt lat="42.90162" lon="0.20765">
        <ele>1845</ele>
        <time>2022-04-16T13:00:07Z</time>
      </trkpt>
      <trkpt lat="42.90156" lon="0.20775">
        <ele>1844</ele>
        <time>2022-04-16T13:00:14Z</time>
      </trkpt>
      <trkpt lat="42.9015" lon="0.20785">
        <ele>1844</ele>
        <time>2022-04-16T13:00:20Z</time>
      </trkpt>
      <trkpt lat="42.9015" lon="0.20798">
        <ele>1841</ele>
        <time>2022-04-16T13:00:33Z</time>
      </trkpt>
      <trkpt lat="42.9016" lon="0.20797">
        <ele>1838</ele>
        <time>2022-04-16T13:00:44Z</time>
      </trkpt>
      <trkpt lat="42.90169" lon="0.20797">
        <ele>1837</ele>
        <time>2022-04-16T13:00:52Z</time>
      </trkpt>
      <trkpt lat="42.90179" lon="0.20794">
        <ele>1834</ele>
        <time>2022-04-16T13:01:01Z</time>
      </trkpt>
      <trkpt lat="42.90185" lon="0.20803">
        <ele>1833</ele>
        <time>2022-04-16T13:01:14Z</time>
      </trkpt>
      <trkpt lat="42.90195" lon="0.20804">
        <ele>1831</ele>
        <time>2022-04-16T13:01:25Z</time>
      </trkpt>
      <trkpt lat="42.90204" lon="0.208">
        <ele>1829</ele>
        <time>2022-04-16T13:01:37Z</time>
      </trkpt>
      <trkpt lat="42.90213" lon="0.20802">
        <ele>1826</ele>
        <time>2022-04-16T13:01:46Z</time>
      </trkpt>
      <trkpt lat="42.90219" lon="0.20812">
        <ele>1820</ele>
        <time>2022-04-16T13:02:01Z</time>
      </trkpt>
      <trkpt lat="42.90221" lon="0.20826">
        <ele>1817</ele>
        <time>2022-04-16T13:02:25Z</time>
      </trkpt>
      <trkpt lat="42.9022" lon="0.20839">
        <ele>1815</ele>
        <time>2022-04-16T13:02:36Z</time>
      </trkpt>
      <trkpt lat="42.90229" lon="0.20843">
        <ele>1812</ele>
        <time>2022-04-16T13:02:45Z</time>
      </trkpt>
      <trkpt lat="42.90238" lon="0.20841">
        <ele>1810</ele>
        <time>2022-04-16T13:02:55Z</time>
      </trkpt>
      <trkpt lat="42.90247" lon="0.20844">
        <ele>1806</ele>
        <time>2022-04-16T13:03:06Z</time>
      </trkpt>
      <trkpt lat="42.90256" lon="0.20844">
        <ele>1805</ele>
        <time>2022-04-16T13:03:15Z</time>
      </trkpt>
      <trkpt lat="42.90256" lon="0.2083">
        <ele>1797</ele>
        <time>2022-04-16T13:05:14Z</time>
      </trkpt>
      <trkpt lat="42.90264" lon="0.20837">
        <ele>1794</ele>
        <time>2022-04-16T13:05:43Z</time>
      </trkpt>
      <trkpt lat="42.90272" lon="0.20845">
        <ele>1791</ele>
        <time>2022-04-16T13:05:55Z</time>
      </trkpt>
      <trkpt lat="42.90281" lon="0.20851">
        <ele>1788</ele>
        <time>2022-04-16T13:06:10Z</time>
      </trkpt>
      <trkpt lat="42.90287" lon="0.2086">
        <ele>1779</ele>
        <time>2022-04-16T13:06:43Z</time>
      </trkpt>
      <trkpt lat="42.90297" lon="0.20864">
        <ele>1776</ele>
        <time>2022-04-16T13:06:53Z</time>
      </trkpt>
      <trkpt lat="42.90308" lon="0.20866">
        <ele>1773</ele>
        <time>2022-04-16T13:07:03Z</time>
      </trkpt>
      <trkpt lat="42.90316" lon="0.2087">
        <ele>1774</ele>
        <time>2022-04-16T13:07:12Z</time>
      </trkpt>
      <trkpt lat="42.9032" lon="0.20882">
        <ele>1776</ele>
        <time>2022-04-16T13:07:32Z</time>
      </trkpt>
      <trkpt lat="42.90329" lon="0.20882">
        <ele>1776</ele>
        <time>2022-04-16T13:07:48Z</time>
      </trkpt>
      <trkpt lat="42.90339" lon="0.20886">
        <ele>1774</ele>
        <time>2022-04-16T13:08:01Z</time>
      </trkpt>
      <trkpt lat="42.90347" lon="0.20891">
        <ele>1770</ele>
        <time>2022-04-16T13:08:17Z</time>
      </trkpt>
      <trkpt lat="42.90359" lon="0.20899">
        <ele>1769</ele>
        <time>2022-04-16T13:08:24Z</time>
      </trkpt>
      <trkpt lat="42.90361" lon="0.20911">
        <ele>1765</ele>
        <time>2022-04-16T13:08:48Z</time>
      </trkpt>
      <trkpt lat="42.90366" lon="0.20924">
        <ele>1761</ele>
        <time>2022-04-16T13:09:02Z</time>
      </trkpt>
      <trkpt lat="42.90371" lon="0.20936">
        <ele>1759</ele>
        <time>2022-04-16T13:09:15Z</time>
      </trkpt>
      <trkpt lat="42.90379" lon="0.20944">
        <ele>1757</ele>
        <time>2022-04-16T13:09:23Z</time>
      </trkpt>
      <trkpt lat="42.90388" lon="0.20945">
        <ele>1756</ele>
        <time>2022-04-16T13:09:36Z</time>
      </trkpt>
      <trkpt lat="42.90397" lon="0.20947">
        <ele>1755</ele>
        <time>2022-04-16T13:09:45Z</time>
      </trkpt>
      <trkpt lat="42.90407" lon="0.20946">
        <ele>1753</ele>
        <time>2022-04-16T13:09:58Z</time>
      </trkpt>
      <trkpt lat="42.90417" lon="0.20949">
        <ele>1750</ele>
        <time>2022-04-16T13:10:07Z</time>
      </trkpt>
      <trkpt lat="42.90426" lon="0.20953">
        <ele>1750</ele>
        <time>2022-04-16T13:10:16Z</time>
      </trkpt>
      <trkpt lat="42.90437" lon="0.20952">
        <ele>1747</ele>
        <time>2022-04-16T13:10:36Z</time>
      </trkpt>
      <trkpt lat="42.90446" lon="0.20956">
        <ele>1745</ele>
        <time>2022-04-16T13:10:43Z</time>
      </trkpt>
      <trkpt lat="42.90447" lon="0.20969">
        <ele>1744</ele>
        <time>2022-04-16T13:10:57Z</time>
      </trkpt>
      <trkpt lat="42.90456" lon="0.20975">
        <ele>1743</ele>
        <time>2022-04-16T13:11:08Z</time>
      </trkpt>
      <trkpt lat="42.90459" lon="0.20962">
        <ele>1741</ele>
        <time>2022-04-16T13:11:21Z</time>
      </trkpt>
      <trkpt lat="42.90465" lon="0.20952">
        <ele>1736</ele>
        <time>2022-04-16T13:11:41Z</time>
      </trkpt>
      <trkpt lat="42.90474" lon="0.20948">
        <ele>1733</ele>
        <time>2022-04-16T13:11:55Z</time>
      </trkpt>
      <trkpt lat="42.90481" lon="0.20956">
        <ele>1726</ele>
        <time>2022-04-16T13:12:23Z</time>
      </trkpt>
      <trkpt lat="42.90489" lon="0.20962">
        <ele>1724</ele>
        <time>2022-04-16T13:12:32Z</time>
      </trkpt>
      <trkpt lat="42.90498" lon="0.20963">
        <ele>1721</ele>
        <time>2022-04-16T13:12:45Z</time>
      </trkpt>
      <trkpt lat="42.90505" lon="0.20954">
        <ele>1719</ele>
        <time>2022-04-16T13:12:55Z</time>
      </trkpt>
      <trkpt lat="42.90511" lon="0.20945">
        <ele>1717</ele>
        <time>2022-04-16T13:13:06Z</time>
      </trkpt>
      <trkpt lat="42.9052" lon="0.20937">
        <ele>1714</ele>
        <time>2022-04-16T13:13:26Z</time>
      </trkpt>
      <trkpt lat="42.9053" lon="0.20939">
        <ele>1711</ele>
        <time>2022-04-16T13:13:41Z</time>
      </trkpt>
      <trkpt lat="42.90538" lon="0.20933">
        <ele>1709</ele>
        <time>2022-04-16T13:13:58Z</time>
      </trkpt>
      <trkpt lat="42.90544" lon="0.20922">
        <ele>1704</ele>
        <time>2022-04-16T13:14:12Z</time>
      </trkpt>
      <trkpt lat="42.90554" lon="0.20925">
        <ele>1703</ele>
        <time>2022-04-16T13:14:28Z</time>
      </trkpt>
      <trkpt lat="42.90563" lon="0.20924">
        <ele>1700</ele>
        <time>2022-04-16T13:14:38Z</time>
      </trkpt>
      <trkpt lat="42.90573" lon="0.20925">
        <ele>1697</ele>
        <time>2022-04-16T13:14:47Z</time>
      </trkpt>
      <trkpt lat="42.90582" lon="0.20922">
        <ele>1691</ele>
        <time>2022-04-16T13:15:01Z</time>
      </trkpt>
      <trkpt lat="42.90592" lon="0.20922">
        <ele>1689</ele>
        <time>2022-04-16T13:15:11Z</time>
      </trkpt>
      <trkpt lat="42.90578" lon="0.20917">
        <ele>1688</ele>
        <time>2022-04-16T13:15:22Z</time>
      </trkpt>
      <trkpt lat="42.90567" lon="0.20921">
        <ele>1688</ele>
        <time>2022-04-16T13:15:25Z</time>
      </trkpt>
      <trkpt lat="42.90564" lon="0.20935">
        <ele>1686</ele>
        <time>2022-04-16T13:15:37Z</time>
      </trkpt>
      <trkpt lat="42.90556" lon="0.20939">
        <ele>1683</ele>
        <time>2022-04-16T13:15:42Z</time>
      </trkpt>
      <trkpt lat="42.90549" lon="0.2095">
        <ele>1681</ele>
        <time>2022-04-16T13:15:57Z</time>
      </trkpt>
      <trkpt lat="42.90562" lon="0.2096">
        <ele>1676</ele>
        <time>2022-04-16T13:16:12Z</time>
      </trkpt>
      <trkpt lat="42.90553" lon="0.20955">
        <ele>1676</ele>
        <time>2022-04-16T13:16:18Z</time>
      </trkpt>
      <trkpt lat="42.9055" lon="0.20968">
        <ele>1676</ele>
        <time>2022-04-16T13:16:22Z</time>
      </trkpt>
      <trkpt lat="42.90545" lon="0.2098">
        <ele>1676</ele>
        <time>2022-04-16T13:16:30Z</time>
      </trkpt>
      <trkpt lat="42.90542" lon="0.20992">
        <ele>1672</ele>
        <time>2022-04-16T13:16:46Z</time>
      </trkpt>
      <trkpt lat="42.90539" lon="0.21006">
        <ele>1669</ele>
        <time>2022-04-16T13:16:57Z</time>
      </trkpt>
      <trkpt lat="42.90537" lon="0.21019">
        <ele>1667</ele>
        <time>2022-04-16T13:17:10Z</time>
      </trkpt>
      <trkpt lat="42.90545" lon="0.21028">
        <ele>1666</ele>
        <time>2022-04-16T13:17:17Z</time>
      </trkpt>
      <trkpt lat="42.90556" lon="0.21035">
        <ele>1666</ele>
        <time>2022-04-16T13:17:19Z</time>
      </trkpt>
      <trkpt lat="42.90547" lon="0.21039">
        <ele>1663</ele>
        <time>2022-04-16T13:17:27Z</time>
      </trkpt>
      <trkpt lat="42.9054" lon="0.21051">
        <ele>1661</ele>
        <time>2022-04-16T13:17:41Z</time>
      </trkpt>
      <trkpt lat="42.90544" lon="0.21064">
        <ele>1660</ele>
        <time>2022-04-16T13:17:50Z</time>
      </trkpt>
      <trkpt lat="42.90537" lon="0.21073">
        <ele>1657</ele>
        <time>2022-04-16T13:17:59Z</time>
      </trkpt>
      <trkpt lat="42.90532" lon="0.21084">
        <ele>1653</ele>
        <time>2022-04-16T13:18:03Z</time>
      </trkpt>
      <trkpt lat="42.90541" lon="0.2109">
        <ele>1650</ele>
        <time>2022-04-16T13:18:22Z</time>
      </trkpt>
      <trkpt lat="42.9055" lon="0.21091">
        <ele>1650</ele>
        <time>2022-04-16T13:18:29Z</time>
      </trkpt>
      <trkpt lat="42.90559" lon="0.21086">
        <ele>1647</ele>
        <time>2022-04-16T13:18:37Z</time>
      </trkpt>
      <trkpt lat="42.90568" lon="0.21089">
        <ele>1645</ele>
        <time>2022-04-16T13:18:47Z</time>
      </trkpt>
      <trkpt lat="42.90574" lon="0.21098">
        <ele>1643</ele>
        <time>2022-04-16T13:18:58Z</time>
      </trkpt>
      <trkpt lat="42.90584" lon="0.21097">
        <ele>1642</ele>
        <time>2022-04-16T13:19:04Z</time>
      </trkpt>
      <trkpt lat="42.90593" lon="0.211">
        <ele>1640</ele>
        <time>2022-04-16T13:19:11Z</time>
      </trkpt>
      <trkpt lat="42.90602" lon="0.21104">
        <ele>1638</ele>
        <time>2022-04-16T13:19:26Z</time>
      </trkpt>
      <trkpt lat="42.90611" lon="0.21108">
        <ele>1637</ele>
        <time>2022-04-16T13:19:37Z</time>
      </trkpt>
      <trkpt lat="42.90615" lon="0.21119">
        <ele>1631</ele>
        <time>2022-04-16T13:20:12Z</time>
      </trkpt>
      <trkpt lat="42.90624" lon="0.21123">
        <ele>1631</ele>
        <time>2022-04-16T13:20:20Z</time>
      </trkpt>
      <trkpt lat="42.90633" lon="0.21129">
        <ele>1631</ele>
        <time>2022-04-16T13:20:28Z</time>
      </trkpt>
      <trkpt lat="42.90642" lon="0.21128">
        <ele>1629</ele>
        <time>2022-04-16T13:20:33Z</time>
      </trkpt>
      <trkpt lat="42.90652" lon="0.21131">
        <ele>1629</ele>
        <time>2022-04-16T13:20:41Z</time>
      </trkpt>
      <trkpt lat="42.90661" lon="0.21135">
        <ele>1627</ele>
        <time>2022-04-16T13:20:50Z</time>
      </trkpt>
      <trkpt lat="42.90669" lon="0.2114">
        <ele>1625</ele>
        <time>2022-04-16T13:20:56Z</time>
      </trkpt>
      <trkpt lat="42.90678" lon="0.21143">
        <ele>1622</ele>
        <time>2022-04-16T13:21:01Z</time>
      </trkpt>
      <trkpt lat="42.90687" lon="0.21143">
        <ele>1622</ele>
        <time>2022-04-16T13:21:07Z</time>
      </trkpt>
      <trkpt lat="42.90695" lon="0.21135">
        <ele>1621</ele>
        <time>2022-04-16T13:21:16Z</time>
      </trkpt>
      <trkpt lat="42.90704" lon="0.21138">
        <ele>1620</ele>
        <time>2022-04-16T13:21:22Z</time>
      </trkpt>
      <trkpt lat="42.90698" lon="0.21129">
        <ele>1619</ele>
        <time>2022-04-16T13:21:32Z</time>
      </trkpt>
      <trkpt lat="42.90705" lon="0.21143">
        <ele>1616</ele>
        <time>2022-04-16T13:21:44Z</time>
      </trkpt>
      <trkpt lat="42.90712" lon="0.21151">
        <ele>1614</ele>
        <time>2022-04-16T13:21:53Z</time>
      </trkpt>
      <trkpt lat="42.90718" lon="0.21163">
        <ele>1611</ele>
        <time>2022-04-16T13:22:06Z</time>
      </trkpt>
      <trkpt lat="42.90724" lon="0.21173">
        <ele>1610</ele>
        <time>2022-04-16T13:22:14Z</time>
      </trkpt>
      <trkpt lat="42.90724" lon="0.21186">
        <ele>1610</ele>
        <time>2022-04-16T13:22:25Z</time>
      </trkpt>
      <trkpt lat="42.90727" lon="0.21197">
        <ele>1609</ele>
        <time>2022-04-16T13:22:34Z</time>
      </trkpt>
      <trkpt lat="42.90737" lon="0.21201">
        <ele>1608</ele>
        <time>2022-04-16T13:22:43Z</time>
      </trkpt>
      <trkpt lat="42.90744" lon="0.2121">
        <ele>1608</ele>
        <time>2022-04-16T13:22:52Z</time>
      </trkpt>
      <trkpt lat="42.90749" lon="0.21221">
        <ele>1608</ele>
        <time>2022-04-16T13:23:00Z</time>
      </trkpt>
      <trkpt lat="42.90752" lon="0.21233">
        <ele>1607</ele>
        <time>2022-04-16T13:23:08Z</time>
      </trkpt>
      <trkpt lat="42.9075" lon="0.21251">
        <ele>1605</ele>
        <time>2022-04-16T13:23:16Z</time>
      </trkpt>
      <trkpt lat="42.9075" lon="0.21264">
        <ele>1604</ele>
        <time>2022-04-16T13:23:24Z</time>
      </trkpt>
      <trkpt lat="42.90755" lon="0.21277">
        <ele>1604</ele>
        <time>2022-04-16T13:23:36Z</time>
      </trkpt>
      <trkpt lat="42.90763" lon="0.21281">
        <ele>1603</ele>
        <time>2022-04-16T13:23:46Z</time>
      </trkpt>
      <trkpt lat="42.90772" lon="0.21287">
        <ele>1603</ele>
        <time>2022-04-16T13:23:57Z</time>
      </trkpt>
      <trkpt lat="42.90778" lon="0.21297">
        <ele>1601</ele>
        <time>2022-04-16T13:24:05Z</time>
      </trkpt>
      <trkpt lat="42.90786" lon="0.21304">
        <ele>1600</ele>
        <time>2022-04-16T13:24:13Z</time>
      </trkpt>
      <trkpt lat="42.90794" lon="0.21313">
        <ele>1600</ele>
        <time>2022-04-16T13:24:24Z</time>
      </trkpt>
      <trkpt lat="42.90803" lon="0.21317">
        <ele>1600</ele>
        <time>2022-04-16T13:24:37Z</time>
      </trkpt>
      <trkpt lat="42.90812" lon="0.21317">
        <ele>1600</ele>
        <time>2022-04-16T13:24:41Z</time>
      </trkpt>
      <trkpt lat="42.90819" lon="0.21326">
        <ele>1600</ele>
        <time>2022-04-16T13:24:48Z</time>
      </trkpt>
      <trkpt lat="42.90826" lon="0.21335">
        <ele>1600</ele>
        <time>2022-04-16T13:24:57Z</time>
      </trkpt>
      <trkpt lat="42.90834" lon="0.21343">
        <ele>1597</ele>
        <time>2022-04-16T13:25:06Z</time>
      </trkpt>
      <trkpt lat="42.9084" lon="0.21353">
        <ele>1597</ele>
        <time>2022-04-16T13:25:14Z</time>
      </trkpt>
      <trkpt lat="42.90848" lon="0.21359">
        <ele>1596</ele>
        <time>2022-04-16T13:25:22Z</time>
      </trkpt>
      <trkpt lat="42.90856" lon="0.21367">
        <ele>1596</ele>
        <time>2022-04-16T13:25:29Z</time>
      </trkpt>
      <trkpt lat="42.90859" lon="0.21381">
        <ele>1595</ele>
        <time>2022-04-16T13:25:38Z</time>
      </trkpt>
      <trkpt lat="42.90865" lon="0.2139">
        <ele>1594</ele>
        <time>2022-04-16T13:25:48Z</time>
      </trkpt>
      <trkpt lat="42.90875" lon="0.21394">
        <ele>1592</ele>
        <time>2022-04-16T13:25:56Z</time>
      </trkpt>
      <trkpt lat="42.90884" lon="0.21399">
        <ele>1591</ele>
        <time>2022-04-16T13:26:08Z</time>
      </trkpt>
      <trkpt lat="42.90892" lon="0.21407">
        <ele>1591</ele>
        <time>2022-04-16T13:26:18Z</time>
      </trkpt>
      <trkpt lat="42.90898" lon="0.21417">
        <ele>1590</ele>
        <time>2022-04-16T13:26:27Z</time>
      </trkpt>
      <trkpt lat="42.90903" lon="0.21427">
        <ele>1589</ele>
        <time>2022-04-16T13:26:37Z</time>
      </trkpt>
      <trkpt lat="42.90911" lon="0.21433">
        <ele>1588</ele>
        <time>2022-04-16T13:26:46Z</time>
      </trkpt>
      <trkpt lat="42.90919" lon="0.21441">
        <ele>1588</ele>
        <time>2022-04-16T13:26:58Z</time>
      </trkpt>
      <trkpt lat="42.90927" lon="0.21447">
        <ele>1588</ele>
        <time>2022-04-16T13:27:08Z</time>
      </trkpt>
      <trkpt lat="42.90936" lon="0.21451">
        <ele>1588</ele>
        <time>2022-04-16T13:27:16Z</time>
      </trkpt>
      <trkpt lat="42.90946" lon="0.21456">
        <ele>1587</ele>
        <time>2022-04-16T13:27:27Z</time>
      </trkpt>
      <trkpt lat="42.90954" lon="0.2146">
        <ele>1585</ele>
        <time>2022-04-16T13:27:35Z</time>
      </trkpt>
      <trkpt lat="42.90963" lon="0.21469">
        <ele>1583</ele>
        <time>2022-04-16T13:27:46Z</time>
      </trkpt>
      <trkpt lat="42.90971" lon="0.21476">
        <ele>1582</ele>
        <time>2022-04-16T13:27:52Z</time>
      </trkpt>
      <trkpt lat="42.90979" lon="0.21482">
        <ele>1579</ele>
        <time>2022-04-16T13:28:01Z</time>
      </trkpt>
      <trkpt lat="42.90987" lon="0.21489">
        <ele>1579</ele>
        <time>2022-04-16T13:28:09Z</time>
      </trkpt>
      <trkpt lat="42.90995" lon="0.21494">
        <ele>1578</ele>
        <time>2022-04-16T13:28:19Z</time>
      </trkpt>
      <trkpt lat="42.91004" lon="0.21499">
        <ele>1577</ele>
        <time>2022-04-16T13:28:26Z</time>
      </trkpt>
      <trkpt lat="42.9101" lon="0.2151">
        <ele>1577</ele>
        <time>2022-04-16T13:28:37Z</time>
      </trkpt>
      <trkpt lat="42.91021" lon="0.21514">
        <ele>1577</ele>
        <time>2022-04-16T13:28:48Z</time>
      </trkpt>
      <trkpt lat="42.91025" lon="0.21526">
        <ele>1575</ele>
        <time>2022-04-16T13:28:57Z</time>
      </trkpt>
      <trkpt lat="42.91036" lon="0.2153">
        <ele>1572</ele>
        <time>2022-04-16T13:29:12Z</time>
      </trkpt>
      <trkpt lat="42.91045" lon="0.21533">
        <ele>1571</ele>
        <time>2022-04-16T13:29:22Z</time>
      </trkpt>
      <trkpt lat="42.91054" lon="0.21539">
        <ele>1571</ele>
        <time>2022-04-16T13:29:30Z</time>
      </trkpt>
      <trkpt lat="42.91062" lon="0.21534">
        <ele>1569</ele>
        <time>2022-04-16T13:29:43Z</time>
      </trkpt>
      <trkpt lat="42.91072" lon="0.21534">
        <ele>1568</ele>
        <time>2022-04-16T13:29:51Z</time>
      </trkpt>
      <trkpt lat="42.91082" lon="0.21529">
        <ele>1566</ele>
        <time>2022-04-16T13:30:04Z</time>
      </trkpt>
      <trkpt lat="42.91083" lon="0.21516">
        <ele>1567</ele>
        <time>2022-04-16T13:30:13Z</time>
      </trkpt>
      <trkpt lat="42.91089" lon="0.21505">
        <ele>1568</ele>
        <time>2022-04-16T13:30:23Z</time>
      </trkpt>
      <trkpt lat="42.91093" lon="0.21492">
        <ele>1571</ele>
        <time>2022-04-16T13:30:42Z</time>
      </trkpt>
      <trkpt lat="42.91102" lon="0.21486">
        <ele>1573</ele>
        <time>2022-04-16T13:30:58Z</time>
      </trkpt>
      <trkpt lat="42.91113" lon="0.2148">
        <ele>1573</ele>
        <time>2022-04-16T13:31:10Z</time>
      </trkpt>
      <trkpt lat="42.91121" lon="0.21472">
        <ele>1574</ele>
        <time>2022-04-16T13:31:26Z</time>
      </trkpt>
      <trkpt lat="42.91129" lon="0.21476">
        <ele>1574</ele>
        <time>2022-04-16T13:31:33Z</time>
      </trkpt>
      <trkpt lat="42.91137" lon="0.21485">
        <ele>1573</ele>
        <time>2022-04-16T13:31:45Z</time>
      </trkpt>
      <trkpt lat="42.91139" lon="0.21497">
        <ele>1571</ele>
        <time>2022-04-16T13:31:54Z</time>
      </trkpt>
      <trkpt lat="42.91147" lon="0.21507">
        <ele>1570</ele>
        <time>2022-04-16T13:32:05Z</time>
      </trkpt>
      <trkpt lat="42.91156" lon="0.2151">
        <ele>1570</ele>
        <time>2022-04-16T13:32:10Z</time>
      </trkpt>
      <trkpt lat="42.91163" lon="0.21518">
        <ele>1569</ele>
        <time>2022-04-16T13:32:19Z</time>
      </trkpt>
      <trkpt lat="42.9117" lon="0.2153">
        <ele>1569</ele>
        <time>2022-04-16T13:32:30Z</time>
      </trkpt>
      <trkpt lat="42.91171" lon="0.21545">
        <ele>1569</ele>
        <time>2022-04-16T13:32:43Z</time>
      </trkpt>
      <trkpt lat="42.9118" lon="0.21548">
        <ele>1568</ele>
        <time>2022-04-16T13:32:55Z</time>
      </trkpt>
      <trkpt lat="42.91189" lon="0.21554">
        <ele>1567</ele>
        <time>2022-04-16T13:33:04Z</time>
      </trkpt>
      <trkpt lat="42.91196" lon="0.21565">
        <ele>1566</ele>
        <time>2022-04-16T13:33:12Z</time>
      </trkpt>
      <trkpt lat="42.91206" lon="0.2157">
        <ele>1566</ele>
        <time>2022-04-16T13:33:19Z</time>
      </trkpt>
      <trkpt lat="42.91215" lon="0.21575">
        <ele>1565</ele>
        <time>2022-04-16T13:33:29Z</time>
      </trkpt>
      <trkpt lat="42.91219" lon="0.21587">
        <ele>1565</ele>
        <time>2022-04-16T13:33:37Z</time>
      </trkpt>
      <trkpt lat="42.91228" lon="0.21591">
        <ele>1566</ele>
        <time>2022-04-16T13:33:44Z</time>
      </trkpt>
      <trkpt lat="42.91237" lon="0.21593">
        <ele>1567</ele>
        <time>2022-04-16T13:33:52Z</time>
      </trkpt>
      <trkpt lat="42.91246" lon="0.21595">
        <ele>1567</ele>
        <time>2022-04-16T13:33:59Z</time>
      </trkpt>
      <trkpt lat="42.91254" lon="0.21602">
        <ele>1569</ele>
        <time>2022-04-16T13:34:09Z</time>
      </trkpt>
      <trkpt lat="42.91266" lon="0.21603">
        <ele>1569</ele>
        <time>2022-04-16T13:34:20Z</time>
      </trkpt>
      <trkpt lat="42.91274" lon="0.21612">
        <ele>1569</ele>
        <time>2022-04-16T13:34:31Z</time>
      </trkpt>
      <trkpt lat="42.91281" lon="0.21621">
        <ele>1570</ele>
        <time>2022-04-16T13:34:38Z</time>
      </trkpt>
      <trkpt lat="42.91289" lon="0.21629">
        <ele>1570</ele>
        <time>2022-04-16T13:34:44Z</time>
      </trkpt>
      <trkpt lat="42.91298" lon="0.21632">
        <ele>1570</ele>
        <time>2022-04-16T13:34:52Z</time>
      </trkpt>
      <trkpt lat="42.91308" lon="0.2163">
        <ele>1570</ele>
        <time>2022-04-16T13:35:00Z</time>
      </trkpt>
      <trkpt lat="42.91317" lon="0.21632">
        <ele>1570</ele>
        <time>2022-04-16T13:35:08Z</time>
      </trkpt>
      <trkpt lat="42.91326" lon="0.21635">
        <ele>1570</ele>
        <time>2022-04-16T13:35:13Z</time>
      </trkpt>
      <trkpt lat="42.91334" lon="0.21642">
        <ele>1570</ele>
        <time>2022-04-16T13:35:20Z</time>
      </trkpt>
      <trkpt lat="42.91346" lon="0.21643">
        <ele>1570</ele>
        <time>2022-04-16T13:35:29Z</time>
      </trkpt>
      <trkpt lat="42.91352" lon="0.21651">
        <ele>1570</ele>
        <time>2022-04-16T13:35:37Z</time>
      </trkpt>
      <trkpt lat="42.91362" lon="0.21657">
        <ele>1571</ele>
        <time>2022-04-16T13:35:43Z</time>
      </trkpt>
      <trkpt lat="42.9137" lon="0.21665">
        <ele>1571</ele>
        <time>2022-04-16T13:35:54Z</time>
      </trkpt>
      <trkpt lat="42.91381" lon="0.2167">
        <ele>1571</ele>
        <time>2022-04-16T13:36:03Z</time>
      </trkpt>
      <trkpt lat="42.91391" lon="0.21675">
        <ele>1571</ele>
        <time>2022-04-16T13:36:13Z</time>
      </trkpt>
      <trkpt lat="42.914" lon="0.21679">
        <ele>1571</ele>
        <time>2022-04-16T13:36:20Z</time>
      </trkpt>
      <trkpt lat="42.91409" lon="0.21682">
        <ele>1570</ele>
        <time>2022-04-16T13:36:32Z</time>
      </trkpt>
      <trkpt lat="42.91419" lon="0.21684">
        <ele>1570</ele>
        <time>2022-04-16T13:36:37Z</time>
      </trkpt>
      <trkpt lat="42.91429" lon="0.21681">
        <ele>1570</ele>
        <time>2022-04-16T13:36:47Z</time>
      </trkpt>
      <trkpt lat="42.91439" lon="0.21682">
        <ele>1570</ele>
        <time>2022-04-16T13:36:54Z</time>
      </trkpt>
      <trkpt lat="42.91448" lon="0.2168">
        <ele>1570</ele>
        <time>2022-04-16T13:37:00Z</time>
      </trkpt>
      <trkpt lat="42.91457" lon="0.21681">
        <ele>1569</ele>
        <time>2022-04-16T13:37:05Z</time>
      </trkpt>
      <trkpt lat="42.91467" lon="0.21679">
        <ele>1570</ele>
        <time>2022-04-16T13:37:12Z</time>
      </trkpt>
      <trkpt lat="42.91472" lon="0.21669">
        <ele>1570</ele>
        <time>2022-04-16T13:37:22Z</time>
      </trkpt>
      <trkpt lat="42.9148" lon="0.21659">
        <ele>1570</ele>
        <time>2022-04-16T13:37:31Z</time>
      </trkpt>
      <trkpt lat="42.91494" lon="0.21645">
        <ele>1570</ele>
        <time>2022-04-16T13:37:52Z</time>
      </trkpt>
      <trkpt lat="42.91496" lon="0.21643">
        <ele>1570</ele>
        <time>2022-04-16T13:37:54Z</time>
      </trkpt>
      <trkpt lat="42.91497" lon="0.2164">
        <ele>1570</ele>
        <time>2022-04-16T13:37:56Z</time>
      </trkpt>
      <trkpt lat="42.915" lon="0.21638">
        <ele>1570</ele>
        <time>2022-04-16T13:37:57Z</time>
      </trkpt>
      <trkpt lat="42.91502" lon="0.21635">
        <ele>1570</ele>
        <time>2022-04-16T13:37:59Z</time>
      </trkpt>
      <trkpt lat="42.91504" lon="0.21633">
        <ele>1569</ele>
        <time>2022-04-16T13:38:02Z</time>
      </trkpt>
      <trkpt lat="42.91506" lon="0.21631">
        <ele>1569</ele>
        <time>2022-04-16T13:38:04Z</time>
      </trkpt>
      <trkpt lat="42.91508" lon="0.21628">
        <ele>1569</ele>
        <time>2022-04-16T13:38:06Z</time>
      </trkpt>
      <trkpt lat="42.9151" lon="0.21626">
        <ele>1569</ele>
        <time>2022-04-16T13:38:08Z</time>
      </trkpt>
      <trkpt lat="42.91512" lon="0.21623">
        <ele>1569</ele>
        <time>2022-04-16T13:38:10Z</time>
      </trkpt>
      <trkpt lat="42.91514" lon="0.21621">
        <ele>1567</ele>
        <time>2022-04-16T13:38:12Z</time>
      </trkpt>
      <trkpt lat="42.91516" lon="0.21619">
        <ele>1567</ele>
        <time>2022-04-16T13:38:14Z</time>
      </trkpt>
      <trkpt lat="42.91517" lon="0.21616">
        <ele>1567</ele>
        <time>2022-04-16T13:38:16Z</time>
      </trkpt>
      <trkpt lat="42.91518" lon="0.21619">
        <ele>1567</ele>
        <time>2022-04-16T13:38:20Z</time>
      </trkpt>
      <trkpt lat="42.91519" lon="0.21623">
        <ele>1567</ele>
        <time>2022-04-16T13:38:23Z</time>
      </trkpt>
      <trkpt lat="42.91519" lon="0.21627">
        <ele>1567</ele>
        <time>2022-04-16T13:38:25Z</time>
      </trkpt>
      <trkpt lat="42.9152" lon="0.2163">
        <ele>1567</ele>
        <time>2022-04-16T13:38:27Z</time>
      </trkpt>
      <trkpt lat="42.91521" lon="0.21634">
        <ele>1567</ele>
        <time>2022-04-16T13:38:29Z</time>
      </trkpt>
      <trkpt lat="42.91521" lon="0.21637">
        <ele>1567</ele>
        <time>2022-04-16T13:38:31Z</time>
      </trkpt>
      <trkpt lat="42.91522" lon="0.2164">
        <ele>1567</ele>
        <time>2022-04-16T13:38:33Z</time>
      </trkpt>
      <trkpt lat="42.91523" lon="0.21643">
        <ele>1567</ele>
        <time>2022-04-16T13:38:35Z</time>
      </trkpt>
      <trkpt lat="42.91524" lon="0.21646">
        <ele>1567</ele>
        <time>2022-04-16T13:38:37Z</time>
      </trkpt>
      <trkpt lat="42.91525" lon="0.21649">
        <ele>1567</ele>
        <time>2022-04-16T13:38:39Z</time>
      </trkpt>
      <trkpt lat="42.91527" lon="0.21651">
        <ele>1565</ele>
        <time>2022-04-16T13:38:41Z</time>
      </trkpt>
      <trkpt lat="42.91529" lon="0.21653">
        <ele>1565</ele>
        <time>2022-04-16T13:38:43Z</time>
      </trkpt>
      <trkpt lat="42.91531" lon="0.21654">
        <ele>1565</ele>
        <time>2022-04-16T13:38:45Z</time>
      </trkpt>
      <trkpt lat="42.91533" lon="0.21654">
        <ele>1565</ele>
        <time>2022-04-16T13:38:47Z</time>
      </trkpt>
      <trkpt lat="42.91535" lon="0.21655">
        <ele>1565</ele>
        <time>2022-04-16T13:38:49Z</time>
      </trkpt>
      <trkpt lat="42.91537" lon="0.21656">
        <ele>1565</ele>
        <time>2022-04-16T13:38:51Z</time>
      </trkpt>
      <trkpt lat="42.91539" lon="0.21656">
        <ele>1563</ele>
        <time>2022-04-16T13:38:53Z</time>
      </trkpt>
      <trkpt lat="42.91541" lon="0.21656">
        <ele>1563</ele>
        <time>2022-04-16T13:38:55Z</time>
      </trkpt>
      <trkpt lat="42.91542" lon="0.21654">
        <ele>1563</ele>
        <time>2022-04-16T13:38:58Z</time>
      </trkpt>
      <trkpt lat="42.91543" lon="0.21652">
        <ele>1563</ele>
        <time>2022-04-16T13:39:00Z</time>
      </trkpt>
      <trkpt lat="42.91545" lon="0.21649">
        <ele>1561</ele>
        <time>2022-04-16T13:39:02Z</time>
      </trkpt>
      <trkpt lat="42.91548" lon="0.21648">
        <ele>1561</ele>
        <time>2022-04-16T13:39:06Z</time>
      </trkpt>
      <trkpt lat="42.9155" lon="0.21647">
        <ele>1561</ele>
        <time>2022-04-16T13:39:08Z</time>
      </trkpt>
      <trkpt lat="42.91551" lon="0.21645">
        <ele>1560</ele>
        <time>2022-04-16T13:39:11Z</time>
      </trkpt>
      <trkpt lat="42.91554" lon="0.21644">
        <ele>1560</ele>
        <time>2022-04-16T13:39:14Z</time>
      </trkpt>
      <trkpt lat="42.91556" lon="0.21643">
        <ele>1560</ele>
        <time>2022-04-16T13:39:16Z</time>
      </trkpt>
      <trkpt lat="42.91558" lon="0.21642">
        <ele>1560</ele>
        <time>2022-04-16T13:39:19Z</time>
      </trkpt>
      <trkpt lat="42.9156" lon="0.21641">
        <ele>1560</ele>
        <time>2022-04-16T13:39:21Z</time>
      </trkpt>
      <trkpt lat="42.91561" lon="0.21639">
        <ele>1555</ele>
        <time>2022-04-16T13:39:23Z</time>
      </trkpt>
      <trkpt lat="42.91563" lon="0.21638">
        <ele>1555</ele>
        <time>2022-04-16T13:39:25Z</time>
      </trkpt>
      <trkpt lat="42.91565" lon="0.21637">
        <ele>1555</ele>
        <time>2022-04-16T13:39:27Z</time>
      </trkpt>
      <trkpt lat="42.91566" lon="0.21636">
        <ele>1555</ele>
        <time>2022-04-16T13:39:29Z</time>
      </trkpt>
      <trkpt lat="42.91568" lon="0.21635">
        <ele>1555</ele>
        <time>2022-04-16T13:39:31Z</time>
      </trkpt>
      <trkpt lat="42.9157" lon="0.21633">
        <ele>1553</ele>
        <time>2022-04-16T13:39:33Z</time>
      </trkpt>
      <trkpt lat="42.91572" lon="0.21631">
        <ele>1553</ele>
        <time>2022-04-16T13:39:35Z</time>
      </trkpt>
      <trkpt lat="42.91574" lon="0.21631">
        <ele>1553</ele>
        <time>2022-04-16T13:39:37Z</time>
      </trkpt>
      <trkpt lat="42.91576" lon="0.2163">
        <ele>1553</ele>
        <time>2022-04-16T13:39:39Z</time>
      </trkpt>
      <trkpt lat="42.91578" lon="0.21628">
        <ele>1553</ele>
        <time>2022-04-16T13:39:41Z</time>
      </trkpt>
      <trkpt lat="42.9158" lon="0.21626">
        <ele>1551</ele>
        <time>2022-04-16T13:39:43Z</time>
      </trkpt>
      <trkpt lat="42.91582" lon="0.21624">
        <ele>1551</ele>
        <time>2022-04-16T13:39:45Z</time>
      </trkpt>
      <trkpt lat="42.91584" lon="0.21622">
        <ele>1551</ele>
        <time>2022-04-16T13:39:47Z</time>
      </trkpt>
      <trkpt lat="42.91586" lon="0.2162">
        <ele>1551</ele>
        <time>2022-04-16T13:39:49Z</time>
      </trkpt>
      <trkpt lat="42.91588" lon="0.21618">
        <ele>1549</ele>
        <time>2022-04-16T13:39:51Z</time>
      </trkpt>
      <trkpt lat="42.9159" lon="0.21616">
        <ele>1549</ele>
        <time>2022-04-16T13:39:53Z</time>
      </trkpt>
      <trkpt lat="42.91591" lon="0.21614">
        <ele>1549</ele>
        <time>2022-04-16T13:39:55Z</time>
      </trkpt>
      <trkpt lat="42.91592" lon="0.21612">
        <ele>1549</ele>
        <time>2022-04-16T13:39:57Z</time>
      </trkpt>
      <trkpt lat="42.91594" lon="0.21609">
        <ele>1549</ele>
        <time>2022-04-16T13:39:59Z</time>
      </trkpt>
      <trkpt lat="42.91595" lon="0.21606">
        <ele>1549</ele>
        <time>2022-04-16T13:40:01Z</time>
      </trkpt>
      <trkpt lat="42.91596" lon="0.21604">
        <ele>1549</ele>
        <time>2022-04-16T13:40:03Z</time>
      </trkpt>
      <trkpt lat="42.91603" lon="0.21594">
        <ele>1547</ele>
        <time>2022-04-16T13:40:11Z</time>
      </trkpt>
      <trkpt lat="42.91605" lon="0.21581">
        <ele>1547</ele>
        <time>2022-04-16T13:40:20Z</time>
      </trkpt>
      <trkpt lat="42.9161" lon="0.21571">
        <ele>1543</ele>
        <time>2022-04-16T13:40:34Z</time>
      </trkpt>
      <trkpt lat="42.91617" lon="0.21562">
        <ele>1542</ele>
        <time>2022-04-16T13:40:41Z</time>
      </trkpt>
      <trkpt lat="42.91622" lon="0.21551">
        <ele>1542</ele>
        <time>2022-04-16T13:40:50Z</time>
      </trkpt>
      <trkpt lat="42.91624" lon="0.21536">
        <ele>1540</ele>
        <time>2022-04-16T13:41:01Z</time>
      </trkpt>
      <trkpt lat="42.9163" lon="0.21525">
        <ele>1535</ele>
        <time>2022-04-16T13:41:09Z</time>
      </trkpt>
      <trkpt lat="42.91639" lon="0.21514">
        <ele>1535</ele>
        <time>2022-04-16T13:41:20Z</time>
      </trkpt>
      <trkpt lat="42.91645" lon="0.21505">
        <ele>1531</ele>
        <time>2022-04-16T13:41:27Z</time>
      </trkpt>
      <trkpt lat="42.91652" lon="0.21496">
        <ele>1530</ele>
        <time>2022-04-16T13:41:35Z</time>
      </trkpt>
      <trkpt lat="42.9166" lon="0.21488">
        <ele>1527</ele>
        <time>2022-04-16T13:41:53Z</time>
      </trkpt>
      <trkpt lat="42.91669" lon="0.21483">
        <ele>1523</ele>
        <time>2022-04-16T13:42:04Z</time>
      </trkpt>
      <trkpt lat="42.91677" lon="0.2148">
        <ele>1522</ele>
        <time>2022-04-16T13:42:16Z</time>
      </trkpt>
      <trkpt lat="42.91687" lon="0.21476">
        <ele>1519</ele>
        <time>2022-04-16T13:42:26Z</time>
      </trkpt>
      <trkpt lat="42.91696" lon="0.21473">
        <ele>1517</ele>
        <time>2022-04-16T13:42:39Z</time>
      </trkpt>
      <trkpt lat="42.91706" lon="0.21468">
        <ele>1515</ele>
        <time>2022-04-16T13:42:50Z</time>
      </trkpt>
      <trkpt lat="42.91715" lon="0.21466">
        <ele>1512</ele>
        <time>2022-04-16T13:43:01Z</time>
      </trkpt>
      <trkpt lat="42.91725" lon="0.21464">
        <ele>1508</ele>
        <time>2022-04-16T13:43:11Z</time>
      </trkpt>
      <trkpt lat="42.91734" lon="0.21457">
        <ele>1508</ele>
        <time>2022-04-16T13:43:19Z</time>
      </trkpt>
      <trkpt lat="42.91743" lon="0.21455">
        <ele>1509</ele>
        <time>2022-04-16T13:43:27Z</time>
      </trkpt>
      <trkpt lat="42.91753" lon="0.21455">
        <ele>1508</ele>
        <time>2022-04-16T13:43:44Z</time>
      </trkpt>
      <trkpt lat="42.91761" lon="0.21461">
        <ele>1508</ele>
        <time>2022-04-16T13:43:49Z</time>
      </trkpt>
      <trkpt lat="42.9177" lon="0.21456">
        <ele>1507</ele>
        <time>2022-04-16T13:43:58Z</time>
      </trkpt>
      <trkpt lat="42.91778" lon="0.21447">
        <ele>1504</ele>
        <time>2022-04-16T13:44:09Z</time>
      </trkpt>
      <trkpt lat="42.91787" lon="0.21444">
        <ele>1505</ele>
        <time>2022-04-16T13:44:18Z</time>
      </trkpt>
      <trkpt lat="42.91795" lon="0.21435">
        <ele>1503</ele>
        <time>2022-04-16T13:44:42Z</time>
      </trkpt>
      <trkpt lat="42.91804" lon="0.21436">
        <ele>1503</ele>
        <time>2022-04-16T13:44:47Z</time>
      </trkpt>
      <trkpt lat="42.91813" lon="0.21431">
        <ele>1503</ele>
        <time>2022-04-16T13:44:57Z</time>
      </trkpt>
      <trkpt lat="42.91817" lon="0.21429">
        <ele>1502</ele>
        <time>2022-04-16T13:45:02Z</time>
      </trkpt>
      <trkpt lat="42.91824" lon="0.2142">
        <ele>1502</ele>
        <time>2022-04-16T13:45:10Z</time>
      </trkpt>
      <trkpt lat="42.91827" lon="0.21408">
        <ele>1498</ele>
        <time>2022-04-16T13:45:19Z</time>
      </trkpt>
      <trkpt lat="42.91828" lon="0.21405">
        <ele>1497</ele>
        <time>2022-04-16T13:45:21Z</time>
      </trkpt>
      <trkpt lat="42.91829" lon="0.21402">
        <ele>1497</ele>
        <time>2022-04-16T13:45:23Z</time>
      </trkpt>
      <trkpt lat="42.91829" lon="0.21399">
        <ele>1497</ele>
        <time>2022-04-16T13:45:25Z</time>
      </trkpt>
      <trkpt lat="42.91829" lon="0.21396">
        <ele>1497</ele>
        <time>2022-04-16T13:45:27Z</time>
      </trkpt>
      <trkpt lat="42.91829" lon="0.21392">
        <ele>1497</ele>
        <time>2022-04-16T13:45:29Z</time>
      </trkpt>
      <trkpt lat="42.91828" lon="0.21389">
        <ele>1497</ele>
        <time>2022-04-16T13:45:31Z</time>
      </trkpt>
      <trkpt lat="42.91827" lon="0.21386">
        <ele>1496</ele>
        <time>2022-04-16T13:45:33Z</time>
      </trkpt>
      <trkpt lat="42.91826" lon="0.21383">
        <ele>1496</ele>
        <time>2022-04-16T13:45:35Z</time>
      </trkpt>
      <trkpt lat="42.91825" lon="0.2137">
        <ele>1495</ele>
        <time>2022-04-16T13:45:42Z</time>
      </trkpt>
      <trkpt lat="42.91825" lon="0.21366">
        <ele>1495</ele>
        <time>2022-04-16T13:45:44Z</time>
      </trkpt>
      <trkpt lat="42.91825" lon="0.21363">
        <ele>1495</ele>
        <time>2022-04-16T13:45:46Z</time>
      </trkpt>
      <trkpt lat="42.91825" lon="0.21359">
        <ele>1495</ele>
        <time>2022-04-16T13:45:48Z</time>
      </trkpt>
      <trkpt lat="42.91826" lon="0.21357">
        <ele>1495</ele>
        <time>2022-04-16T13:45:50Z</time>
      </trkpt>
      <trkpt lat="42.91827" lon="0.21354">
        <ele>1495</ele>
        <time>2022-04-16T13:45:52Z</time>
      </trkpt>
      <trkpt lat="42.91828" lon="0.21352">
        <ele>1495</ele>
        <time>2022-04-16T13:45:54Z</time>
      </trkpt>
      <trkpt lat="42.91829" lon="0.21349">
        <ele>1495</ele>
        <time>2022-04-16T13:45:56Z</time>
      </trkpt>
      <trkpt lat="42.9183" lon="0.21346">
        <ele>1495</ele>
        <time>2022-04-16T13:45:59Z</time>
      </trkpt>
      <trkpt lat="42.91831" lon="0.21343">
        <ele>1495</ele>
        <time>2022-04-16T13:46:01Z</time>
      </trkpt>
      <trkpt lat="42.91831" lon="0.21341">
        <ele>1492</ele>
        <time>2022-04-16T13:46:03Z</time>
      </trkpt>
      <trkpt lat="42.91831" lon="0.21338">
        <ele>1492</ele>
        <time>2022-04-16T13:46:05Z</time>
      </trkpt>
      <trkpt lat="42.91831" lon="0.21336">
        <ele>1492</ele>
        <time>2022-04-16T13:46:07Z</time>
      </trkpt>
      <trkpt lat="42.91832" lon="0.21332">
        <ele>1492</ele>
        <time>2022-04-16T13:46:10Z</time>
      </trkpt>
      <trkpt lat="42.91833" lon="0.21329">
        <ele>1491</ele>
        <time>2022-04-16T13:46:12Z</time>
      </trkpt>
      <trkpt lat="42.91834" lon="0.21327">
        <ele>1491</ele>
        <time>2022-04-16T13:46:14Z</time>
      </trkpt>
      <trkpt lat="42.91835" lon="0.21324">
        <ele>1491</ele>
        <time>2022-04-16T13:46:16Z</time>
      </trkpt>
      <trkpt lat="42.91836" lon="0.21321">
        <ele>1491</ele>
        <time>2022-04-16T13:46:18Z</time>
      </trkpt>
      <trkpt lat="42.91836" lon="0.21319">
        <ele>1491</ele>
        <time>2022-04-16T13:46:20Z</time>
      </trkpt>
      <trkpt lat="42.91836" lon="0.21316">
        <ele>1490</ele>
        <time>2022-04-16T13:46:22Z</time>
      </trkpt>
      <trkpt lat="42.91837" lon="0.21314">
        <ele>1490</ele>
        <time>2022-04-16T13:46:24Z</time>
      </trkpt>
      <trkpt lat="42.91838" lon="0.21311">
        <ele>1490</ele>
        <time>2022-04-16T13:46:26Z</time>
      </trkpt>
      <trkpt lat="42.91839" lon="0.21308">
        <ele>1490</ele>
        <time>2022-04-16T13:46:28Z</time>
      </trkpt>
      <trkpt lat="42.9184" lon="0.21306">
        <ele>1490</ele>
        <time>2022-04-16T13:46:30Z</time>
      </trkpt>
      <trkpt lat="42.91841" lon="0.21303">
        <ele>1485</ele>
        <time>2022-04-16T13:46:32Z</time>
      </trkpt>
      <trkpt lat="42.91844" lon="0.21292">
        <ele>1483</ele>
        <time>2022-04-16T13:46:41Z</time>
      </trkpt>
      <trkpt lat="42.91844" lon="0.21288">
        <ele>1483</ele>
        <time>2022-04-16T13:46:44Z</time>
      </trkpt>
      <trkpt lat="42.91844" lon="0.21284">
        <ele>1483</ele>
        <time>2022-04-16T13:46:47Z</time>
      </trkpt>
      <trkpt lat="42.91845" lon="0.21281">
        <ele>1483</ele>
        <time>2022-04-16T13:46:50Z</time>
      </trkpt>
      <trkpt lat="42.91846" lon="0.21279">
        <ele>1481</ele>
        <time>2022-04-16T13:46:53Z</time>
      </trkpt>
      <trkpt lat="42.91846" lon="0.21276">
        <ele>1481</ele>
        <time>2022-04-16T13:46:57Z</time>
      </trkpt>
      <trkpt lat="42.91847" lon="0.21274">
        <ele>1481</ele>
        <time>2022-04-16T13:47:00Z</time>
      </trkpt>
      <trkpt lat="42.91848" lon="0.21272">
        <ele>1479</ele>
        <time>2022-04-16T13:47:02Z</time>
      </trkpt>
      <trkpt lat="42.91849" lon="0.2127">
        <ele>1479</ele>
        <time>2022-04-16T13:47:04Z</time>
      </trkpt>
      <trkpt lat="42.9185" lon="0.21267">
        <ele>1479</ele>
        <time>2022-04-16T13:47:07Z</time>
      </trkpt>
      <trkpt lat="42.91851" lon="0.21264">
        <ele>1479</ele>
        <time>2022-04-16T13:47:09Z</time>
      </trkpt>
      <trkpt lat="42.91852" lon="0.21261">
        <ele>1477</ele>
        <time>2022-04-16T13:47:13Z</time>
      </trkpt>
      <trkpt lat="42.91853" lon="0.21258">
        <ele>1477</ele>
        <time>2022-04-16T13:47:16Z</time>
      </trkpt>
      <trkpt lat="42.91853" lon="0.21254">
        <ele>1477</ele>
        <time>2022-04-16T13:47:18Z</time>
      </trkpt>
      <trkpt lat="42.91852" lon="0.21252">
        <ele>1477</ele>
        <time>2022-04-16T13:47:20Z</time>
      </trkpt>
      <trkpt lat="42.91851" lon="0.21249">
        <ele>1472</ele>
        <time>2022-04-16T13:47:22Z</time>
      </trkpt>
      <trkpt lat="42.91852" lon="0.21247">
        <ele>1472</ele>
        <time>2022-04-16T13:47:24Z</time>
      </trkpt>
      <trkpt lat="42.91854" lon="0.21245">
        <ele>1472</ele>
        <time>2022-04-16T13:47:27Z</time>
      </trkpt>
      <trkpt lat="42.91855" lon="0.21243">
        <ele>1472</ele>
        <time>2022-04-16T13:47:30Z</time>
      </trkpt>
      <trkpt lat="42.91857" lon="0.21241">
        <ele>1471</ele>
        <time>2022-04-16T13:47:32Z</time>
      </trkpt>
      <trkpt lat="42.91858" lon="0.21238">
        <ele>1471</ele>
        <time>2022-04-16T13:47:34Z</time>
      </trkpt>
      <trkpt lat="42.91858" lon="0.21235">
        <ele>1471</ele>
        <time>2022-04-16T13:47:37Z</time>
      </trkpt>
      <trkpt lat="42.91857" lon="0.21232">
        <ele>1471</ele>
        <time>2022-04-16T13:47:39Z</time>
      </trkpt>
      <trkpt lat="42.91857" lon="0.21229">
        <ele>1471</ele>
        <time>2022-04-16T13:47:41Z</time>
      </trkpt>
      <trkpt lat="42.91857" lon="0.21227">
        <ele>1467</ele>
        <time>2022-04-16T13:47:43Z</time>
      </trkpt>
      <trkpt lat="42.91857" lon="0.21224">
        <ele>1467</ele>
        <time>2022-04-16T13:47:45Z</time>
      </trkpt>
      <trkpt lat="42.91856" lon="0.21221">
        <ele>1467</ele>
        <time>2022-04-16T13:47:47Z</time>
      </trkpt>
      <trkpt lat="42.91856" lon="0.21219">
        <ele>1467</ele>
        <time>2022-04-16T13:47:49Z</time>
      </trkpt>
      <trkpt lat="42.91856" lon="0.21216">
        <ele>1464</ele>
        <time>2022-04-16T13:47:51Z</time>
      </trkpt>
      <trkpt lat="42.91856" lon="0.21213">
        <ele>1464</ele>
        <time>2022-04-16T13:47:53Z</time>
      </trkpt>
      <trkpt lat="42.91856" lon="0.2121">
        <ele>1464</ele>
        <time>2022-04-16T13:47:55Z</time>
      </trkpt>
      <trkpt lat="42.91856" lon="0.21207">
        <ele>1464</ele>
        <time>2022-04-16T13:47:57Z</time>
      </trkpt>
      <trkpt lat="42.91855" lon="0.21205">
        <ele>1464</ele>
        <time>2022-04-16T13:47:59Z</time>
      </trkpt>
      <trkpt lat="42.91854" lon="0.21202">
        <ele>1461</ele>
        <time>2022-04-16T13:48:02Z</time>
      </trkpt>
      <trkpt lat="42.91854" lon="0.21199">
        <ele>1461</ele>
        <time>2022-04-16T13:48:04Z</time>
      </trkpt>
      <trkpt lat="42.91854" lon="0.21196">
        <ele>1461</ele>
        <time>2022-04-16T13:48:06Z</time>
      </trkpt>
      <trkpt lat="42.91854" lon="0.21194">
        <ele>1461</ele>
        <time>2022-04-16T13:48:08Z</time>
      </trkpt>
      <trkpt lat="42.91855" lon="0.21191">
        <ele>1461</ele>
        <time>2022-04-16T13:48:10Z</time>
      </trkpt>
      <trkpt lat="42.91856" lon="0.21189">
        <ele>1459</ele>
        <time>2022-04-16T13:48:12Z</time>
      </trkpt>
      <trkpt lat="42.91857" lon="0.21186">
        <ele>1459</ele>
        <time>2022-04-16T13:48:14Z</time>
      </trkpt>
      <trkpt lat="42.91858" lon="0.21185">
        <ele>1459</ele>
        <time>2022-04-16T13:48:17Z</time>
      </trkpt>
      <trkpt lat="42.9186" lon="0.21184">
        <ele>1459</ele>
        <time>2022-04-16T13:48:19Z</time>
      </trkpt>
      <trkpt lat="42.91862" lon="0.21183">
        <ele>1458</ele>
        <time>2022-04-16T13:48:21Z</time>
      </trkpt>
      <trkpt lat="42.91864" lon="0.21183">
        <ele>1458</ele>
        <time>2022-04-16T13:48:25Z</time>
      </trkpt>
      <trkpt lat="42.91866" lon="0.21185">
        <ele>1458</ele>
        <time>2022-04-16T13:48:27Z</time>
      </trkpt>
      <trkpt lat="42.91869" lon="0.21188">
        <ele>1458</ele>
        <time>2022-04-16T13:48:29Z</time>
      </trkpt>
      <trkpt lat="42.91872" lon="0.21189">
        <ele>1458</ele>
        <time>2022-04-16T13:48:31Z</time>
      </trkpt>
      <trkpt lat="42.91874" lon="0.2119">
        <ele>1455</ele>
        <time>2022-04-16T13:48:33Z</time>
      </trkpt>
      <trkpt lat="42.91881" lon="0.21198">
        <ele>1455</ele>
        <time>2022-04-16T13:48:39Z</time>
      </trkpt>
      <trkpt lat="42.91889" lon="0.21204">
        <ele>1451</ele>
        <time>2022-04-16T13:48:49Z</time>
      </trkpt>
      <trkpt lat="42.9189" lon="0.21206">
        <ele>1449</ele>
        <time>2022-04-16T13:48:53Z</time>
      </trkpt>
      <trkpt lat="42.91893" lon="0.21209">
        <ele>1449</ele>
        <time>2022-04-16T13:48:57Z</time>
      </trkpt>
      <trkpt lat="42.91896" lon="0.21207">
        <ele>1449</ele>
        <time>2022-04-16T13:48:59Z</time>
      </trkpt>
      <trkpt lat="42.91899" lon="0.21204">
        <ele>1449</ele>
        <time>2022-04-16T13:49:01Z</time>
      </trkpt>
      <trkpt lat="42.91909" lon="0.21201">
        <ele>1445</ele>
        <time>2022-04-16T13:49:08Z</time>
      </trkpt>
      <trkpt lat="42.91916" lon="0.21195">
        <ele>1445</ele>
        <time>2022-04-16T13:49:13Z</time>
      </trkpt>
      <trkpt lat="42.91917" lon="0.21184">
        <ele>1445</ele>
        <time>2022-04-16T13:49:19Z</time>
      </trkpt>
      <trkpt lat="42.91915" lon="0.21181">
        <ele>1443</ele>
        <time>2022-04-16T13:49:21Z</time>
      </trkpt>
      <trkpt lat="42.91913" lon="0.21178">
        <ele>1443</ele>
        <time>2022-04-16T13:49:23Z</time>
      </trkpt>
      <trkpt lat="42.91911" lon="0.21175">
        <ele>1443</ele>
        <time>2022-04-16T13:49:25Z</time>
      </trkpt>
      <trkpt lat="42.91908" lon="0.21173">
        <ele>1443</ele>
        <time>2022-04-16T13:49:27Z</time>
      </trkpt>
      <trkpt lat="42.91905" lon="0.2117">
        <ele>1443</ele>
        <time>2022-04-16T13:49:29Z</time>
      </trkpt>
      <trkpt lat="42.91901" lon="0.21158">
        <ele>1439</ele>
        <time>2022-04-16T13:49:36Z</time>
      </trkpt>
      <trkpt lat="42.91897" lon="0.21154">
        <ele>1437</ele>
        <time>2022-04-16T13:49:41Z</time>
      </trkpt>
      <trkpt lat="42.91896" lon="0.21152">
        <ele>1437</ele>
        <time>2022-04-16T13:49:43Z</time>
      </trkpt>
      <trkpt lat="42.91895" lon="0.21149">
        <ele>1437</ele>
        <time>2022-04-16T13:49:45Z</time>
      </trkpt>
      <trkpt lat="42.91894" lon="0.21137">
        <ele>1436</ele>
        <time>2022-04-16T13:49:54Z</time>
      </trkpt>
      <trkpt lat="42.91895" lon="0.21123">
        <ele>1435</ele>
        <time>2022-04-16T13:50:04Z</time>
      </trkpt>
      <trkpt lat="42.91893" lon="0.2111">
        <ele>1433</ele>
        <time>2022-04-16T13:50:11Z</time>
      </trkpt>
      <trkpt lat="42.91891" lon="0.21098">
        <ele>1433</ele>
        <time>2022-04-16T13:50:20Z</time>
      </trkpt>
      <trkpt lat="42.9189" lon="0.21096">
        <ele>1433</ele>
        <time>2022-04-16T13:50:22Z</time>
      </trkpt>
      <trkpt lat="42.91889" lon="0.21093">
        <ele>1433</ele>
        <time>2022-04-16T13:50:24Z</time>
      </trkpt>
      <trkpt lat="42.91889" lon="0.2109">
        <ele>1433</ele>
        <time>2022-04-16T13:50:27Z</time>
      </trkpt>
      <trkpt lat="42.91888" lon="0.21087">
        <ele>1433</ele>
        <time>2022-04-16T13:50:30Z</time>
      </trkpt>
      <trkpt lat="42.91888" lon="0.21084">
        <ele>1433</ele>
        <time>2022-04-16T13:50:31Z</time>
      </trkpt>
      <trkpt lat="42.91887" lon="0.21081">
        <ele>1433</ele>
        <time>2022-04-16T13:50:34Z</time>
      </trkpt>
      <trkpt lat="42.91886" lon="0.21078">
        <ele>1433</ele>
        <time>2022-04-16T13:50:35Z</time>
      </trkpt>
      <trkpt lat="42.91885" lon="0.21076">
        <ele>1433</ele>
        <time>2022-04-16T13:50:37Z</time>
      </trkpt>
      <trkpt lat="42.91884" lon="0.21073">
        <ele>1433</ele>
        <time>2022-04-16T13:50:39Z</time>
      </trkpt>
      <trkpt lat="42.91882" lon="0.21071">
        <ele>1433</ele>
        <time>2022-04-16T13:50:42Z</time>
      </trkpt>
      <trkpt lat="42.9188" lon="0.21068">
        <ele>1433</ele>
        <time>2022-04-16T13:50:44Z</time>
      </trkpt>
      <trkpt lat="42.91874" lon="0.21071">
        <ele>1433</ele>
        <time>2022-04-16T13:50:49Z</time>
      </trkpt>
      <trkpt lat="42.91872" lon="0.21069">
        <ele>1433</ele>
        <time>2022-04-16T13:50:51Z</time>
      </trkpt>
      <trkpt lat="42.9187" lon="0.21067">
        <ele>1433</ele>
        <time>2022-04-16T13:50:53Z</time>
      </trkpt>
      <trkpt lat="42.91868" lon="0.21068">
        <ele>1433</ele>
        <time>2022-04-16T13:50:55Z</time>
      </trkpt>
      <trkpt lat="42.91866" lon="0.21068">
        <ele>1433</ele>
        <time>2022-04-16T13:50:57Z</time>
      </trkpt>
      <trkpt lat="42.91864" lon="0.21066">
        <ele>1433</ele>
        <time>2022-04-16T13:50:59Z</time>
      </trkpt>
      <trkpt lat="42.91862" lon="0.21065">
        <ele>1433</ele>
        <time>2022-04-16T13:51:01Z</time>
      </trkpt>
      <trkpt lat="42.9186" lon="0.21063">
        <ele>1433</ele>
        <time>2022-04-16T13:51:03Z</time>
      </trkpt>
      <trkpt lat="42.91859" lon="0.21065">
        <ele>1433</ele>
        <time>2022-04-16T13:51:05Z</time>
      </trkpt>
      <trkpt lat="42.91857" lon="0.21068">
        <ele>1433</ele>
        <time>2022-04-16T13:51:07Z</time>
      </trkpt>
      <trkpt lat="42.91855" lon="0.2107">
        <ele>1433</ele>
        <time>2022-04-16T13:51:09Z</time>
      </trkpt>
      <trkpt lat="42.91853" lon="0.21071">
        <ele>1433</ele>
        <time>2022-04-16T13:51:11Z</time>
      </trkpt>
      <trkpt lat="42.91851" lon="0.21072">
        <ele>1430</ele>
        <time>2022-04-16T13:51:13Z</time>
      </trkpt>
      <trkpt lat="42.9185" lon="0.21074">
        <ele>1430</ele>
        <time>2022-04-16T13:51:15Z</time>
      </trkpt>
      <trkpt lat="42.9185" lon="0.21077">
        <ele>1430</ele>
        <time>2022-04-16T13:51:17Z</time>
      </trkpt>
      <trkpt lat="42.91849" lon="0.21079">
        <ele>1430</ele>
        <time>2022-04-16T13:51:19Z</time>
      </trkpt>
      <trkpt lat="42.91849" lon="0.21082">
        <ele>1430</ele>
        <time>2022-04-16T13:51:21Z</time>
      </trkpt>
      <trkpt lat="42.91848" lon="0.21084">
        <ele>1426</ele>
        <time>2022-04-16T13:51:23Z</time>
      </trkpt>
      <trkpt lat="42.91846" lon="0.21086">
        <ele>1426</ele>
        <time>2022-04-16T13:51:25Z</time>
      </trkpt>
      <trkpt lat="42.91838" lon="0.21092">
        <ele>1425</ele>
        <time>2022-04-16T13:51:32Z</time>
      </trkpt>
      <trkpt lat="42.91836" lon="0.21093">
        <ele>1425</ele>
        <time>2022-04-16T13:51:33Z</time>
      </trkpt>
      <trkpt lat="42.9183" lon="0.21097">
        <ele>1423</ele>
        <time>2022-04-16T13:51:42Z</time>
      </trkpt>
      <trkpt lat="42.91828" lon="0.21097">
        <ele>1423</ele>
        <time>2022-04-16T13:51:44Z</time>
      </trkpt>
      <trkpt lat="42.91826" lon="0.21097">
        <ele>1423</ele>
        <time>2022-04-16T13:51:46Z</time>
      </trkpt>
      <trkpt lat="42.91824" lon="0.21097">
        <ele>1423</ele>
        <time>2022-04-16T13:51:48Z</time>
      </trkpt>
      <trkpt lat="42.91822" lon="0.21096">
        <ele>1423</ele>
        <time>2022-04-16T13:51:50Z</time>
      </trkpt>
      <trkpt lat="42.91819" lon="0.21095">
        <ele>1421</ele>
        <time>2022-04-16T13:51:52Z</time>
      </trkpt>
      <trkpt lat="42.91817" lon="0.21094">
        <ele>1421</ele>
        <time>2022-04-16T13:51:54Z</time>
      </trkpt>
      <trkpt lat="42.91814" lon="0.21093">
        <ele>1421</ele>
        <time>2022-04-16T13:51:56Z</time>
      </trkpt>
      <trkpt lat="42.91812" lon="0.21092">
        <ele>1421</ele>
        <time>2022-04-16T13:51:58Z</time>
      </trkpt>
      <trkpt lat="42.9181" lon="0.21092">
        <ele>1421</ele>
        <time>2022-04-16T13:52:00Z</time>
      </trkpt>
      <trkpt lat="42.91808" lon="0.21091">
        <ele>1419</ele>
        <time>2022-04-16T13:52:02Z</time>
      </trkpt>
      <trkpt lat="42.91802" lon="0.2109">
        <ele>1419</ele>
        <time>2022-04-16T13:52:09Z</time>
      </trkpt>
      <trkpt lat="42.918" lon="0.2109">
        <ele>1419</ele>
        <time>2022-04-16T13:52:11Z</time>
      </trkpt>
      <trkpt lat="42.91798" lon="0.2109">
        <ele>1418</ele>
        <time>2022-04-16T13:52:13Z</time>
      </trkpt>
      <trkpt lat="42.91796" lon="0.21089">
        <ele>1418</ele>
        <time>2022-04-16T13:52:15Z</time>
      </trkpt>
      <trkpt lat="42.91794" lon="0.21089">
        <ele>1418</ele>
        <time>2022-04-16T13:52:17Z</time>
      </trkpt>
      <trkpt lat="42.91788" lon="0.21083">
        <ele>1419</ele>
        <time>2022-04-16T13:52:23Z</time>
      </trkpt>
      <trkpt lat="42.91781" lon="0.21077">
        <ele>1419</ele>
        <time>2022-04-16T13:52:32Z</time>
      </trkpt>
      <trkpt lat="42.91775" lon="0.21075">
        <ele>1419</ele>
        <time>2022-04-16T13:52:39Z</time>
      </trkpt>
      <trkpt lat="42.91773" lon="0.21077">
        <ele>1419</ele>
        <time>2022-04-16T13:52:41Z</time>
      </trkpt>
      <trkpt lat="42.91771" lon="0.21075">
        <ele>1418</ele>
        <time>2022-04-16T13:52:43Z</time>
      </trkpt>
      <trkpt lat="42.91765" lon="0.21065">
        <ele>1418</ele>
        <time>2022-04-16T13:52:50Z</time>
      </trkpt>
      <trkpt lat="42.9176" lon="0.21061">
        <ele>1414</ele>
        <time>2022-04-16T13:52:56Z</time>
      </trkpt>
      <trkpt lat="42.91758" lon="0.21073">
        <ele>1414</ele>
        <time>2022-04-16T13:53:03Z</time>
      </trkpt>
      <trkpt lat="42.91758" lon="0.21086">
        <ele>1414</ele>
        <time>2022-04-16T13:53:09Z</time>
      </trkpt>
      <trkpt lat="42.91749" lon="0.2109">
        <ele>1409</ele>
        <time>2022-04-16T13:53:29Z</time>
      </trkpt>
      <trkpt lat="42.9174" lon="0.21085">
        <ele>1408</ele>
        <time>2022-04-16T13:53:36Z</time>
      </trkpt>
      <trkpt lat="42.91731" lon="0.21081">
        <ele>1408</ele>
        <time>2022-04-16T13:53:40Z</time>
      </trkpt>
      <trkpt lat="42.91722" lon="0.21087">
        <ele>1409</ele>
        <time>2022-04-16T13:53:54Z</time>
      </trkpt>
      <trkpt lat="42.91713" lon="0.21086">
        <ele>1410</ele>
        <time>2022-04-16T13:54:03Z</time>
      </trkpt>
      <trkpt lat="42.91703" lon="0.21089">
        <ele>1410</ele>
        <time>2022-04-16T13:54:12Z</time>
      </trkpt>
      <trkpt lat="42.91696" lon="0.21082">
        <ele>1410</ele>
        <time>2022-04-16T13:54:17Z</time>
      </trkpt>
      <trkpt lat="42.91687" lon="0.21078">
        <ele>1412</ele>
        <time>2022-04-16T13:54:24Z</time>
      </trkpt>
      <trkpt lat="42.91679" lon="0.2107">
        <ele>1412</ele>
        <time>2022-04-16T13:54:34Z</time>
      </trkpt>
      <trkpt lat="42.91673" lon="0.21061">
        <ele>1413</ele>
        <time>2022-04-16T13:54:49Z</time>
      </trkpt>
      <trkpt lat="42.91679" lon="0.21052">
        <ele>1415</ele>
        <time>2022-04-16T13:54:53Z</time>
      </trkpt>
      <trkpt lat="42.91674" lon="0.21021">
        <ele>1417</ele>
        <time>2022-04-16T13:55:24Z</time>
      </trkpt>
      <trkpt lat="42.91672" lon="0.21009">
        <ele>1419</ele>
        <time>2022-04-16T13:55:41Z</time>
      </trkpt>
      <trkpt lat="42.91666" lon="0.20999">
        <ele>1419</ele>
        <time>2022-04-16T13:55:49Z</time>
      </trkpt>
      <trkpt lat="42.91657" lon="0.20993">
        <ele>1420</ele>
        <time>2022-04-16T13:55:57Z</time>
      </trkpt>
      <trkpt lat="42.91657" lon="0.2098">
        <ele>1422</ele>
        <time>2022-04-16T13:56:15Z</time>
      </trkpt>
      <trkpt lat="42.91656" lon="0.20968">
        <ele>1426</ele>
        <time>2022-04-16T13:56:24Z</time>
      </trkpt>
      <trkpt lat="42.91653" lon="0.20956">
        <ele>1426</ele>
        <time>2022-04-16T13:56:38Z</time>
      </trkpt>
      <trkpt lat="42.91646" lon="0.20965">
        <ele>1428</ele>
        <time>2022-04-16T13:56:56Z</time>
      </trkpt>
      <trkpt lat="42.91641" lon="0.20975">
        <ele>1432</ele>
        <time>2022-04-16T13:57:06Z</time>
      </trkpt>
      <trkpt lat="42.91638" lon="0.20963">
        <ele>1433</ele>
        <time>2022-04-16T13:57:16Z</time>
      </trkpt>
      <trkpt lat="42.91637" lon="0.2095">
        <ele>1434</ele>
        <time>2022-04-16T13:57:25Z</time>
      </trkpt>
      <trkpt lat="42.91636" lon="0.20937">
        <ele>1434</ele>
        <time>2022-04-16T13:57:32Z</time>
      </trkpt>
      <trkpt lat="42.91642" lon="0.20926">
        <ele>1435</ele>
        <time>2022-04-16T13:57:43Z</time>
      </trkpt>
      <trkpt lat="42.91651" lon="0.2093">
        <ele>1435</ele>
        <time>2022-04-16T13:58:06Z</time>
      </trkpt>
      <trkpt lat="42.91659" lon="0.20931">
        <ele>1433</ele>
        <time>2022-04-16T13:58:14Z</time>
      </trkpt>
      <trkpt lat="42.91667" lon="0.20924">
        <ele>1433</ele>
        <time>2022-04-16T13:58:28Z</time>
      </trkpt>
      <trkpt lat="42.9167" lon="0.20936">
        <ele>1434</ele>
        <time>2022-04-16T13:58:39Z</time>
      </trkpt>
      <trkpt lat="42.91677" lon="0.20946">
        <ele>1440</ele>
        <time>2022-04-16T13:58:56Z</time>
      </trkpt>
      <trkpt lat="42.91687" lon="0.20944">
        <ele>1441</ele>
        <time>2022-04-16T13:59:22Z</time>
      </trkpt>
      <trkpt lat="42.91691" lon="0.20933">
        <ele>1441</ele>
        <time>2022-04-16T13:59:30Z</time>
      </trkpt>
      <trkpt lat="42.91701" lon="0.20933">
        <ele>1440</ele>
        <time>2022-04-16T13:59:37Z</time>
      </trkpt>
      <trkpt lat="42.9171" lon="0.20926">
        <ele>1440</ele>
        <time>2022-04-16T13:59:42Z</time>
      </trkpt>
      <trkpt lat="42.91716" lon="0.20914">
        <ele>1440</ele>
        <time>2022-04-16T13:59:53Z</time>
      </trkpt>
    </trkseg>
  </trk>
</gpx>